| time (UTC) | temp C | wind direction | speed KPH | gust KPH | rain 1hr cm | rain 24hr cm | rain mn cm | humidity % | barometer mb |
| 20260901063817 | 27 | 360 | 9.7 | 16.1 | 0.00 | 0.00 | 0.00 | 73 | 1017.1 |
| 20260901063742 | 27 | 360 | 9.7 | 16.1 | 0.00 | 0.00 | 0.00 | 73 | 1017.1 |
| 20260901063621 | 27 | 360 | 9.7 | 16.1 | 0.00 | 0.00 | 0.00 | 73 | 1017.2 |
| 20260901063541 | 27 | 360 | 9.7 | 16.1 | 0.00 | 0.00 | 0.00 | 73 | 1017.1 |
| 20260901063420 | 27 | 360 | 9.7 | 16.1 | 0.00 | 0.00 | 0.00 | 73 | 1017.1 |
| 20260901063320 | 27 | 360 | 11.3 | 16.1 | 0.00 | 0.00 | 0.00 | 73 | 1017.2 |
| 20260901063241 | 27 | 360 | 9.7 | 16.1 | 0.00 | 0.00 | 0.00 | 73 | 1017.2 |
| 20260901063120 | 27 | 360 | 8.0 | 16.1 | 0.00 | 0.00 | 0.00 | 73 | 1017.0 |
| 20260901063021 | 27 | 360 | 6.4 | 16.1 | 0.00 | 0.00 | 0.00 | 73 | 1017.2 |
| 20260901062924 | 27 | 360 | 8.0 | 20.9 | 0.00 | 0.00 | 0.00 | 73 | 1017.2 |
| 20260901062826 | 27 | 360 | 9.7 | 20.9 | 0.00 | 0.00 | 0.00 | 73 | 1017.1 |
| 20260901062726 | 27 | 360 | 9.7 | 20.9 | 0.00 | 0.00 | 0.00 | 73 | 1017.1 |
| 20260901062626 | 27 | 360 | 9.7 | 20.9 | 0.00 | 0.00 | 0.00 | 73 | 1017.1 |
| 20260901062527 | 27 | 360 | 8.0 | 20.9 | 0.00 | 0.00 | 0.00 | 72 | 1017.1 |
| 20260901062427 | 27 | 360 | 6.4 | 20.9 | 0.00 | 0.00 | 0.00 | 72 | 1017.1 |
| 20260901062332 | 27 | 360 | 8.0 | 20.9 | 0.00 | 0.00 | 0.00 | 72 | 1017.0 |
| 20260901062232 | 27 | 360 | 9.7 | 20.9 | 0.00 | 0.00 | 0.00 | 72 | 1017.0 |
| 20260901062133 | 27 | 360 | 11.3 | 20.9 | 0.00 | 0.00 | 0.00 | 72 | 1017.0 |
| 20260901062032 | 27 | 360 | 11.3 | 19.3 | 0.00 | 0.00 | 0.00 | 72 | 1017.0 |
| 20260901061931 | 27 | 360 | 11.3 | 19.3 | 0.00 | 0.00 | 0.00 | 72 | 1016.9 |
| 20260901061852 | 27 | 360 | 11.3 | 19.3 | 0.00 | 0.00 | 0.00 | 72 | 1016.9 |
| 20260901061733 | 27 | 360 | 9.7 | 19.3 | 0.00 | 0.00 | 0.00 | 72 | 1016.9 |
| 20260901061618 | 27 | 360 | 8.0 | 19.3 | 0.00 | 0.00 | 0.00 | 72 | 1016.9 |
| 20260901061538 | 27 | 360 | 6.4 | 19.3 | 0.00 | 0.00 | 0.00 | 72 | 1016.9 |
| 20260901061417 | 27 | 360 | 9.7 | 22.5 | 0.00 | 0.00 | 0.00 | 72 | 1016.9 |
| 20260901061317 | 27 | 360 | 11.3 | 22.5 | 0.00 | 0.00 | 0.00 | 72 | 1016.9 |
| 20260901061219 | 27 | 360 | 12.9 | 22.5 | 0.00 | 0.00 | 0.00 | 72 | 1016.9 |
| 20260901061119 | 27 | 360 | 12.9 | 22.5 | 0.00 | 0.00 | 0.00 | 72 | 1016.9 |
| 20260901061018 | 27 | 360 | 12.9 | 22.5 | 0.00 | 0.00 | 0.00 | 72 | 1016.9 |
| 20260901060918 | 27 | 360 | 12.9 | 22.5 | 0.00 | 0.00 | 0.00 | 72 | 1016.9 |
| 20260901060823 | 27 | 360 | 12.9 | 22.5 | 0.00 | 0.00 | 0.00 | 72 | 1016.9 |
| 20260901060724 | 28 | 360 | 12.9 | 22.5 | 0.00 | 0.00 | 0.00 | 72 | 1016.9 |
| 20260901060622 | 27 | 360 | 11.3 | 22.5 | 0.00 | 0.00 | 0.00 | 72 | 1016.8 |
| 20260901060522 | 28 | 360 | 9.7 | 20.9 | 0.00 | 0.00 | 0.00 | 71 | 1016.8 |
| 20260901060422 | 28 | 360 | 9.7 | 20.9 | 0.00 | 0.00 | 0.00 | 71 | 1016.7 |
| 20260901060343 | 28 | 360 | 9.7 | 20.9 | 0.00 | 0.00 | 0.00 | 71 | 1016.7 |
| 20260901060222 | 28 | 360 | 9.7 | 20.9 | 0.00 | 0.00 | 0.00 | 71 | 1016.7 |
| 20260901060122 | 28 | 360 | 9.7 | 20.9 | 0.00 | 0.00 | 0.00 | 71 | 1016.7 |
| 20260901060026 | 28 | 360 | 8.0 | 20.9 | 0.00 | 0.00 | 0.00 | 71 | 1016.7 |
| 20260901055926 | 28 | 360 | 6.4 | 20.9 | 0.00 | 0.00 | 0.00 | 71 | 1016.8 |
| 20260901055828 | 28 | 360 | 8.0 | 25.7 | 0.00 | 0.00 | 0.00 | 71 | 1016.7 |
| 20260901055728 | 28 | 360 | 9.7 | 25.7 | 0.00 | 0.00 | 0.00 | 71 | 1016.7 |
| 20260901055628 | 28 | 360 | 9.7 | 25.7 | 0.00 | 0.00 | 0.00 | 71 | 1016.7 |
| 20260901055528 | 28 | 360 | 11.3 | 25.7 | 0.00 | 0.00 | 0.00 | 71 | 1016.7 |
| 20260901055432 | 28 | 360 | 9.7 | 25.7 | 0.00 | 0.00 | 0.00 | 70 | 1016.7 |
| 20260901055333 | 28 | 360 | 11.3 | 25.7 | 0.00 | 0.00 | 0.00 | 70 | 1016.6 |
| 20260901055234 | 28 | 360 | 14.5 | 25.7 | 0.00 | 0.00 | 0.00 | 70 | 1016.7 |
| 20260901055154 | 28 | 360 | 12.9 | 25.7 | 0.00 | 0.00 | 0.00 | 70 | 1016.7 |
| 20260901055053 | 28 | 360 | 12.9 | 25.7 | 0.00 | 0.00 | 0.00 | 70 | 1016.8 |
| 20260901054932 | 28 | 360 | 11.3 | 24.1 | 0.00 | 0.00 | 0.00 | 70 | 1016.8 |
| 20260901054833 | 28 | 360 | 14.5 | 24.1 | 0.00 | 0.00 | 0.00 | 70 | 1016.8 |
| 20260901054753 | 28 | 360 | 16.1 | 24.1 | 0.00 | 0.00 | 0.00 | 70 | 1016.8 |
| 20260901054618 | 28 | 360 | 14.5 | 24.1 | 0.00 | 0.00 | 0.00 | 70 | 1016.7 |
| 20260901054538 | 28 | 360 | 14.5 | 24.1 | 0.00 | 0.00 | 0.00 | 70 | 1016.8 |
| 20260901054417 | 28 | 360 | 12.9 | 24.1 | 0.00 | 0.00 | 0.00 | 70 | 1016.7 |
| 20260901054337 | 28 | 360 | 12.9 | 24.1 | 0.00 | 0.00 | 0.00 | 70 | 1016.7 |
| 20260901054217 | 28 | 360 | 14.5 | 24.1 | 0.00 | 0.00 | 0.00 | 70 | 1016.8 |
| 20260901054137 | 28 | 360 | 14.5 | 24.1 | 0.00 | 0.00 | 0.00 | 70 | 1016.8 |
| 20260901054037 | 28 | 360 | 12.9 | 24.1 | 0.00 | 0.00 | 0.00 | 70 | 1016.8 |
| 20260901053958 | 28 | 360 | 12.9 | 24.1 | 0.00 | 0.00 | 0.00 | 70 | 1016.8 |
| 20260901053857 | 28 | 360 | 12.9 | 24.1 | 0.00 | 0.00 | 0.00 | 70 | 1016.8 |
| 20260901053720 | 28 | 360 | 11.3 | 24.1 | 0.00 | 0.00 | 0.00 | 70 | 1016.8 |
| 20260901053621 | 28 | 360 | 11.3 | 27.4 | 0.00 | 0.00 | 0.00 | 69 | 1016.7 |
| 20260901053522 | 28 | 360 | 11.3 | 27.4 | 0.00 | 0.00 | 0.00 | 69 | 1016.7 |
| 20260901053423 | 28 | 360 | 9.7 | 27.4 | 0.00 | 0.00 | 0.00 | 69 | 1016.8 |
| 20260901053324 | 28 | 360 | 8.0 | 27.4 | 0.00 | 0.00 | 0.00 | 70 | 1016.7 |
| 20260901053224 | 28 | 360 | 8.0 | 27.4 | 0.00 | 0.00 | 0.00 | 69 | 1016.8 |
| 20260901053124 | 28 | 360 | 11.3 | 27.4 | 0.00 | 0.00 | 0.00 | 70 | 1016.8 |
| 20260901053047 | 28 | 360 | 12.9 | 27.4 | 0.00 | 0.00 | 0.00 | 70 | 1016.7 |
| 20260901052927 | 28 | 360 | 12.9 | 27.4 | 0.00 | 0.00 | 0.00 | 70 | 1016.8 |
| 20260901052828 | 28 | 360 | 14.5 | 27.4 | 0.00 | 0.00 | 0.00 | 70 | 1016.8 |
| 20260901052727 | 28 | 360 | 11.3 | 27.4 | 0.00 | 0.00 | 0.00 | 70 | 1016.7 |
| 20260901052629 | 28 | 360 | 11.3 | 27.4 | 0.00 | 0.00 | 0.00 | 70 | 1016.8 |
| 20260901052529 | 28 | 360 | 9.7 | 25.7 | 0.00 | 0.00 | 0.00 | 70 | 1016.8 |
| 20260901052450 | 28 | 360 | 11.3 | 25.7 | 0.00 | 0.00 | 0.00 | 70 | 1016.8 |
| 20260901052333 | 28 | 360 | 11.3 | 25.7 | 0.00 | 0.00 | 0.00 | 70 | 1016.7 |
| 20260901052234 | 28 | 360 | 9.7 | 25.7 | 0.00 | 0.00 | 0.00 | 70 | 1016.7 |
| 20260901052134 | 28 | 360 | 9.7 | 25.7 | 0.00 | 0.00 | 0.00 | 70 | 1016.7 |
| 20260901052035 | 28 | 360 | 9.7 | 25.7 | 0.00 | 0.00 | 0.00 | 70 | 1016.7 |
| 20260901051955 | 28 | 360 | 11.3 | 25.7 | 0.00 | 0.00 | 0.00 | 69 | 1016.7 |
| 20260901051835 | 28 | 360 | 11.3 | 25.7 | 0.00 | 0.00 | 0.00 | 69 | 1016.7 |
| 20260901051735 | 28 | 360 | 12.9 | 24.1 | 0.00 | 0.00 | 0.00 | 69 | 1016.7 |
| 20260901051619 | 28 | 360 | 11.3 | 24.1 | 0.00 | 0.00 | 0.00 | 69 | 1016.6 |
| 20260901051541 | 28 | 360 | 8.0 | 20.9 | 0.00 | 0.00 | 0.00 | 69 | 1016.6 |
| 20260901051420 | 28 | 360 | 9.7 | 20.9 | 0.00 | 0.00 | 0.00 | 69 | 1016.6 |
| 20260901051321 | 28 | 360 | 12.9 | 20.9 | 0.00 | 0.00 | 0.00 | 69 | 1016.6 |
| 20260901051221 | 28 | 360 | 12.9 | 22.5 | 0.00 | 0.00 | 0.00 | 69 | 1016.6 |
| 20260901051122 | 28 | 360 | 9.7 | 22.5 | 0.00 | 0.00 | 0.00 | 69 | 1016.5 |
| 20260901051044 | 28 | 360 | 8.0 | 22.5 | 0.00 | 0.00 | 0.00 | 69 | 1016.6 |
| 20260901050922 | 28 | 360 | 6.4 | 22.5 | 0.00 | 0.00 | 0.00 | 69 | 1016.5 |
| 20260901050827 | 28 | 360 | 9.7 | 22.5 | 0.00 | 0.00 | 0.00 | 69 | 1016.5 |
| 20260901050748 | 28 | 360 | 9.7 | 22.5 | 0.00 | 0.00 | 0.00 | 69 | 1016.5 |
| 20260901050627 | 28 | 360 | 12.9 | 22.5 | 0.00 | 0.00 | 0.00 | 69 | 1016.6 |
| 20260901050528 | 28 | 360 | 12.9 | 24.1 | 0.00 | 0.00 | 0.00 | 69 | 1016.6 |
| 20260901050429 | 28 | 360 | 12.9 | 24.1 | 0.00 | 0.00 | 0.00 | 69 | 1016.6 |
| 20260901050329 | 28 | 360 | 12.9 | 24.1 | 0.00 | 0.00 | 0.00 | 69 | 1016.6 |
| 20260901050230 | 28 | 360 | 14.5 | 27.4 | 0.00 | 0.00 | 0.00 | 69 | 1016.5 |
| 20260901050134 | 29 | 360 | 12.9 | 27.4 | 0.00 | 0.00 | 0.00 | 69 | 1016.5 |
| 20260901050055 | 29 | 360 | 12.9 | 29.0 | 0.00 | 0.00 | 0.00 | 69 | 1016.5 |
| 20260901045927 | 29 | 360 | 12.9 | 29.0 | 0.00 | 0.00 | 0.00 | 69 | 1016.6 |
| 20260901045827 | 29 | 360 | 12.9 | 29.0 | 0.00 | 0.00 | 0.00 | 69 | 1016.5 |
| 20260901045746 | 29 | 360 | 12.9 | 29.0 | 0.00 | 0.00 | 0.00 | 69 | 1016.6 |
| 20260901045626 | 29 | 360 | 12.9 | 29.0 | 0.00 | 0.00 | 0.00 | 69 | 1016.6 |
| 20260901045526 | 29 | 360 | 17.7 | 29.0 | 0.00 | 0.00 | 0.00 | 69 | 1016.7 |
| 20260901045427 | 29 | 360 | 17.7 | 29.0 | 0.00 | 0.00 | 0.00 | 69 | 1016.7 |
| 20260901045330 | 29 | 360 | 16.1 | 29.0 | 0.00 | 0.00 | 0.00 | 69 | 1016.6 |
| 20260901045231 | 29 | 360 | 14.5 | 29.0 | 0.00 | 0.00 | 0.00 | 69 | 1016.7 |
| 20260901045152 | 29 | 360 | 14.5 | 27.4 | 0.00 | 0.00 | 0.00 | 69 | 1016.6 |
| 20260901045031 | 29 | 360 | 12.9 | 27.4 | 0.00 | 0.00 | 0.00 | 69 | 1016.6 |
| 20260901044931 | 29 | 360 | 11.3 | 27.4 | 0.00 | 0.00 | 0.00 | 69 | 1016.5 |
| 20260901044831 | 29 | 360 | 9.7 | 27.4 | 0.00 | 0.00 | 0.00 | 69 | 1016.5 |
| 20260901044732 | 29 | 360 | 11.3 | 27.4 | 0.00 | 0.00 | 0.00 | 69 | 1016.6 |
| 20260901044616 | 29 | 360 | 12.9 | 27.4 | 0.00 | 0.00 | 0.00 | 69 | 1016.5 |
| 20260901044537 | 29 | 360 | 14.5 | 27.4 | 0.00 | 0.00 | 0.00 | 68 | 1016.5 |
| 20260901044457 | 29 | 360 | 14.5 | 27.4 | 0.00 | 0.00 | 0.00 | 68 | 1016.6 |
| 20260901044316 | 29 | 360 | 12.9 | 24.1 | 0.00 | 0.00 | 0.00 | 68 | 1016.5 |
| 20260901044217 | 29 | 360 | 12.9 | 24.1 | 0.00 | 0.00 | 0.00 | 68 | 1016.5 |
| 20260901044138 | 29 | 360 | 12.9 | 24.1 | 0.00 | 0.00 | 0.00 | 68 | 1016.5 |
| 20260901044018 | 29 | 360 | 12.9 | 24.1 | 0.00 | 0.00 | 0.00 | 68 | 1016.5 |
| 20260901043938 | 29 | 360 | 12.9 | 24.1 | 0.00 | 0.00 | 0.00 | 68 | 1016.5 |
| 20260901043822 | 29 | 360 | 12.9 | 24.1 | 0.00 | 0.00 | 0.00 | 68 | 1016.4 |
| 20260901043722 | 29 | 360 | 14.5 | 24.1 | 0.00 | 0.00 | 0.00 | 68 | 1016.4 |
| 20260901043623 | 29 | 360 | 14.5 | 24.1 | 0.00 | 0.00 | 0.00 | 68 | 1016.5 |
| 20260901043544 | 29 | 360 | 12.9 | 24.1 | 0.00 | 0.00 | 0.00 | 68 | 1016.5 |
| 20260901043443 | 29 | 360 | 11.3 | 22.5 | 0.00 | 0.00 | 0.00 | 68 | 1016.5 |
| 20260901043322 | 29 | 360 | 11.3 | 22.5 | 0.00 | 0.00 | 0.00 | 68 | 1016.5 |
| 20260901043222 | 29 | 360 | 14.5 | 22.5 | 0.00 | 0.00 | 0.00 | 67 | 1016.4 |
| 20260901043127 | 29 | 360 | 17.7 | 22.5 | 0.00 | 0.00 | 0.00 | 67 | 1016.5 |
| 20260901043028 | 29 | 360 | 17.7 | 24.1 | 0.00 | 0.00 | 0.00 | 67 | 1016.4 |
| 20260901042929 | 29 | 360 | 16.1 | 27.4 | 0.00 | 0.00 | 0.00 | 67 | 1016.5 |
| 20260901042831 | 29 | 360 | 14.5 | 27.4 | 0.00 | 0.00 | 0.00 | 67 | 1016.5 |
| 20260901042731 | 29 | 360 | 12.9 | 27.4 | 0.00 | 0.00 | 0.00 | 67 | 1016.4 |
| 20260901042633 | 30 | 360 | 12.9 | 27.4 | 0.00 | 0.00 | 0.00 | 67 | 1016.5 |
| 20260901042517 | 30 | 360 | 12.9 | 27.4 | 0.00 | 0.00 | 0.00 | 67 | 1016.5 |
| 20260901042417 | 30 | 360 | 14.5 | 27.4 | 0.00 | 0.00 | 0.00 | 67 | 1016.4 |
| 20260901042338 | 30 | 360 | 14.5 | 27.4 | 0.00 | 0.00 | 0.00 | 66 | 1016.4 |
| 20260901042218 | 30 | 360 | 12.9 | 27.4 | 0.00 | 0.00 | 0.00 | 66 | 1016.5 |
| 20260901042118 | 30 | 360 | 12.9 | 27.4 | 0.00 | 0.00 | 0.00 | 66 | 1016.4 |
| 20260901042019 | 30 | 360 | 16.1 | 27.4 | 0.00 | 0.00 | 0.00 | 66 | 1016.5 |
| 20260901041919 | 30 | 360 | 17.7 | 25.7 | 0.00 | 0.00 | 0.00 | 66 | 1016.5 |
| 20260901041824 | 30 | 360 | 16.1 | 25.7 | 0.00 | 0.00 | 0.00 | 66 | 1016.5 |
| 20260901041725 | 30 | 360 | 16.1 | 25.7 | 0.00 | 0.00 | 0.00 | 66 | 1016.4 |
| 20260901041625 | 30 | 360 | 16.1 | 25.7 | 0.00 | 0.00 | 0.00 | 66 | 1016.5 |
| 20260901041526 | 30 | 360 | 16.1 | 27.4 | 0.00 | 0.00 | 0.00 | 66 | 1016.4 |
| 20260901041425 | 30 | 360 | 16.1 | 27.4 | 0.00 | 0.00 | 0.00 | 66 | 1016.4 |
| 20260901041326 | 30 | 360 | 14.5 | 27.4 | 0.00 | 0.00 | 0.00 | 66 | 1016.4 |
| 20260901041248 | 30 | 360 | 14.5 | 27.4 | 0.00 | 0.00 | 0.00 | 66 | 1016.4 |
| 20260901041147 | 30 | 360 | 14.5 | 27.4 | 0.00 | 0.00 | 0.00 | 66 | 1016.4 |
| 20260901041030 | 30 | 360 | 14.5 | 27.4 | 0.00 | 0.00 | 0.00 | 65 | 1016.4 |
| 20260901040931 | 30 | 360 | 14.5 | 27.4 | 0.00 | 0.00 | 0.00 | 65 | 1016.4 |
| 20260901040831 | 30 | 360 | 16.1 | 27.4 | 0.00 | 0.00 | 0.00 | 65 | 1016.5 |
| 20260901040755 | 30 | 360 | 17.7 | 27.4 | 0.00 | 0.00 | 0.00 | 65 | 1016.4 |
| 20260901040632 | 30 | 360 | 16.1 | 27.4 | 0.00 | 0.00 | 0.00 | 65 | 1016.5 |
| 20260901040553 | 30 | 360 | 14.5 | 27.4 | 0.00 | 0.00 | 0.00 | 65 | 1016.4 |
| 20260901040431 | 30 | 360 | 12.9 | 27.4 | 0.00 | 0.00 | 0.00 | 65 | 1016.4 |
| 20260901040317 | 30 | 360 | 14.5 | 27.4 | 0.00 | 0.00 | 0.00 | 65 | 1016.4 |
| 20260901040216 | 30 | 360 | 14.5 | 27.4 | 0.00 | 0.00 | 0.00 | 65 | 1016.4 |
| 20260901040116 | 30 | 360 | 14.5 | 27.4 | 0.00 | 0.00 | 0.00 | 65 | 1016.4 |
| 20260901040018 | 30 | 360 | 16.1 | 27.4 | 0.00 | 0.00 | 0.00 | 65 | 1016.4 |
| 20260901035917 | 30 | 360 | 16.1 | 27.4 | 0.00 | 0.00 | 0.00 | 65 | 1016.4 |
| 20260901035819 | 30 | 360 | 16.1 | 25.7 | 0.00 | 0.00 | 0.00 | 65 | 1016.5 |
| 20260901035718 | 30 | 360 | 14.5 | 25.7 | 0.00 | 0.00 | 0.00 | 65 | 1016.4 |
| 20260901035623 | 30 | 360 | 12.9 | 25.7 | 0.00 | 0.00 | 0.00 | 65 | 1016.5 |
| 20260901035522 | 30 | 360 | 11.3 | 25.7 | 0.00 | 0.00 | 0.00 | 64 | 1016.4 |
| 20260901035443 | 30 | 360 | 12.9 | 29.0 | 0.00 | 0.00 | 0.00 | 64 | 1016.4 |
| 20260901035343 | 30 | 360 | 14.5 | 29.0 | 0.00 | 0.00 | 0.00 | 64 | 1016.4 |
| 20260901035222 | 30 | 360 | 16.1 | 29.0 | 0.00 | 0.00 | 0.00 | 64 | 1016.4 |
| 20260901035123 | 30 | 360 | 12.9 | 29.0 | 0.00 | 0.00 | 0.00 | 64 | 1016.4 |
| 20260901035023 | 30 | 360 | 12.9 | 29.0 | 0.00 | 0.00 | 0.00 | 64 | 1016.5 |
| 20260901034922 | 30 | 360 | 12.9 | 29.0 | 0.00 | 0.00 | 0.00 | 64 | 1016.5 |
| 20260901034843 | 30 | 360 | 17.7 | 29.0 | 0.00 | 0.00 | 0.00 | 64 | 1016.5 |
| 20260901034725 | 30 | 360 | 17.7 | 29.0 | 0.00 | 0.00 | 0.00 | 64 | 1016.4 |
| 20260901034627 | 30 | 360 | 16.1 | 25.7 | 0.00 | 0.00 | 0.00 | 64 | 1016.5 |
| 20260901034546 | 30 | 360 | 12.9 | 24.1 | 0.00 | 0.00 | 0.00 | 64 | 1016.4 |
| 20260901034446 | 30 | 360 | 11.3 | 24.1 | 0.00 | 0.00 | 0.00 | 63 | 1016.4 |
| 20260901034326 | 30 | 360 | 11.3 | 24.1 | 0.00 | 0.00 | 0.00 | 63 | 1016.4 |
| 20260901034227 | 30 | 360 | 11.3 | 24.1 | 0.00 | 0.00 | 0.00 | 63 | 1016.3 |
| 20260901034127 | 30 | 360 | 14.5 | 24.1 | 0.00 | 0.00 | 0.00 | 63 | 1016.3 |
| 20260901034031 | 30 | 360 | 14.5 | 24.1 | 0.00 | 0.00 | 0.00 | 63 | 1016.3 |
| 20260901033932 | 30 | 360 | 14.5 | 30.6 | 0.00 | 0.00 | 0.00 | 63 | 1016.4 |
| 20260901033832 | 30 | 360 | 14.5 | 30.6 | 0.00 | 0.00 | 0.00 | 63 | 1016.3 |
| 20260901033753 | 30 | 360 | 14.5 | 30.6 | 0.00 | 0.00 | 0.00 | 63 | 1016.3 |
| 20260901033633 | 30 | 360 | 16.1 | 30.6 | 0.00 | 0.00 | 0.00 | 63 | 1016.3 |
| 20260901033554 | 30 | 360 | 17.7 | 30.6 | 0.00 | 0.00 | 0.00 | 63 | 1016.3 |
| 20260901033433 | 30 | 360 | 16.1 | 30.6 | 0.00 | 0.00 | 0.00 | 63 | 1016.3 |
| 20260901033318 | 30 | 360 | 16.1 | 30.6 | 0.00 | 0.00 | 0.00 | 62 | 1016.3 |
| 20260901033218 | 30 | 360 | 16.1 | 30.6 | 0.00 | 0.00 | 0.00 | 62 | 1016.2 |
| 20260901033118 | 30 | 360 | 16.1 | 30.6 | 0.00 | 0.00 | 0.00 | 62 | 1016.2 |
| 20260901033018 | 30 | 360 | 14.5 | 29.0 | 0.00 | 0.00 | 0.00 | 62 | 1016.3 |
| 20260901032919 | 30 | 360 | 14.5 | 29.0 | 0.00 | 0.00 | 0.00 | 62 | 1016.2 |
| 20260901032820 | 30 | 360 | 14.5 | 29.0 | 0.00 | 0.00 | 0.00 | 62 | 1016.2 |
| 20260901032720 | 30 | 360 | 17.7 | 29.0 | 0.00 | 0.00 | 0.00 | 61 | 1016.3 |
| 20260901032623 | 30 | 360 | 17.7 | 29.0 | 0.00 | 0.00 | 0.00 | 61 | 1016.3 |
| 20260901032524 | 30 | 360 | 17.7 | 29.0 | 0.00 | 0.00 | 0.00 | 61 | 1016.3 |
| 20260901032424 | 30 | 360 | 16.1 | 29.0 | 0.00 | 0.00 | 0.00 | 61 | 1016.2 |
| 20260901032345 | 30 | 360 | 16.1 | 29.0 | 0.00 | 0.00 | 0.00 | 61 | 1016.2 |
| 20260901032223 | 30 | 360 | 16.1 | 29.0 | 0.00 | 0.00 | 0.00 | 60 | 1016.2 |
| 20260901032144 | 30 | 360 | 16.1 | 29.0 | 0.00 | 0.00 | 0.00 | 60 | 1016.1 |
| 20260901032024 | 30 | 360 | 16.1 | 29.0 | 0.00 | 0.00 | 0.00 | 60 | 1016.2 |
| 20260901031923 | 30 | 360 | 19.3 | 29.0 | 0.00 | 0.00 | 0.00 | 60 | 1016.2 |
| 20260901031849 | 30 | 360 | 19.3 | 29.0 | 0.00 | 0.00 | 0.00 | 60 | 1016.1 |
| 20260901031728 | 30 | 360 | 19.3 | 29.0 | 0.00 | 0.00 | 0.00 | 59 | 1016.1 |
| 20260901031629 | 30 | 360 | 17.7 | 30.6 | 0.00 | 0.00 | 0.00 | 59 | 1016.2 |
| 20260901031548 | 30 | 360 | 17.7 | 30.6 | 0.00 | 0.00 | 0.00 | 59 | 1016.1 |
| 20260901031428 | 30 | 360 | 16.1 | 33.8 | 0.00 | 0.00 | 0.00 | 59 | 1016.1 |
| 20260901031329 | 30 | 360 | 17.7 | 33.8 | 0.00 | 0.00 | 0.00 | 59 | 1016.1 |
| 20260901031229 | 31 | 360 | 16.1 | 33.8 | 0.00 | 0.00 | 0.00 | 58 | 1016.1 |
| 20260901031134 | 31 | 360 | 17.7 | 33.8 | 0.00 | 0.00 | 0.00 | 58 | 1016.1 |
| 20260901031034 | 31 | 360 | 19.3 | 33.8 | 0.00 | 0.00 | 0.00 | 58 | 1016.1 |
| 20260901030954 | 31 | 360 | 22.5 | 33.8 | 0.00 | 0.00 | 0.00 | 58 | 1016.1 |
| 20260901030834 | 31 | 360 | 24.1 | 35.4 | 0.00 | 0.00 | 0.00 | 58 | 1016.1 |
| 20260901030754 | 31 | 360 | 24.1 | 35.4 | 0.00 | 0.00 | 0.00 | 57 | 1016.0 |
| 20260901030635 | 31 | 360 | 22.5 | 35.4 | 0.00 | 0.00 | 0.00 | 57 | 1016.0 |
| 20260901030555 | 31 | 360 | 22.5 | 35.4 | 0.00 | 0.00 | 0.00 | 57 | 1015.9 |
| 20260901030454 | 31 | 360 | 19.3 | 35.4 | 0.00 | 0.00 | 0.00 | 57 | 1016.0 |
| 20260901030333 | 31 | 360 | 20.9 | 35.4 | 0.00 | 0.00 | 0.00 | 57 | 1016.0 |
| 20260901030217 | 31 | 360 | 20.9 | 35.4 | 0.00 | 0.00 | 0.00 | 56 | 1015.9 |
| 20260901030118 | 31 | 360 | 22.5 | 35.4 | 0.00 | 0.00 | 0.00 | 56 | 1015.9 |
| 20260901030019 | 31 | 360 | 20.9 | 35.4 | 0.00 | 0.00 | 0.00 | 56 | 1015.9 |
| 20260901025920 | 31 | 360 | 17.7 | 35.4 | 0.00 | 0.00 | 0.00 | 56 | 1015.8 |
| 20260901025821 | 31 | 360 | 14.5 | 32.2 | 0.00 | 0.00 | 0.00 | 55 | 1015.9 |
| 20260901025719 | 31 | 360 | 16.1 | 33.8 | 0.00 | 0.00 | 0.00 | 54 | 1015.9 |
| 20260901025640 | 31 | 360 | 19.3 | 33.8 | 0.00 | 0.00 | 0.00 | 54 | 1015.8 |
| 20260901025524 | 31 | 360 | 20.9 | 33.8 | 0.00 | 0.00 | 0.00 | 54 | 1015.8 |
| 20260901025425 | 31 | 360 | 19.3 | 33.8 | 0.00 | 0.00 | 0.00 | 54 | 1015.8 |
| 20260901025325 | 31 | 360 | 17.7 | 33.8 | 0.00 | 0.00 | 0.00 | 54 | 1015.8 |
| 20260901025225 | 31 | 360 | 16.1 | 33.8 | 0.00 | 0.00 | 0.00 | 53 | 1015.8 |
| 20260901025126 | 31 | 360 | 17.7 | 33.8 | 0.00 | 0.00 | 0.00 | 53 | 1015.8 |
| 20260901025027 | 31 | 360 | 20.9 | 33.8 | 0.00 | 0.00 | 0.00 | 52 | 1015.7 |
| 20260901024927 | 31 | 360 | 22.5 | 33.8 | 0.00 | 0.00 | 0.00 | 52 | 1015.8 |
| 20260901024830 | 31 | 360 | 24.1 | 33.8 | 0.00 | 0.00 | 0.00 | 52 | 1015.7 |
| 20260901024732 | 31 | 360 | 22.5 | 32.2 | 0.00 | 0.00 | 0.00 | 52 | 1015.6 |
| 20260901024633 | 31 | 360 | 24.1 | 32.2 | 0.00 | 0.00 | 0.00 | 52 | 1015.7 |
| 20260901024535 | 31 | 360 | 24.1 | 32.2 | 0.00 | 0.00 | 0.00 | 51 | 1015.6 |
| 20260901024435 | 31 | 360 | 22.5 | 32.2 | 0.00 | 0.00 | 0.00 | 51 | 1015.6 |
| 20260901024316 | 31 | 360 | 17.7 | 32.2 | 0.00 | 0.00 | 0.00 | 51 | 1015.6 |
| 20260901024221 | 31 | 360 | 16.1 | 30.6 | 0.00 | 0.00 | 0.00 | 49 | 1015.7 |
| 20260901024142 | 31 | 360 | 14.5 | 24.1 | 0.00 | 0.00 | 0.00 | 48 | 1015.6 |
| 20260901024022 | 31 | 360 | 12.9 | 24.1 | 0.00 | 0.00 | 0.00 | 48 | 1015.5 |
| 20260901023921 | 31 | 360 | 11.3 | 24.1 | 0.00 | 0.00 | 0.00 | 48 | 1015.6 |
| 20260901023822 | 31 | 360 | 11.3 | 16.1 | 0.00 | 0.00 | 0.00 | 48 | 1015.6 |
| 20260901023723 | 31 | 360 | 11.3 | 16.1 | 0.00 | 0.00 | 0.00 | 48 | 1015.5 |
| 20260901023623 | 31 | 360 | 9.7 | 16.1 | 0.00 | 0.00 | 0.00 | 48 | 1015.5 |
| 20260901023527 | 31 | 360 | 9.7 | 16.1 | 0.00 | 0.00 | 0.00 | 48 | 1015.5 |
| 20260901023428 | 31 | 360 | 8.0 | 14.5 | 0.00 | 0.00 | 0.00 | 48 | 1015.4 |
| 20260901023329 | 31 | 360 | 8.0 | 14.5 | 0.00 | 0.00 | 0.00 | 48 | 1015.4 |
| 20260901023227 | 31 | 360 | 9.7 | 14.5 | 0.00 | 0.00 | 0.00 | 48 | 1015.4 |
| 20260901023147 | 31 | 360 | 9.7 | 14.5 | 0.00 | 0.00 | 0.00 | 48 | 1015.4 |
| 20260901023026 | 31 | 360 | 8.0 | 14.5 | 0.00 | 0.00 | 0.00 | 48 | 1015.3 |
| 20260901022928 | 31 | 360 | 8.0 | 14.5 | 0.00 | 0.00 | 0.00 | 49 | 1015.4 |
| 20260901022834 | 31 | 360 | 6.4 | 12.9 | 0.00 | 0.00 | 0.00 | 49 | 1015.4 |
| 20260901022733 | 31 | 360 | 6.4 | 14.5 | 0.00 | 0.00 | 0.00 | 49 | 1015.3 |
| 20260901022634 | 31 | 360 | 6.4 | 14.5 | 0.00 | 0.00 | 0.00 | 49 | 1015.3 |
| 20260901022534 | 31 | 360 | 6.4 | 14.5 | 0.00 | 0.00 | 0.00 | 49 | 1015.3 |
| 20260901022455 | 31 | 360 | 6.4 | 14.5 | 0.00 | 0.00 | 0.00 | 49 | 1015.3 |
| 20260901022335 | 31 | 360 | 6.4 | 14.5 | 0.00 | 0.00 | 0.00 | 49 | 1015.3 |
| 20260901022220 | 31 | 360 | 8.0 | 14.5 | 0.00 | 0.00 | 0.00 | 49 | 1015.2 |
| 20260901022141 | 31 | 360 | 8.0 | 14.5 | 0.00 | 0.00 | 0.00 | 49 | 1015.2 |
| 20260901022019 | 31 | 360 | 8.0 | 14.5 | 0.00 | 0.00 | 0.00 | 49 | 1015.2 |
| 20260901021940 | 31 | 360 | 9.7 | 14.5 | 0.00 | 0.00 | 0.00 | 49 | 1015.1 |
| 20260901021839 | 31 | 360 | 8.0 | 14.5 | 0.00 | 0.00 | 0.00 | 49 | 1015.2 |
| 20260901021716 | 31 | 360 | 8.0 | 14.5 | 0.00 | 0.00 | 0.00 | 49 | 1015.2 |
| 20260901021618 | 31 | 360 | 8.0 | 14.5 | 0.00 | 0.00 | 0.00 | 49 | 1015.1 |
| 20260901021518 | 31 | 360 | 8.0 | 14.5 | 0.00 | 0.00 | 0.00 | 49 | 1015.2 |
| 20260901021419 | 31 | 360 | 8.0 | 14.5 | 0.00 | 0.00 | 0.00 | 49 | 1015.1 |
| 20260901021323 | 31 | 360 | 8.0 | 14.5 | 0.00 | 0.00 | 0.00 | 49 | 1015.1 |
| 20260901021223 | 31 | 360 | 8.0 | 12.9 | 0.00 | 0.00 | 0.00 | 49 | 1015.1 |
| 20260901021124 | 31 | 360 | 8.0 | 12.9 | 0.00 | 0.00 | 0.00 | 49 | 1015.1 |
| 20260901021025 | 31 | 360 | 8.0 | 12.9 | 0.00 | 0.00 | 0.00 | 50 | 1015.1 |
| 20260901020926 | 31 | 360 | 6.4 | 12.9 | 0.00 | 0.00 | 0.00 | 49 | 1015.1 |
| 20260901020826 | 31 | 360 | 8.0 | 12.9 | 0.00 | 0.00 | 0.00 | 49 | 1015.1 |
| 20260901020726 | 31 | 360 | 8.0 | 12.9 | 0.00 | 0.00 | 0.00 | 49 | 1015.1 |
| 20260901020630 | 31 | 360 | 6.4 | 12.9 | 0.00 | 0.00 | 0.00 | 49 | 1015.2 |
| 20260901020531 | 31 | 360 | 6.4 | 12.9 | 0.00 | 0.00 | 0.00 | 49 | 1015.1 |
| 20260901020430 | 31 | 360 | 6.4 | 12.9 | 0.00 | 0.00 | 0.00 | 49 | 1015.1 |
| 20260901020331 | 31 | 360 | 6.4 | 12.9 | 0.00 | 0.00 | 0.00 | 49 | 1015.1 |
| 20260901020251 | 31 | 360 | 6.4 | 12.9 | 0.00 | 0.00 | 0.00 | 49 | 1015.0 |
| 20260901020130 | 31 | 360 | 6.4 | 12.9 | 0.00 | 0.00 | 0.00 | 49 | 1015.0 |
| 20260901020031 | 31 | 360 | 6.4 | 9.7 | 0.00 | 0.00 | 0.00 | 49 | 1014.9 |
| 20260901015935 | 31 | 360 | 6.4 | 9.7 | 0.00 | 0.00 | 0.00 | 49 | 1015.0 |
| 20260901015818 | 31 | 360 | 4.8 | 9.7 | 0.00 | 0.00 | 0.00 | 49 | 1015.0 |
| 20260901015717 | 31 | 360 | 4.8 | 8.0 | 0.00 | 0.00 | 0.00 | 49 | 1014.9 |
| 20260901015617 | 31 | 360 | 3.2 | 8.0 | 0.00 | 0.00 | 0.00 | 49 | 1014.9 |
| 20260901015538 | 31 | 360 | 4.8 | 8.0 | 0.00 | 0.00 | 0.00 | 49 | 1014.8 |
| 20260901015419 | 31 | 360 | 3.2 | 8.0 | 0.00 | 0.00 | 0.00 | 49 | 1014.8 |
| 20260901015321 | 32 | 360 | 4.8 | 8.0 | 0.00 | 0.00 | 0.00 | 49 | 1014.7 |
| 20260901015225 | 32 | 360 | 3.2 | 6.4 | 0.00 | 0.00 | 0.00 | 48 | 1014.7 |
| 20260901015126 | 32 | 360 | 3.2 | 6.4 | 0.00 | 0.00 | 0.00 | 48 | 1014.7 |
| 20260901015046 | 32 | 360 | 3.2 | 6.4 | 0.00 | 0.00 | 0.00 | 49 | 1014.7 |
| 20260901014947 | 32 | 360 | 3.2 | 6.4 | 0.00 | 0.00 | 0.00 | 48 | 1014.7 |
| 20260901014827 | 32 | 360 | 3.2 | 6.4 | 0.00 | 0.00 | 0.00 | 48 | 1014.6 |
| 20260901014727 | 32 | 360 | 3.2 | 6.4 | 0.00 | 0.00 | 0.00 | 48 | 1014.7 |
| 20260901014625 | 32 | 360 | 3.2 | 8.0 | 0.00 | 0.00 | 0.00 | 48 | 1014.6 |
| 20260901014529 | 32 | 360 | 3.2 | 8.0 | 0.00 | 0.00 | 0.00 | 48 | 1014.7 |
| 20260901014431 | 32 | 360 | 3.2 | 8.0 | 0.00 | 0.00 | 0.00 | 48 | 1014.6 |
| 20260901014331 | 32 | 360 | 3.2 | 8.0 | 0.00 | 0.00 | 0.00 | 48 | 1014.7 |
| 20260901014252 | 32 | 360 | 3.2 | 8.0 | 0.00 | 0.00 | 0.00 | 48 | 1014.6 |
| 20260901014131 | 32 | 360 | 3.2 | 8.0 | 0.00 | 0.00 | 0.00 | 48 | 1014.7 |
| 20260901014031 | 32 | 360 | 3.2 | 8.0 | 0.00 | 0.00 | 0.00 | 48 | 1014.6 |
| 20260901013931 | 32 | 360 | 3.2 | 8.0 | 0.00 | 0.00 | 0.00 | 48 | 1014.7 |
| 20260901013816 | 32 | 360 | 3.2 | 6.4 | 0.00 | 0.00 | 0.00 | 48 | 1014.6 |
| 20260901013716 | 32 | 360 | 3.2 | 6.4 | 0.00 | 0.00 | 0.00 | 47 | 1014.6 |
| 20260901013617 | 32 | 360 | 3.2 | 6.4 | 0.00 | 0.00 | 0.00 | 47 | 1014.6 |
| 20260901013518 | 32 | 360 | 3.2 | 4.8 | 0.00 | 0.00 | 0.00 | 47 | 1014.6 |
| 20260901013419 | 32 | 360 | 3.2 | 4.8 | 0.00 | 0.00 | 0.00 | 47 | 1014.6 |
| 20260901013319 | 32 | 142 | 3.2 | 4.8 | 0.00 | 0.00 | 0.00 | 47 | 1014.6 |
| 20260901013225 | 32 | 360 | 3.2 | 4.8 | 0.00 | 0.00 | 0.00 | 47 | 1014.6 |
| 20260901013126 | 32 | 142 | 3.2 | 6.4 | 0.00 | 0.00 | 0.00 | 47 | 1014.6 |
| 20260901013046 | 32 | 360 | 3.2 | 6.4 | 0.00 | 0.00 | 0.00 | 47 | 1014.6 |
| 20260901012946 | 32 | 360 | 3.2 | 6.4 | 0.00 | 0.00 | 0.00 | 47 | 1014.6 |
| 20260901012847 | 32 | 360 | 3.2 | 6.4 | 0.00 | 0.00 | 0.00 | 48 | 1014.6 |
| 20260901012745 | 32 | 360 | 3.2 | 6.4 | 0.00 | 0.00 | 0.00 | 47 | 1014.6 |
| 20260901012624 | 32 | 360 | 3.2 | 6.4 | 0.00 | 0.00 | 0.00 | 47 | 1014.6 |
| 20260901012545 | 32 | 360 | 3.2 | 6.4 | 0.00 | 0.00 | 0.00 | 47 | 1014.6 |
| 20260901012425 | 32 | 360 | 3.2 | 4.8 | 0.00 | 0.00 | 0.00 | 47 | 1014.7 |
| 20260901012329 | 32 | 143 | 3.2 | 4.8 | 0.00 | 0.00 | 0.00 | 47 | 1014.6 |
| 20260901012229 | 32 | 360 | 3.2 | 6.4 | 0.00 | 0.00 | 0.00 | 47 | 1014.6 |
| 20260901012130 | 32 | 360 | 1.6 | 6.4 | 0.00 | 0.00 | 0.00 | 47 | 1014.6 |
| 20260901012051 | 32 | 360 | 3.2 | 6.4 | 0.00 | 0.00 | 0.00 | 47 | 1014.5 |
| 20260901011931 | 32 | 142 | 3.2 | 6.4 | 0.00 | 0.00 | 0.00 | 47 | 1014.5 |
| 20260901011831 | 32 | 142 | 3.2 | 6.4 | 0.00 | 0.00 | 0.00 | 47 | 1014.5 |
| 20260901011732 | 32 | 360 | 3.2 | 6.4 | 0.00 | 0.00 | 0.00 | 47 | 1014.4 |
| 20260901011617 | 32 | 360 | 3.2 | 6.4 | 0.00 | 0.00 | 0.00 | 47 | 1014.6 |
| 20260901011519 | 32 | 360 | 3.2 | 6.4 | 0.00 | 0.00 | 0.00 | 47 | 1014.5 |
| 20260901011419 | 32 | 360 | 3.2 | 6.4 | 0.00 | 0.00 | 0.00 | 46 | 1014.5 |
| 20260901011340 | 32 | 360 | 3.2 | 6.4 | 0.00 | 0.00 | 0.00 | 46 | 1014.5 |
| 20260901011220 | 32 | 360 | 4.8 | 8.0 | 0.00 | 0.00 | 0.00 | 46 | 1014.4 |
| 20260901011119 | 32 | 360 | 3.2 | 8.0 | 0.00 | 0.00 | 0.00 | 46 | 1014.4 |
| 20260901011040 | 32 | 360 | 3.2 | 8.0 | 0.00 | 0.00 | 0.00 | 46 | 1014.4 |
| 20260901010924 | 32 | 360 | 3.2 | 8.0 | 0.00 | 0.00 | 0.00 | 46 | 1014.4 |
| 20260901010825 | 32 | 360 | 3.2 | 8.0 | 0.00 | 0.00 | 0.00 | 46 | 1014.3 |
| 20260901010726 | 32 | 360 | 4.8 | 8.0 | 0.00 | 0.00 | 0.00 | 46 | 1014.3 |
| 20260901010625 | 33 | 360 | 4.8 | 8.0 | 0.00 | 0.00 | 0.00 | 46 | 1014.3 |
| 20260901010546 | 33 | 360 | 3.2 | 8.0 | 0.00 | 0.00 | 0.00 | 46 | 1014.4 |
| 20260901010425 | 33 | 360 | 3.2 | 6.4 | 0.00 | 0.00 | 0.00 | 46 | 1014.3 |
| 20260901010326 | 33 | 360 | 3.2 | 6.4 | 0.00 | 0.00 | 0.00 | 46 | 1014.3 |
| 20260901010230 | 33 | 360 | 3.2 | 8.0 | 0.00 | 0.00 | 0.00 | 46 | 1014.4 |
| 20260901010130 | 33 | 360 | 3.2 | 8.0 | 0.00 | 0.00 | 0.00 | 46 | 1014.4 |
| 20260901010031 | 33 | 146 | 3.2 | 8.0 | 0.00 | 0.00 | 0.00 | 46 | 1014.4 |
| 20260901005931 | 33 | 360 | 3.2 | 8.0 | 0.00 | 0.00 | 0.00 | 46 | 1014.4 |
| 20260901005833 | 33 | 146 | 3.2 | 8.0 | 0.00 | 0.00 | 0.00 | 46 | 1014.4 |
| 20260901005732 | 33 | 360 | 3.2 | 8.0 | 0.00 | 0.00 | 0.00 | 46 | 1014.3 |
| 20260901005616 | 33 | 360 | 4.8 | 8.0 | 0.00 | 0.00 | 0.00 | 46 | 1014.3 |
| 20260901005517 | 33 | 360 | 4.8 | 8.0 | 0.00 | 0.00 | 0.00 | 45 | 1014.4 |
| 20260901005437 | 33 | 147 | 4.8 | 8.0 | 0.00 | 0.00 | 0.00 | 45 | 1014.3 |
| 20260901005336 | 33 | 360 | 3.2 | 8.0 | 0.00 | 0.00 | 0.00 | 45 | 1014.4 |
| 20260901005257 | 33 | 360 | 3.2 | 8.0 | 0.00 | 0.00 | 0.00 | 45 | 1014.3 |
| 20260901005116 | 33 | 360 | 3.2 | 8.0 | 0.00 | 0.00 | 0.00 | 45 | 1014.3 |
| 20260901005017 | 33 | 122 | 3.2 | 8.0 | 0.00 | 0.00 | 0.00 | 45 | 1014.4 |
| 20260901004917 | 33 | 123 | 3.2 | 8.0 | 0.00 | 0.00 | 0.00 | 45 | 1014.3 |
| 20260901004842 | 33 | 360 | 3.2 | 9.7 | 0.00 | 0.00 | 0.00 | 45 | 1014.3 |
| 20260901004721 | 33 | 122 | 4.8 | 9.7 | 0.00 | 0.00 | 0.00 | 45 | 1014.3 |
| 20260901004622 | 33 | 360 | 4.8 | 14.5 | 0.00 | 0.00 | 0.00 | 44 | 1014.3 |
| 20260901004523 | 33 | 360 | 4.8 | 17.7 | 0.00 | 0.00 | 0.00 | 44 | 1014.4 |
| 20260901004424 | 33 | 117 | 4.8 | 17.7 | 0.00 | 0.00 | 0.00 | 44 | 1014.3 |
| 20260901004324 | 33 | 117 | 3.2 | 17.7 | 0.00 | 0.00 | 0.00 | 44 | 1014.3 |
| 20260901004225 | 33 | 117 | 4.8 | 17.7 | 0.00 | 0.00 | 0.00 | 44 | 1014.3 |
| 20260901004130 | 33 | 360 | 4.8 | 17.7 | 0.00 | 0.00 | 0.00 | 44 | 1014.4 |
| 20260901004030 | 33 | 360 | 8.0 | 17.7 | 0.00 | 0.00 | 0.00 | 44 | 1014.3 |
| 20260901003931 | 33 | 360 | 8.0 | 16.1 | 0.00 | 0.00 | 0.00 | 44 | 1014.3 |
| 20260901003830 | 33 | 360 | 8.0 | 16.1 | 0.00 | 0.00 | 0.00 | 44 | 1014.3 |
| 20260901003731 | 33 | 360 | 6.4 | 16.1 | 0.00 | 0.00 | 0.00 | 44 | 1014.4 |
| 20260901003634 | 33 | 360 | 4.8 | 14.5 | 0.00 | 0.00 | 0.00 | 44 | 1014.3 |
| 20260901003518 | 33 | 360 | 4.8 | 16.1 | 0.00 | 0.00 | 0.00 | 44 | 1014.4 |
| 20260901003419 | 34 | 360 | 6.4 | 16.1 | 0.00 | 0.00 | 0.00 | 44 | 1014.4 |
| 20260901003319 | 34 | 360 | 6.4 | 17.7 | 0.00 | 0.00 | 0.00 | 44 | 1014.4 |
| 20260901003240 | 34 | 360 | 6.4 | 17.7 | 0.00 | 0.00 | 0.00 | 44 | 1014.3 |
| 20260901003118 | 34 | 360 | 6.4 | 17.7 | 0.00 | 0.00 | 0.00 | 44 | 1014.3 |
| 20260901003019 | 34 | 360 | 6.4 | 19.3 | 0.00 | 0.00 | 0.00 | 44 | 1014.3 |
| 20260901002939 | 34 | 360 | 6.4 | 19.3 | 0.00 | 0.00 | 0.00 | 44 | 1014.3 |
| 20260901002825 | 34 | 360 | 6.4 | 19.3 | 0.00 | 0.00 | 0.00 | 44 | 1014.2 |
| 20260901002744 | 34 | 360 | 8.0 | 19.3 | 0.00 | 0.00 | 0.00 | 44 | 1014.2 |
| 20260901002643 | 34 | 360 | 8.0 | 19.3 | 0.00 | 0.00 | 0.00 | 43 | 1014.2 |
| 20260901002523 | 34 | 360 | 8.0 | 24.1 | 0.00 | 0.00 | 0.00 | 43 | 1014.1 |
| 20260901002423 | 34 | 360 | 8.0 | 24.1 | 0.00 | 0.00 | 0.00 | 43 | 1014.2 |
| 20260901002323 | 34 | 360 | 8.0 | 24.1 | 0.00 | 0.00 | 0.00 | 43 | 1014.2 |
| 20260901002224 | 34 | 360 | 8.0 | 24.1 | 0.00 | 0.00 | 0.00 | 43 | 1014.2 |
| 20260901002124 | 34 | 360 | 9.7 | 24.1 | 0.00 | 0.00 | 0.00 | 43 | 1014.2 |
| 20260901002029 | 34 | 360 | 9.7 | 24.1 | 0.00 | 0.00 | 0.00 | 43 | 1014.2 |
| 20260901001930 | 34 | 360 | 11.3 | 24.1 | 0.00 | 0.00 | 0.00 | 43 | 1014.2 |
| 20260901001830 | 34 | 360 | 9.7 | 24.1 | 0.00 | 0.00 | 0.00 | 43 | 1014.2 |
| 20260901001751 | 34 | 360 | 11.3 | 24.1 | 0.00 | 0.00 | 0.00 | 44 | 1014.2 |
| 20260901001630 | 34 | 360 | 12.9 | 24.1 | 0.00 | 0.00 | 0.00 | 44 | 1014.1 |
| 20260901001531 | 34 | 360 | 11.3 | 19.3 | 0.00 | 0.00 | 0.00 | 44 | 1014.2 |
| 20260901001415 | 34 | 360 | 11.3 | 17.7 | 0.00 | 0.00 | 0.00 | 44 | 1014.2 |
| 20260901001316 | 34 | 360 | 9.7 | 17.7 | 0.00 | 0.00 | 0.00 | 44 | 1014.2 |
| 20260901001217 | 34 | 116 | 8.0 | 17.7 | 0.00 | 0.00 | 0.00 | 44 | 1014.3 |
| 20260901001118 | 34 | 360 | 9.7 | 17.7 | 0.00 | 0.00 | 0.00 | 44 | 1014.2 |
| 20260901001018 | 34 | 360 | 9.7 | 17.7 | 0.00 | 0.00 | 0.00 | 44 | 1014.3 |
| 20260901000918 | 34 | 360 | 8.0 | 17.7 | 0.00 | 0.00 | 0.00 | 44 | 1014.2 |
| 20260901000819 | 34 | 117 | 9.7 | 16.1 | 0.00 | 0.00 | 0.00 | 44 | 1014.2 |
| 20260901000724 | 35 | 360 | 9.7 | 16.1 | 0.00 | 0.00 | 0.00 | 44 | 1014.2 |
| 20260901000644 | 35 | 360 | 9.7 | 16.1 | 0.00 | 0.00 | 0.00 | 44 | 1014.2 |
| 20260901000524 | 35 | 360 | 8.0 | 16.1 | 0.00 | 0.00 | 0.00 | 44 | 1014.2 |
| 20260901000424 | 35 | 360 | 6.4 | 12.9 | 0.00 | 0.00 | 0.00 | 44 | 1014.2 |
| 20260901000325 | 35 | 360 | 4.8 | 12.9 | 0.00 | 0.00 | 0.00 | 44 | 1014.2 |
| 20260901000248 | 35 | 360 | 4.8 | 8.0 | 0.00 | 0.00 | 0.00 | 45 | 1014.1 |
| 20260901000145 | 35 | 360 | 4.8 | 8.0 | 0.00 | 0.00 | 0.00 | 45 | 1014.2 |
| 20260901000024 | 35 | 360 | 4.8 | 8.0 | 0.00 | 0.00 | 0.00 | 44 | 1014.2 |
| 20260831235929 | 35 | 360 | 4.8 | 8.0 | 0.00 | 0.00 | 0.00 | 44 | 1014.2 |
| 20260831235829 | 35 | 360 | 4.8 | 8.0 | 0.00 | 0.00 | 0.00 | 44 | 1014.1 |
| 20260831235729 | 35 | 360 | 4.8 | 8.0 | 0.00 | 0.00 | 0.00 | 44 | 1014.1 |
| 20260831235628 | 35 | 360 | 3.2 | 8.0 | 0.00 | 0.00 | 0.00 | 43 | 1014.2 |
| 20260831235549 | 35 | 360 | 4.8 | 8.0 | 0.00 | 0.00 | 0.00 | 44 | 1014.2 |
| 20260831235429 | 35 | 360 | 3.2 | 9.7 | 0.00 | 0.00 | 0.00 | 44 | 1014.1 |
| 20260831235349 | 35 | 136 | 4.8 | 9.7 | 0.00 | 0.00 | 0.00 | 44 | 1014.2 |
| 20260831235228 | 35 | 136 | 4.8 | 9.7 | 0.00 | 0.00 | 0.00 | 44 | 1014.1 |
| 20260831235153 | 35 | 360 | 4.8 | 9.7 | 0.00 | 0.00 | 0.00 | 44 | 1014.2 |
| 20260831235033 | 35 | 360 | 4.8 | 9.7 | 0.00 | 0.00 | 0.00 | 44 | 1014.2 |
| 20260831234933 | 35 | 360 | 4.8 | 9.7 | 0.00 | 0.00 | 0.00 | 44 | 1014.2 |
| 20260831234834 | 35 | 360 | 6.4 | 9.7 | 0.00 | 0.00 | 0.00 | 44 | 1014.2 |
| 20260831234734 | 35 | 360 | 4.8 | 9.7 | 0.00 | 0.00 | 0.00 | 44 | 1014.2 |
| 20260831234635 | 35 | 360 | 4.8 | 9.7 | 0.00 | 0.00 | 0.00 | 44 | 1014.1 |
| 20260831234521 | 35 | 360 | 3.2 | 8.0 | 0.00 | 0.00 | 0.00 | 45 | 1014.2 |
| 20260831234421 | 35 | 360 | 3.2 | 8.0 | 0.00 | 0.00 | 0.00 | 45 | 1014.2 |
| 20260831234322 | 35 | 360 | 3.2 | 8.0 | 0.00 | 0.00 | 0.00 | 45 | 1014.1 |
| 20260831234242 | 35 | 151 | 4.8 | 8.0 | 0.00 | 0.00 | 0.00 | 45 | 1014.2 |
| 20260831234122 | 35 | 360 | 4.8 | 8.0 | 0.00 | 0.00 | 0.00 | 45 | 1014.1 |
| 20260831234042 | 35 | 360 | 4.8 | 8.0 | 0.00 | 0.00 | 0.00 | 45 | 1014.2 |
| 20260831233923 | 35 | 360 | 4.8 | 8.0 | 0.00 | 0.00 | 0.00 | 45 | 1014.1 |
| 20260831233823 | 35 | 360 | 4.8 | 8.0 | 0.00 | 0.00 | 0.00 | 45 | 1014.1 |
| 20260831233728 | 35 | 360 | 4.8 | 14.5 | 0.00 | 0.00 | 0.00 | 45 | 1014.1 |
| 20260831233629 | 35 | 360 | 3.2 | 14.5 | 0.00 | 0.00 | 0.00 | 45 | 1014.1 |
| 20260831233528 | 35 | 360 | 3.2 | 16.1 | 0.00 | 0.00 | 0.00 | 45 | 1014.1 |
| 20260831233429 | 35 | 158 | 3.2 | 16.1 | 0.00 | 0.00 | 0.00 | 45 | 1014.2 |
| 20260831233329 | 35 | 360 | 4.8 | 16.1 | 0.00 | 0.00 | 0.00 | 45 | 1014.1 |
| 20260831233230 | 35 | 360 | 6.4 | 16.1 | 0.00 | 0.00 | 0.00 | 44 | 1014.2 |
| 20260831233130 | 35 | 360 | 6.4 | 19.3 | 0.00 | 0.00 | 0.00 | 44 | 1014.2 |
| 20260831233035 | 35 | 360 | 6.4 | 19.3 | 0.00 | 0.00 | 0.00 | 44 | 1014.1 |
| 20260831232935 | 35 | 360 | 8.0 | 19.3 | 0.00 | 0.00 | 0.00 | 44 | 1014.2 |
| 20260831232817 | 35 | 360 | 6.4 | 19.3 | 0.00 | 0.00 | 0.00 | 45 | 1014.3 |
| 20260831232716 | 34 | 360 | 8.0 | 19.3 | 0.00 | 0.00 | 0.00 | 44 | 1014.2 |
| 20260831232617 | 34 | 360 | 8.0 | 19.3 | 0.00 | 0.00 | 0.00 | 45 | 1014.3 |
| 20260831232517 | 34 | 360 | 9.7 | 19.3 | 0.00 | 0.00 | 0.00 | 45 | 1014.3 |
| 20260831232422 | 34 | 360 | 9.7 | 19.3 | 0.00 | 0.00 | 0.00 | 45 | 1014.2 |
| 20260831232322 | 34 | 360 | 9.7 | 19.3 | 0.00 | 0.00 | 0.00 | 45 | 1014.2 |
| 20260831232223 | 34 | 360 | 9.7 | 19.3 | 0.00 | 0.00 | 0.00 | 46 | 1014.2 |
| 20260831232143 | 34 | 360 | 8.0 | 16.1 | 0.00 | 0.00 | 0.00 | 46 | 1014.2 |
| 20260831232023 | 34 | 360 | 8.0 | 16.1 | 0.00 | 0.00 | 0.00 | 46 | 1014.2 |
| 20260831231924 | 34 | 360 | 6.4 | 16.1 | 0.00 | 0.00 | 0.00 | 46 | 1014.2 |
| 20260831231825 | 34 | 360 | 6.4 | 16.1 | 0.00 | 0.00 | 0.00 | 46 | 1014.2 |
| 20260831231730 | 34 | 360 | 6.4 | 16.1 | 0.00 | 0.00 | 0.00 | 46 | 1014.3 |
| 20260831231629 | 34 | 360 | 8.0 | 16.1 | 0.00 | 0.00 | 0.00 | 46 | 1014.3 |
| 20260831231550 | 34 | 360 | 8.0 | 16.1 | 0.00 | 0.00 | 0.00 | 46 | 1014.2 |
| 20260831231430 | 34 | 360 | 9.7 | 16.1 | 0.00 | 0.00 | 0.00 | 45 | 1014.3 |
| 20260831231351 | 34 | 360 | 8.0 | 16.1 | 0.00 | 0.00 | 0.00 | 45 | 1014.3 |
| 20260831231231 | 34 | 360 | 8.0 | 16.1 | 0.00 | 0.00 | 0.00 | 46 | 1014.4 |
| 20260831231131 | 34 | 360 | 9.7 | 16.1 | 0.00 | 0.00 | 0.00 | 46 | 1014.3 |
| 20260831231035 | 34 | 360 | 8.0 | 16.1 | 0.00 | 0.00 | 0.00 | 46 | 1014.3 |
| 20260831230956 | 34 | 360 | 8.0 | 16.1 | 0.00 | 0.00 | 0.00 | 46 | 1014.4 |
| 20260831230856 | 34 | 360 | 6.4 | 16.1 | 0.00 | 0.00 | 0.00 | 45 | 1014.4 |
| 20260831230735 | 34 | 360 | 8.0 | 16.1 | 0.00 | 0.00 | 0.00 | 45 | 1014.3 |
| 20260831230636 | 34 | 360 | 9.7 | 17.7 | 0.00 | 0.00 | 0.00 | 45 | 1014.4 |
| 20260831230516 | 34 | 360 | 9.7 | 17.7 | 0.00 | 0.00 | 0.00 | 45 | 1014.4 |
| 20260831230417 | 35 | 360 | 9.7 | 17.7 | 0.00 | 0.00 | 0.00 | 45 | 1014.4 |
| 20260831230321 | 35 | 360 | 9.7 | 17.7 | 0.00 | 0.00 | 0.00 | 45 | 1014.4 |
| 20260831230221 | 35 | 360 | 9.7 | 17.7 | 0.00 | 0.00 | 0.00 | 45 | 1014.4 |
| 20260831230122 | 35 | 360 | 11.3 | 17.7 | 0.00 | 0.00 | 0.00 | 45 | 1014.3 |
| 20260831230022 | 35 | 360 | 12.9 | 17.7 | 0.00 | 0.00 | 0.00 | 45 | 1014.3 |
| 20260831225923 | 35 | 78 | 11.3 | 19.3 | 0.00 | 0.00 | 0.00 | 44 | 1014.3 |
| 20260831225825 | 35 | 360 | 9.7 | 19.3 | 0.00 | 0.00 | 0.00 | 44 | 1014.3 |
| 20260831225725 | 35 | 360 | 9.7 | 19.3 | 0.00 | 0.00 | 0.00 | 45 | 1014.3 |
| 20260831225629 | 35 | 360 | 11.3 | 19.3 | 0.00 | 0.00 | 0.00 | 45 | 1014.4 |
| 20260831225549 | 35 | 144 | 12.9 | 19.3 | 0.00 | 0.00 | 0.00 | 45 | 1014.4 |
| 20260831225429 | 35 | 360 | 12.9 | 19.3 | 0.00 | 0.00 | 0.00 | 44 | 1014.3 |
| 20260831225329 | 35 | 360 | 11.3 | 19.3 | 0.00 | 0.00 | 0.00 | 44 | 1014.3 |
| 20260831225229 | 35 | 360 | 9.7 | 19.3 | 0.00 | 0.00 | 0.00 | 44 | 1014.3 |
| 20260831225130 | 35 | 360 | 9.7 | 19.3 | 0.00 | 0.00 | 0.00 | 45 | 1014.3 |
| 20260831225030 | 35 | 360 | 11.3 | 19.3 | 0.00 | 0.00 | 0.00 | 44 | 1014.3 |
| 20260831224935 | 35 | 360 | 11.3 | 19.3 | 0.00 | 0.00 | 0.00 | 44 | 1014.4 |
| 20260831224836 | 35 | 360 | 11.3 | 19.3 | 0.00 | 0.00 | 0.00 | 44 | 1014.2 |
| 20260831224735 | 35 | 360 | 9.7 | 19.3 | 0.00 | 0.00 | 0.00 | 44 | 1014.3 |
| 20260831224635 | 35 | 360 | 9.7 | 17.7 | 0.00 | 0.00 | 0.00 | 44 | 1014.3 |
| 20260831224516 | 35 | 360 | 9.7 | 17.7 | 0.00 | 0.00 | 0.00 | 44 | 1014.3 |
| 20260831224416 | 35 | 360 | 9.7 | 20.9 | 0.00 | 0.00 | 0.00 | 46 | 1014.3 |
| 20260831224321 | 35 | 360 | 8.0 | 20.9 | 0.00 | 0.00 | 0.00 | 44 | 1014.3 |
| 20260831224220 | 35 | 360 | 8.0 | 20.9 | 0.00 | 0.00 | 0.00 | 44 | 1014.3 |
| 20260831224121 | 35 | 78 | 8.0 | 20.9 | 0.00 | 0.00 | 0.00 | 44 | 1014.3 |
| 20260831224022 | 35 | 360 | 8.0 | 20.9 | 0.00 | 0.00 | 0.00 | 44 | 1014.3 |
| 20260831223921 | 35 | 360 | 9.7 | 20.9 | 0.00 | 0.00 | 0.00 | 45 | 1014.3 |
| 20260831223821 | 35 | 360 | 9.7 | 20.9 | 0.00 | 0.00 | 0.00 | 45 | 1014.4 |
| 20260831223721 | 35 | 360 | 12.9 | 22.5 | 0.00 | 0.00 | 0.00 | 44 | 1014.4 |
| 20260831223627 | 35 | 108 | 14.5 | 22.5 | 0.00 | 0.00 | 0.00 | 43 | 1014.4 |
| 20260831223526 | 35 | 360 | 14.5 | 22.5 | 0.00 | 0.00 | 0.00 | 43 | 1014.4 |
| 20260831223427 | 36 | 360 | 11.3 | 24.1 | 0.00 | 0.00 | 0.00 | 43 | 1014.4 |
| 20260831223328 | 35 | 360 | 9.7 | 24.1 | 0.00 | 0.00 | 0.00 | 43 | 1014.5 |
| 20260831223229 | 36 | 360 | 11.3 | 24.1 | 0.00 | 0.00 | 0.00 | 44 | 1014.4 |
| 20260831223129 | 36 | 360 | 9.7 | 24.1 | 0.00 | 0.00 | 0.00 | 44 | 1014.4 |
| 20260831223030 | 36 | 360 | 9.7 | 24.1 | 0.00 | 0.00 | 0.00 | 43 | 1014.4 |
| 20260831222934 | 36 | 113 | 11.3 | 24.1 | 0.00 | 0.00 | 0.00 | 43 | 1014.5 |
| 20260831222835 | 36 | 360 | 11.3 | 24.1 | 0.00 | 0.00 | 0.00 | 43 | 1014.4 |
| 20260831222735 | 36 | 360 | 11.3 | 24.1 | 0.00 | 0.00 | 0.00 | 43 | 1014.5 |
| 20260831222635 | 36 | 150 | 12.9 | 22.5 | 0.00 | 0.00 | 0.00 | 42 | 1014.6 |
| 20260831222516 | 36 | 360 | 9.7 | 19.3 | 0.00 | 0.00 | 0.00 | 42 | 1014.5 |
| 20260831222417 | 36 | 360 | 11.3 | 19.3 | 0.00 | 0.00 | 0.00 | 42 | 1014.5 |
| 20260831222321 | 36 | 360 | 11.3 | 19.3 | 0.00 | 0.00 | 0.00 | 42 | 1014.5 |
| 20260831222223 | 36 | 360 | 11.3 | 19.3 | 0.00 | 0.00 | 0.00 | 41 | 1014.5 |
| 20260831222142 | 36 | 360 | 9.7 | 19.3 | 0.00 | 0.00 | 0.00 | 41 | 1014.5 |
| 20260831222022 | 36 | 159 | 9.7 | 19.3 | 0.00 | 0.00 | 0.00 | 41 | 1014.6 |
| 20260831221922 | 36 | 116 | 9.7 | 19.3 | 0.00 | 0.00 | 0.00 | 41 | 1014.6 |
| 20260831221822 | 36 | 360 | 11.3 | 19.3 | 0.00 | 0.00 | 0.00 | 40 | 1014.5 |
| 20260831221722 | 36 | 360 | 11.3 | 19.3 | 0.00 | 0.00 | 0.00 | 41 | 1014.5 |
| 20260831221643 | 36 | 360 | 9.7 | 19.3 | 0.00 | 0.00 | 0.00 | 41 | 1014.5 |
| 20260831221527 | 36 | 145 | 9.7 | 19.3 | 0.00 | 0.00 | 0.00 | 41 | 1014.5 |
| 20260831221426 | 36 | 360 | 8.0 | 19.3 | 0.00 | 0.00 | 0.00 | 41 | 1014.4 |
| 20260831221327 | 36 | 360 | 8.0 | 19.3 | 0.00 | 0.00 | 0.00 | 41 | 1014.5 |
| 20260831221227 | 36 | 360 | 8.0 | 19.3 | 0.00 | 0.00 | 0.00 | 41 | 1014.5 |
| 20260831221148 | 36 | 360 | 8.0 | 19.3 | 0.00 | 0.00 | 0.00 | 41 | 1014.5 |
| 20260831221027 | 36 | 360 | 8.0 | 19.3 | 0.00 | 0.00 | 0.00 | 42 | 1014.4 |
| 20260831220928 | 36 | 170 | 4.8 | 19.3 | 0.00 | 0.00 | 0.00 | 41 | 1014.4 |
| 20260831220830 | 36 | 360 | 4.8 | 20.9 | 0.00 | 0.00 | 0.00 | 41 | 1014.4 |
| 20260831220731 | 36 | 90 | 4.8 | 20.9 | 0.00 | 0.00 | 0.00 | 41 | 1014.5 |
| 20260831220651 | 36 | 360 | 4.8 | 20.9 | 0.00 | 0.00 | 0.00 | 43 | 1014.5 |
| 20260831220530 | 36 | 360 | 8.0 | 20.9 | 0.00 | 0.00 | 0.00 | 43 | 1014.5 |
| 20260831220430 | 36 | 360 | 11.3 | 20.9 | 0.00 | 0.00 | 0.00 | 42 | 1014.4 |
| 20260831220330 | 36 | 360 | 11.3 | 20.9 | 0.00 | 0.00 | 0.00 | 42 | 1014.5 |
| 20260831220250 | 36 | 142 | 11.3 | 20.9 | 0.00 | 0.00 | 0.00 | 42 | 1014.4 |
| 20260831220130 | 36 | 360 | 9.7 | 20.9 | 0.00 | 0.00 | 0.00 | 43 | 1014.5 |
| 20260831220034 | 36 | 360 | 9.7 | 20.9 | 0.00 | 0.00 | 0.00 | 43 | 1014.5 |
| 20260831215935 | 36 | 360 | 6.4 | 16.1 | 0.00 | 0.00 | 0.00 | 43 | 1014.5 |
| 20260831215816 | 36 | 360 | 8.0 | 16.1 | 0.00 | 0.00 | 0.00 | 42 | 1014.5 |
| 20260831215717 | 36 | 360 | 8.0 | 16.1 | 0.00 | 0.00 | 0.00 | 41 | 1014.4 |
| 20260831215617 | 36 | 360 | 3.2 | 16.1 | 0.00 | 0.00 | 0.00 | 41 | 1014.5 |
| 20260831215518 | 36 | 360 | 3.2 | 16.1 | 0.00 | 0.00 | 0.00 | 41 | 1014.5 |
| 20260831215422 | 36 | 360 | 3.2 | 16.1 | 0.00 | 0.00 | 0.00 | 42 | 1014.5 |
| 20260831215322 | 36 | 360 | 3.2 | 16.1 | 0.00 | 0.00 | 0.00 | 42 | 1014.5 |
| 20260831215223 | 36 | 360 | 4.8 | 20.9 | 0.00 | 0.00 | 0.00 | 43 | 1014.5 |
| 20260831215123 | 36 | 360 | 6.4 | 20.9 | 0.00 | 0.00 | 0.00 | 43 | 1014.6 |
| 20260831215023 | 36 | 360 | 6.4 | 20.9 | 0.00 | 0.00 | 0.00 | 43 | 1014.6 |
| 20260831214923 | 36 | 360 | 6.4 | 20.9 | 0.00 | 0.00 | 0.00 | 43 | 1014.7 |
| 20260831214824 | 35 | 360 | 6.4 | 20.9 | 0.00 | 0.00 | 0.00 | 43 | 1014.7 |
| 20260831214728 | 35 | 360 | 8.0 | 20.9 | 0.00 | 0.00 | 0.00 | 44 | 1014.7 |
| 20260831214629 | 35 | 360 | 11.3 | 20.9 | 0.00 | 0.00 | 0.00 | 44 | 1014.8 |
| 20260831214530 | 35 | 360 | 9.7 | 20.9 | 0.00 | 0.00 | 0.00 | 43 | 1014.9 |
| 20260831214431 | 35 | 360 | 8.0 | 20.9 | 0.00 | 0.00 | 0.00 | 44 | 1014.8 |
| 20260831214330 | 35 | 360 | 4.8 | 19.3 | 0.00 | 0.00 | 0.00 | 44 | 1014.8 |
| 20260831214231 | 35 | 360 | 4.8 | 19.3 | 0.00 | 0.00 | 0.00 | 44 | 1014.9 |
| 20260831214130 | 35 | 360 | 3.2 | 19.3 | 0.00 | 0.00 | 0.00 | 44 | 1014.8 |
| 20260831214035 | 35 | 360 | 4.8 | 19.3 | 0.00 | 0.00 | 0.00 | 44 | 1014.9 |
| 20260831213916 | 35 | 360 | 8.0 | 19.3 | 0.00 | 0.00 | 0.00 | 44 | 1014.9 |
| 20260831213816 | 35 | 360 | 11.3 | 20.9 | 0.00 | 0.00 | 0.00 | 44 | 1014.9 |
| 20260831213716 | 35 | 360 | 11.3 | 20.9 | 0.00 | 0.00 | 0.00 | 45 | 1014.9 |
| 20260831213617 | 35 | 171 | 8.0 | 20.9 | 0.00 | 0.00 | 0.00 | 46 | 1015.0 |
| 20260831213518 | 35 | 360 | 8.0 | 20.9 | 0.00 | 0.00 | 0.00 | 44 | 1014.9 |
| 20260831213440 | 35 | 360 | 8.0 | 20.9 | 0.00 | 0.00 | 0.00 | 44 | 1015.0 |
| 20260831213324 | 35 | 360 | 9.7 | 20.9 | 0.00 | 0.00 | 0.00 | 44 | 1015.0 |
| 20260831213223 | 35 | 360 | 11.3 | 20.9 | 0.00 | 0.00 | 0.00 | 43 | 1015.0 |
| 20260831213124 | 35 | 360 | 14.5 | 22.5 | 0.00 | 0.00 | 0.00 | 44 | 1015.0 |
| 20260831213025 | 35 | 360 | 12.9 | 22.5 | 0.00 | 0.00 | 0.00 | 44 | 1014.9 |
| 20260831212925 | 35 | 360 | 11.3 | 22.5 | 0.00 | 0.00 | 0.00 | 43 | 1015.0 |
| 20260831212824 | 35 | 360 | 11.3 | 22.5 | 0.00 | 0.00 | 0.00 | 43 | 1015.0 |
| 20260831212728 | 35 | 360 | 9.7 | 22.5 | 0.00 | 0.00 | 0.00 | 43 | 1015.1 |
| 20260831212627 | 35 | 360 | 11.3 | 22.5 | 0.00 | 0.00 | 0.00 | 43 | 1015.1 |
| 20260831212528 | 35 | 360 | 12.9 | 22.5 | 0.00 | 0.00 | 0.00 | 43 | 1015.1 |
| 20260831212428 | 35 | 360 | 11.3 | 22.5 | 0.00 | 0.00 | 0.00 | 44 | 1015.1 |
| 20260831212328 | 35 | 360 | 9.7 | 22.5 | 0.00 | 0.00 | 0.00 | 44 | 1015.1 |
| 20260831212229 | 35 | 360 | 6.4 | 24.1 | 0.00 | 0.00 | 0.00 | 44 | 1015.0 |
| 20260831212129 | 35 | 360 | 6.4 | 24.1 | 0.00 | 0.00 | 0.00 | 44 | 1015.1 |
| 20260831212054 | 35 | 360 | 6.4 | 24.1 | 0.00 | 0.00 | 0.00 | 44 | 1015.1 |
| 20260831211933 | 35 | 360 | 4.8 | 24.1 | 0.00 | 0.00 | 0.00 | 44 | 1015.1 |
| 20260831211854 | 35 | 360 | 4.8 | 24.1 | 0.00 | 0.00 | 0.00 | 44 | 1015.2 |
| 20260831211733 | 35 | 360 | 9.7 | 24.1 | 0.00 | 0.00 | 0.00 | 44 | 1015.1 |
| 20260831211653 | 35 | 360 | 14.5 | 24.1 | 0.00 | 0.00 | 0.00 | 44 | 1015.2 |
| 20260831211533 | 35 | 360 | 16.1 | 24.1 | 0.00 | 0.00 | 0.00 | 44 | 1015.2 |
| 20260831211453 | 35 | 360 | 14.5 | 24.1 | 0.00 | 0.00 | 0.00 | 45 | 1015.2 |
| 20260831211333 | 35 | 360 | 9.7 | 22.5 | 0.00 | 0.00 | 0.00 | 44 | 1015.2 |
| 20260831211217 | 35 | 360 | 6.4 | 27.4 | 0.00 | 0.00 | 0.00 | 44 | 1015.2 |
| 20260831211118 | 35 | 360 | 6.4 | 27.4 | 0.00 | 0.00 | 0.00 | 44 | 1015.2 |
| 20260831211018 | 35 | 360 | 8.0 | 27.4 | 0.00 | 0.00 | 0.00 | 43 | 1015.2 |
| 20260831210919 | 35 | 360 | 12.9 | 27.4 | 0.00 | 0.00 | 0.00 | 44 | 1015.3 |
| 20260831210818 | 35 | 360 | 16.1 | 27.4 | 0.00 | 0.00 | 0.00 | 43 | 1015.3 |
| 20260831210716 | 35 | 360 | 14.5 | 27.4 | 0.00 | 0.00 | 0.00 | 43 | 1015.3 |
| 20260831210638 | 35 | 360 | 16.1 | 27.4 | 0.00 | 0.00 | 0.00 | 43 | 1015.4 |
| 20260831210521 | 35 | 360 | 14.5 | 27.4 | 0.00 | 0.00 | 0.00 | 43 | 1015.4 |
| 20260831210422 | 35 | 360 | 11.3 | 25.7 | 0.00 | 0.00 | 0.00 | 44 | 1015.4 |
| 20260831210323 | 35 | 360 | 6.4 | 12.9 | 0.00 | 0.00 | 0.00 | 45 | 1015.4 |
| 20260831210223 | 35 | 360 | 6.4 | 12.9 | 0.00 | 0.00 | 0.00 | 44 | 1015.4 |
| 20260831210143 | 35 | 68 | 8.0 | 14.5 | 0.00 | 0.00 | 0.00 | 44 | 1015.2 |
| 20260831210023 | 35 | 360 | 8.0 | 19.3 | 0.00 | 0.00 | 0.00 | 45 | 1015.3 |
| 20260831205923 | 35 | 360 | 6.4 | 20.9 | 0.00 | 0.00 | 0.00 | 46 | 1015.3 |
| 20260831205845 | 35 | 360 | 3.2 | 20.9 | 0.00 | 0.00 | 0.00 | 46 | 1015.4 |
| 20260831205728 | 35 | 360 | 3.2 | 20.9 | 0.00 | 0.00 | 0.00 | 46 | 1015.4 |
| 20260831205649 | 34 | 360 | 6.4 | 20.9 | 0.00 | 0.00 | 0.00 | 46 | 1015.5 |
| 20260831205528 | 34 | 360 | 9.7 | 24.1 | 0.00 | 0.00 | 0.00 | 46 | 1015.4 |
| 20260831205426 | 34 | 360 | 12.9 | 24.1 | 0.00 | 0.00 | 0.00 | 46 | 1015.5 |
| 20260831205325 | 34 | 360 | 12.9 | 24.1 | 0.00 | 0.00 | 0.00 | 46 | 1015.5 |
| 20260831205226 | 35 | 360 | 12.9 | 24.1 | 0.00 | 0.00 | 0.00 | 46 | 1015.5 |
| 20260831205125 | 35 | 360 | 12.9 | 24.1 | 0.00 | 0.00 | 0.00 | 45 | 1015.5 |
| 20260831205025 | 35 | 360 | 12.9 | 24.1 | 0.00 | 0.00 | 0.00 | 46 | 1015.6 |
| 20260831204930 | 35 | 360 | 14.5 | 24.1 | 0.00 | 0.00 | 0.00 | 45 | 1015.6 |
| 20260831204830 | 35 | 360 | 17.7 | 24.1 | 0.00 | 0.00 | 0.00 | 45 | 1015.6 |
| 20260831204731 | 35 | 360 | 17.7 | 24.1 | 0.00 | 0.00 | 0.00 | 45 | 1015.6 |
| 20260831204630 | 35 | 360 | 14.5 | 22.5 | 0.00 | 0.00 | 0.00 | 45 | 1015.7 |
| 20260831204550 | 35 | 360 | 12.9 | 17.7 | 0.00 | 0.00 | 0.00 | 45 | 1015.6 |
| 20260831204449 | 35 | 360 | 9.7 | 17.7 | 0.00 | 0.00 | 0.00 | 46 | 1015.6 |
| 20260831204329 | 35 | 133 | 9.7 | 16.1 | 0.00 | 0.00 | 0.00 | 46 | 1015.8 |
| 20260831204230 | 35 | 360 | 11.3 | 16.1 | 0.00 | 0.00 | 0.00 | 46 | 1015.6 |
| 20260831204132 | 35 | 360 | 11.3 | 16.1 | 0.00 | 0.00 | 0.00 | 45 | 1015.7 |
| 20260831204032 | 35 | 360 | 9.7 | 17.7 | 0.00 | 0.00 | 0.00 | 45 | 1015.7 |
| 20260831203933 | 35 | 360 | 9.7 | 17.7 | 0.00 | 0.00 | 0.00 | 45 | 1015.7 |
| 20260831203832 | 35 | 360 | 8.0 | 17.7 | 0.00 | 0.00 | 0.00 | 45 | 1015.8 |
| 20260831203732 | 35 | 360 | 8.0 | 17.7 | 0.00 | 0.00 | 0.00 | 46 | 1015.8 |
| 20260831203653 | 35 | 360 | 3.2 | 20.9 | 0.00 | 0.00 | 0.00 | 45 | 1015.8 |
| 20260831203532 | 35 | 360 | 3.2 | 20.9 | 0.00 | 0.00 | 0.00 | 47 | 1015.8 |
| 20260831203431 | 35 | 360 | 4.8 | 20.9 | 0.00 | 0.00 | 0.00 | 46 | 1015.8 |
| 20260831203316 | 35 | 360 | 9.7 | 24.1 | 0.00 | 0.00 | 0.00 | 45 | 1015.9 |
| 20260831203216 | 35 | 360 | 11.3 | 24.1 | 0.00 | 0.00 | 0.00 | 45 | 1015.9 |
| 20260831203117 | 35 | 360 | 9.7 | 24.1 | 0.00 | 0.00 | 0.00 | 44 | 1015.9 |
| 20260831203017 | 35 | 360 | 11.3 | 24.1 | 0.00 | 0.00 | 0.00 | 45 | 1015.9 |
| 20260831202917 | 35 | 144 | 14.5 | 24.1 | 0.00 | 0.00 | 0.00 | 45 | 1015.9 |
| 20260831202818 | 35 | 360 | 16.1 | 24.1 | 0.00 | 0.00 | 0.00 | 45 | 1016.0 |
| 20260831202722 | 35 | 360 | 14.5 | 24.1 | 0.00 | 0.00 | 0.00 | 45 | 1016.1 |
| 20260831202623 | 35 | 360 | 14.5 | 24.1 | 0.00 | 0.00 | 0.00 | 45 | 1016.1 |
| 20260831202524 | 35 | 360 | 11.3 | 24.1 | 0.00 | 0.00 | 0.00 | 46 | 1016.1 |
| 20260831202425 | 35 | 360 | 8.0 | 22.5 | 0.00 | 0.00 | 0.00 | 46 | 1016.1 |
| 20260831202324 | 35 | 360 | 8.0 | 22.5 | 0.00 | 0.00 | 0.00 | 47 | 1016.1 |
| 20260831202225 | 35 | 360 | 9.7 | 22.5 | 0.00 | 0.00 | 0.00 | 47 | 1016.1 |
| 20260831202145 | 35 | 126 | 12.9 | 22.5 | 0.00 | 0.00 | 0.00 | 46 | 1016.1 |
| 20260831202029 | 35 | 360 | 11.3 | 22.5 | 0.00 | 0.00 | 0.00 | 46 | 1016.2 |
| 20260831201929 | 35 | 360 | 9.7 | 22.5 | 0.00 | 0.00 | 0.00 | 46 | 1016.3 |
| 20260831201830 | 35 | 360 | 4.8 | 17.7 | 0.00 | 0.00 | 0.00 | 45 | 1016.2 |
| 20260831201750 | 35 | 360 | 4.8 | 16.1 | 0.00 | 0.00 | 0.00 | 45 | 1016.2 |
| 20260831201629 | 35 | 360 | 3.2 | 19.3 | 0.00 | 0.00 | 0.00 | 46 | 1016.2 |
| 20260831201531 | 35 | 360 | 3.2 | 19.3 | 0.00 | 0.00 | 0.00 | 47 | 1016.2 |
| 20260831201430 | 34 | 360 | 4.8 | 19.3 | 0.00 | 0.00 | 0.00 | 46 | 1016.2 |
| 20260831201335 | 34 | 360 | 6.4 | 20.9 | 0.00 | 0.00 | 0.00 | 46 | 1016.3 |
| 20260831201235 | 34 | 360 | 8.0 | 20.9 | 0.00 | 0.00 | 0.00 | 47 | 1016.5 |
| 20260831201116 | 34 | 360 | 9.7 | 20.9 | 0.00 | 0.00 | 0.00 | 47 | 1016.4 |
| 20260831201035 | 34 | 360 | 11.3 | 20.9 | 0.00 | 0.00 | 0.00 | 47 | 1016.4 |
| 20260831200916 | 34 | 360 | 11.3 | 20.9 | 0.00 | 0.00 | 0.00 | 47 | 1016.5 |
| 20260831200817 | 35 | 360 | 12.9 | 20.9 | 0.00 | 0.00 | 0.00 | 47 | 1016.5 |
| 20260831200722 | 35 | 360 | 11.3 | 20.9 | 0.00 | 0.00 | 0.00 | 47 | 1016.5 |
| 20260831200622 | 35 | 360 | 8.0 | 22.5 | 0.00 | 0.00 | 0.00 | 46 | 1016.5 |
| 20260831200521 | 35 | 360 | 3.2 | 22.5 | 0.00 | 0.00 | 0.00 | 47 | 1016.5 |
| 20260831200422 | 35 | 360 | 1.6 | 22.5 | 0.00 | 0.00 | 0.00 | 47 | 1016.5 |
| 20260831200322 | 35 | 360 | 4.8 | 22.5 | 0.00 | 0.00 | 0.00 | 47 | 1016.5 |
| 20260831200223 | 35 | 360 | 6.4 | 22.5 | 0.00 | 0.00 | 0.00 | 49 | 1016.5 |
| 20260831200123 | 35 | 171 | 8.0 | 22.5 | 0.00 | 0.00 | 0.00 | 49 | 1016.7 |
| 20260831200023 | 35 | 360 | 9.7 | 22.5 | 0.00 | 0.00 | 0.00 | 48 | 1016.6 |
| 20260831195927 | 35 | 360 | 12.9 | 22.5 | 0.00 | 0.00 | 0.00 | 49 | 1016.6 |
| 20260831195828 | 35 | 360 | 14.5 | 22.5 | 0.00 | 0.00 | 0.00 | 48 | 1016.5 |
| 20260831195728 | 35 | 360 | 12.9 | 22.5 | 0.00 | 0.00 | 0.00 | 48 | 1016.6 |
| 20260831195628 | 35 | 360 | 12.9 | 20.9 | 0.00 | 0.00 | 0.00 | 48 | 1016.6 |
| 20260831195529 | 35 | 360 | 12.9 | 20.9 | 0.00 | 0.00 | 0.00 | 48 | 1016.6 |
| 20260831195429 | 35 | 360 | 8.0 | 24.1 | 0.00 | 0.00 | 0.00 | 48 | 1016.6 |
| 20260831195334 | 35 | 360 | 6.4 | 24.1 | 0.00 | 0.00 | 0.00 | 49 | 1016.6 |
| 20260831195234 | 35 | 360 | 6.4 | 24.1 | 0.00 | 0.00 | 0.00 | 49 | 1016.6 |
| 20260831195135 | 35 | 360 | 8.0 | 24.1 | 0.00 | 0.00 | 0.00 | 48 | 1016.6 |
| 20260831195035 | 35 | 360 | 8.0 | 24.1 | 0.00 | 0.00 | 0.00 | 48 | 1016.7 |
| 20260831194936 | 35 | 360 | 9.7 | 24.1 | 0.00 | 0.00 | 0.00 | 48 | 1016.7 |
| 20260831194816 | 35 | 360 | 12.9 | 24.1 | 0.00 | 0.00 | 0.00 | 48 | 1016.8 |
| 20260831194721 | 35 | 360 | 14.5 | 24.1 | 0.00 | 0.00 | 0.00 | 48 | 1016.8 |
| 20260831194623 | 35 | 360 | 14.5 | 24.1 | 0.00 | 0.00 | 0.00 | 47 | 1016.8 |
| 20260831194543 | 35 | 360 | 12.9 | 24.1 | 0.00 | 0.00 | 0.00 | 48 | 1016.8 |
| 20260831194423 | 35 | 360 | 9.7 | 30.6 | 0.00 | 0.00 | 0.00 | 48 | 1016.7 |
| 20260831194343 | 35 | 360 | 9.7 | 30.6 | 0.00 | 0.00 | 0.00 | 48 | 1016.8 |
| 20260831194224 | 34 | 360 | 8.0 | 30.6 | 0.00 | 0.00 | 0.00 | 48 | 1016.8 |
| 20260831194123 | 34 | 360 | 9.7 | 30.6 | 0.00 | 0.00 | 0.00 | 50 | 1016.9 |
| 20260831194044 | 34 | 95 | 9.7 | 30.6 | 0.00 | 0.00 | 0.00 | 50 | 1016.8 |
| 20260831193944 | 34 | 360 | 14.5 | 30.6 | 0.00 | 0.00 | 0.00 | 49 | 1016.9 |
| 20260831193827 | 34 | 360 | 16.1 | 30.6 | 0.00 | 0.00 | 0.00 | 49 | 1016.8 |
| 20260831193728 | 34 | 360 | 16.1 | 30.6 | 0.00 | 0.00 | 0.00 | 48 | 1016.8 |
| 20260831193629 | 34 | 360 | 14.5 | 30.6 | 0.00 | 0.00 | 0.00 | 49 | 1016.9 |
| 20260831193529 | 34 | 360 | 12.9 | 30.6 | 0.00 | 0.00 | 0.00 | 48 | 1017.0 |
| 20260831193431 | 34 | 360 | 12.9 | 24.1 | 0.00 | 0.00 | 0.00 | 47 | 1016.9 |
| 20260831193331 | 35 | 360 | 12.9 | 24.1 | 0.00 | 0.00 | 0.00 | 47 | 1016.9 |
| 20260831193217 | 35 | 360 | 11.3 | 24.1 | 0.00 | 0.00 | 0.00 | 47 | 1017.0 |
| 20260831193116 | 35 | 360 | 6.4 | 22.5 | 0.00 | 0.00 | 0.00 | 48 | 1016.9 |
| 20260831193017 | 35 | 360 | 8.0 | 24.1 | 0.00 | 0.00 | 0.00 | 48 | 1016.9 |
| 20260831192938 | 35 | 360 | 8.0 | 24.1 | 0.00 | 0.00 | 0.00 | 49 | 1017.0 |
| 20260831192819 | 35 | 360 | 8.0 | 24.1 | 0.00 | 0.00 | 0.00 | 49 | 1016.9 |
| 20260831192717 | 35 | 360 | 8.0 | 24.1 | 0.00 | 0.00 | 0.00 | 49 | 1017.0 |
| 20260831192618 | 35 | 179 | 6.4 | 24.1 | 0.00 | 0.00 | 0.00 | 49 | 1017.0 |
| 20260831192523 | 35 | 360 | 8.0 | 24.1 | 0.00 | 0.00 | 0.00 | 49 | 1016.9 |
| 20260831192324 | 34 | 360 | 14.5 | 24.1 | 0.00 | 0.00 | 0.00 | 49 | 1017.0 |
| 20260831192224 | 34 | 360 | 14.5 | 24.1 | 0.00 | 0.00 | 0.00 | 49 | 1017.0 |
| 20260831192125 | 34 | 360 | 14.5 | 33.8 | 0.00 | 0.00 | 0.00 | 50 | 1017.1 |
| 20260831192046 | 34 | 360 | 14.5 | 33.8 | 0.00 | 0.00 | 0.00 | 49 | 1017.1 |
| 20260831191925 | 34 | 360 | 12.9 | 33.8 | 0.00 | 0.00 | 0.00 | 50 | 1017.0 |
| 20260831191829 | 34 | 360 | 12.9 | 33.8 | 0.00 | 0.00 | 0.00 | 50 | 1017.1 |
| 20260831191728 | 34 | 360 | 12.9 | 33.8 | 0.00 | 0.00 | 0.00 | 51 | 1017.1 |
| 20260831191629 | 33 | 360 | 11.3 | 33.8 | 0.00 | 0.00 | 0.00 | 51 | 1017.1 |
| 20260831191530 | 33 | 360 | 16.1 | 33.8 | 0.00 | 0.00 | 0.00 | 50 | 1017.1 |
| 20260831191430 | 34 | 360 | 16.1 | 33.8 | 0.00 | 0.00 | 0.00 | 49 | 1017.1 |
| 20260831191351 | 34 | 360 | 17.7 | 33.8 | 0.00 | 0.00 | 0.00 | 50 | 1017.1 |
| 20260831191230 | 34 | 360 | 12.9 | 32.2 | 0.00 | 0.00 | 0.00 | 50 | 1017.1 |
| 20260831191136 | 34 | 360 | 11.3 | 32.2 | 0.00 | 0.00 | 0.00 | 50 | 1017.1 |
| 20260831191056 | 34 | 360 | 8.0 | 32.2 | 0.00 | 0.00 | 0.00 | 51 | 1017.1 |
| 20260831190934 | 34 | 360 | 6.4 | 32.2 | 0.00 | 0.00 | 0.00 | 51 | 1017.2 |
| 20260831190835 | 34 | 360 | 4.8 | 32.2 | 0.00 | 0.00 | 0.00 | 52 | 1017.2 |
| 20260831190735 | 33 | 360 | 9.7 | 32.2 | 0.00 | 0.00 | 0.00 | 52 | 1017.2 |
| 20260831190634 | 33 | 360 | 16.1 | 32.2 | 0.00 | 0.00 | 0.00 | 52 | 1017.3 |
| 20260831190534 | 33 | 360 | 20.9 | 32.2 | 0.00 | 0.00 | 0.00 | 51 | 1017.3 |
| 20260831190435 | 34 | 360 | 17.7 | 32.2 | 0.00 | 0.00 | 0.00 | 52 | 1017.3 |
| 20260831190339 | 34 | 360 | 11.3 | 20.9 | 0.00 | 0.00 | 0.00 | 52 | 1017.2 |
| 20260831190219 | 34 | 360 | 8.0 | 17.7 | 0.00 | 0.00 | 0.00 | 52 | 1017.3 |
| 20260831190119 | 34 | 360 | 9.7 | 17.7 | 0.00 | 0.00 | 0.00 | 53 | 1017.4 |
| 20260831190040 | 33 | 360 | 9.7 | 17.7 | 0.00 | 0.00 | 0.00 | 53 | 1017.4 |
| 20260831185919 | 33 | 360 | 9.7 | 17.7 | 0.00 | 0.00 | 0.00 | 52 | 1017.3 |
| 20260831185841 | 34 | 360 | 8.0 | 17.7 | 0.00 | 0.00 | 0.00 | 53 | 1017.4 |
| 20260831185719 | 33 | 360 | 6.4 | 16.1 | 0.00 | 0.00 | 0.00 | 53 | 1017.3 |
| 20260831185639 | 33 | 360 | 6.4 | 16.1 | 0.00 | 0.00 | 0.00 | 54 | 1017.4 |
| 20260831185523 | 33 | 360 | 6.4 | 16.1 | 0.00 | 0.00 | 0.00 | 53 | 1017.4 |
| 20260831185423 | 33 | 360 | 6.4 | 16.1 | 0.00 | 0.00 | 0.00 | 53 | 1017.3 |
| 20260831185324 | 33 | 360 | 6.4 | 20.9 | 0.00 | 0.00 | 0.00 | 53 | 1017.4 |
| 20260831185223 | 33 | 360 | 8.0 | 30.6 | 0.00 | 0.00 | 0.00 | 52 | 1017.4 |
| 20260831185144 | 34 | 360 | 9.7 | 30.6 | 0.00 | 0.00 | 0.00 | 52 | 1017.4 |
| 20260831185022 | 34 | 360 | 8.0 | 30.6 | 0.00 | 0.00 | 0.00 | 51 | 1017.4 |
| 20260831184922 | 34 | 360 | 6.4 | 30.6 | 0.00 | 0.00 | 0.00 | 51 | 1017.4 |
| 20260831184828 | 34 | 360 | 4.8 | 30.6 | 0.00 | 0.00 | 0.00 | 52 | 1017.5 |
| 20260831184748 | 33 | 360 | 6.4 | 30.6 | 0.00 | 0.00 | 0.00 | 52 | 1017.5 |
| 20260831184628 | 33 | 360 | 12.9 | 30.6 | 0.00 | 0.00 | 0.00 | 53 | 1017.6 |
| 20260831184529 | 33 | 360 | 19.3 | 30.6 | 0.00 | 0.00 | 0.00 | 52 | 1017.6 |
| 20260831184430 | 34 | 360 | 17.7 | 30.6 | 0.00 | 0.00 | 0.00 | 51 | 1017.6 |
| 20260831184330 | 34 | 360 | 11.3 | 27.4 | 0.00 | 0.00 | 0.00 | 51 | 1017.5 |
| 20260831184231 | 34 | 360 | 6.4 | 27.4 | 0.00 | 0.00 | 0.00 | 51 | 1017.4 |
| 20260831184136 | 34 | 360 | 3.2 | 27.4 | 0.00 | 0.00 | 0.00 | 52 | 1017.6 |
| 20260831184037 | 33 | 360 | 3.2 | 27.4 | 0.00 | 0.00 | 0.00 | 53 | 1017.5 |
| 20260831183956 | 33 | 360 | 6.4 | 27.4 | 0.00 | 0.00 | 0.00 | 54 | 1017.6 |
| 20260831183816 | 33 | 360 | 14.5 | 27.4 | 0.00 | 0.00 | 0.00 | 51 | 1017.6 |
| 20260831183717 | 33 | 360 | 14.5 | 27.4 | 0.00 | 0.00 | 0.00 | 51 | 1017.6 |
| 20260831183618 | 33 | 360 | 14.5 | 27.4 | 0.00 | 0.00 | 0.00 | 51 | 1017.6 |
| 20260831183517 | 33 | 360 | 12.9 | 27.4 | 0.00 | 0.00 | 0.00 | 52 | 1017.6 |
| 20260831183422 | 33 | 360 | 11.3 | 24.1 | 0.00 | 0.00 | 0.00 | 52 | 1017.6 |
| 20260831183322 | 33 | 360 | 11.3 | 24.1 | 0.00 | 0.00 | 0.00 | 52 | 1017.6 |
| 20260831183223 | 33 | 360 | 12.9 | 24.1 | 0.00 | 0.00 | 0.00 | 52 | 1017.6 |
| 20260831183124 | 33 | 360 | 14.5 | 24.1 | 0.00 | 0.00 | 0.00 | 52 | 1017.5 |
| 20260831183045 | 33 | 360 | 12.9 | 24.1 | 0.00 | 0.00 | 0.00 | 52 | 1017.7 |
| 20260831182924 | 33 | 360 | 11.3 | 19.3 | 0.00 | 0.00 | 0.00 | 53 | 1017.6 |
| 20260831182825 | 33 | 360 | 8.0 | 19.3 | 0.00 | 0.00 | 0.00 | 53 | 1017.6 |
| 20260831182729 | 33 | 360 | 4.8 | 19.3 | 0.00 | 0.00 | 0.00 | 53 | 1017.6 |
| 20260831182629 | 33 | 360 | 3.2 | 19.3 | 0.00 | 0.00 | 0.00 | 53 | 1017.7 |
| 20260831182530 | 33 | 360 | 3.2 | 19.3 | 0.00 | 0.00 | 0.00 | 53 | 1017.6 |
| 20260831182430 | 33 | 360 | 3.2 | 19.3 | 0.00 | 0.00 | 0.00 | 54 | 1017.6 |
| 20260831182329 | 33 | 360 | 6.4 | 22.5 | 0.00 | 0.00 | 0.00 | 55 | 1017.6 |
| 20260831182250 | 33 | 360 | 11.3 | 24.1 | 0.00 | 0.00 | 0.00 | 54 | 1017.7 |
| 20260831182130 | 33 | 360 | 11.3 | 24.1 | 0.00 | 0.00 | 0.00 | 56 | 1017.7 |
| 20260831182035 | 33 | 360 | 9.7 | 24.1 | 0.00 | 0.00 | 0.00 | 55 | 1017.7 |
| 20260831181955 | 33 | 360 | 9.7 | 24.1 | 0.00 | 0.00 | 0.00 | 54 | 1017.7 |
| 20260831181855 | 33 | 360 | 8.0 | 24.1 | 0.00 | 0.00 | 0.00 | 55 | 1017.7 |
| 20260831181734 | 33 | 360 | 9.7 | 24.1 | 0.00 | 0.00 | 0.00 | 55 | 1017.7 |
| 20260831181635 | 33 | 360 | 14.5 | 24.1 | 0.00 | 0.00 | 0.00 | 54 | 1017.7 |
| 20260831181556 | 33 | 360 | 16.1 | 24.1 | 0.00 | 0.00 | 0.00 | 53 | 1017.8 |
| 20260831181436 | 33 | 163 | 12.9 | 24.1 | 0.00 | 0.00 | 0.00 | 54 | 1017.7 |
| 20260831181355 | 33 | 360 | 9.7 | 24.1 | 0.00 | 0.00 | 0.00 | 55 | 1017.7 |
| 20260831181219 | 33 | 360 | 9.7 | 17.7 | 0.00 | 0.00 | 0.00 | 55 | 1017.8 |
| 20260831181119 | 33 | 360 | 6.4 | 17.7 | 0.00 | 0.00 | 0.00 | 55 | 1017.8 |
| 20260831181020 | 33 | 360 | 4.8 | 17.7 | 0.00 | 0.00 | 0.00 | 56 | 1017.7 |
| 20260831180920 | 33 | 360 | 4.8 | 19.3 | 0.00 | 0.00 | 0.00 | 56 | 1017.8 |
| 20260831180820 | 33 | 360 | 6.4 | 19.3 | 0.00 | 0.00 | 0.00 | 56 | 1017.8 |
| 20260831180717 | 33 | 360 | 8.0 | 19.3 | 0.00 | 0.00 | 0.00 | 56 | 1017.8 |
| 20260831180617 | 32 | 360 | 8.0 | 22.5 | 0.00 | 0.00 | 0.00 | 55 | 1017.9 |
| 20260831180518 | 33 | 360 | 9.7 | 22.5 | 0.00 | 0.00 | 0.00 | 56 | 1017.9 |
| 20260831180423 | 32 | 360 | 8.0 | 22.5 | 0.00 | 0.00 | 0.00 | 55 | 1017.8 |
| 20260831180323 | 33 | 360 | 6.4 | 22.5 | 0.00 | 0.00 | 0.00 | 55 | 1017.9 |
| 20260831180244 | 32 | 360 | 8.0 | 22.5 | 0.00 | 0.00 | 0.00 | 56 | 1018.0 |
| 20260831180124 | 32 | 360 | 6.4 | 22.5 | 0.00 | 0.00 | 0.00 | 56 | 1017.9 |
| 20260831180024 | 33 | 360 | 8.0 | 22.5 | 0.00 | 0.00 | 0.00 | 56 | 1017.9 |
| 20260831175925 | 33 | 360 | 9.7 | 22.5 | 0.00 | 0.00 | 0.00 | 56 | 1018.0 |
| 20260831175826 | 33 | 360 | 12.9 | 22.5 | 0.00 | 0.00 | 0.00 | 55 | 1017.9 |
| 20260831175730 | 33 | 360 | 9.7 | 24.1 | 0.00 | 0.00 | 0.00 | 55 | 1018.0 |
| 20260831175630 | 33 | 360 | 8.0 | 24.1 | 0.00 | 0.00 | 0.00 | 54 | 1018.0 |
| 20260831175531 | 33 | 360 | 6.4 | 24.1 | 0.00 | 0.00 | 0.00 | 56 | 1018.0 |
| 20260831175452 | 33 | 360 | 9.7 | 24.1 | 0.00 | 0.00 | 0.00 | 56 | 1018.1 |
| 20260831175331 | 33 | 360 | 14.5 | 24.1 | 0.00 | 0.00 | 0.00 | 55 | 1018.1 |
| 20260831175251 | 33 | 360 | 17.7 | 24.1 | 0.00 | 0.00 | 0.00 | 56 | 1018.2 |
| 20260831175131 | 33 | 360 | 17.7 | 24.1 | 0.00 | 0.00 | 0.00 | 55 | 1018.1 |
| 20260831175016 | 33 | 360 | 12.9 | 24.1 | 0.00 | 0.00 | 0.00 | 55 | 1018.1 |
| 20260831174937 | 33 | 360 | 9.7 | 24.1 | 0.00 | 0.00 | 0.00 | 55 | 1018.2 |
| 20260831174836 | 33 | 360 | 4.8 | 24.1 | 0.00 | 0.00 | 0.00 | 56 | 1018.1 |
| 20260831174717 | 33 | 111 | 3.2 | 14.5 | 0.00 | 0.00 | 0.00 | 56 | 1018.1 |
| 20260831174616 | 33 | 82 | 3.2 | 14.5 | 0.00 | 0.00 | 0.00 | 55 | 1018.2 |
| 20260831174518 | 33 | 138 | 4.8 | 14.5 | 0.00 | 0.00 | 0.00 | 56 | 1018.1 |
| 20260831174419 | 33 | 360 | 4.8 | 14.5 | 0.00 | 0.00 | 0.00 | 56 | 1018.2 |
| 20260831174323 | 33 | 360 | 6.4 | 14.5 | 0.00 | 0.00 | 0.00 | 57 | 1018.3 |
| 20260831174224 | 32 | 360 | 8.0 | 14.5 | 0.00 | 0.00 | 0.00 | 58 | 1018.2 |
| 20260831174124 | 32 | 360 | 9.7 | 14.5 | 0.00 | 0.00 | 0.00 | 57 | 1018.2 |
| 20260831174025 | 33 | 360 | 9.7 | 14.5 | 0.00 | 0.00 | 0.00 | 56 | 1018.2 |
| 20260831173927 | 33 | 360 | 8.0 | 17.7 | 0.00 | 0.00 | 0.00 | 57 | 1018.2 |
| 20260831173818 | 33 | 360 | 9.7 | 17.7 | 0.00 | 0.00 | 0.00 | 57 | 1018.3 |
| 20260831173719 | 33 | 360 | 6.4 | 17.7 | 0.00 | 0.00 | 0.00 | 57 | 1018.2 |
| 20260831173623 | 33 | 360 | 4.8 | 22.5 | 0.00 | 0.00 | 0.00 | 57 | 1018.3 |
| 20260831173543 | 32 | 360 | 3.2 | 25.7 | 0.00 | 0.00 | 0.00 | 58 | 1018.2 |
| 20260831173421 | 32 | 360 | 3.2 | 25.7 | 0.00 | 0.00 | 0.00 | 58 | 1018.3 |
| 20260831173321 | 32 | 360 | 4.8 | 25.7 | 0.00 | 0.00 | 0.00 | 58 | 1018.3 |
| 20260831173222 | 32 | 360 | 6.4 | 25.7 | 0.00 | 0.00 | 0.00 | 58 | 1018.3 |
| 20260831173122 | 32 | 360 | 8.0 | 25.7 | 0.00 | 0.00 | 0.00 | 59 | 1018.3 |
| 20260831173023 | 32 | 360 | 11.3 | 25.7 | 0.00 | 0.00 | 0.00 | 59 | 1018.3 |
| 20260831172928 | 32 | 360 | 11.3 | 25.7 | 0.00 | 0.00 | 0.00 | 58 | 1018.4 |
| 20260831172849 | 32 | 360 | 14.5 | 25.7 | 0.00 | 0.00 | 0.00 | 58 | 1018.4 |
| 20260831172728 | 32 | 360 | 11.3 | 25.7 | 0.00 | 0.00 | 0.00 | 59 | 1018.3 |
| 20260831172628 | 32 | 360 | 9.7 | 25.7 | 0.00 | 0.00 | 0.00 | 59 | 1018.4 |
| 20260831172529 | 32 | 360 | 8.0 | 24.1 | 0.00 | 0.00 | 0.00 | 59 | 1018.4 |
| 20260831172449 | 32 | 360 | 11.3 | 24.1 | 0.00 | 0.00 | 0.00 | 58 | 1018.4 |
| 20260831172328 | 32 | 360 | 12.9 | 24.1 | 0.00 | 0.00 | 0.00 | 58 | 1018.4 |
| 20260831172229 | 31 | 360 | 14.5 | 24.1 | 0.00 | 0.00 | 0.00 | 57 | 1018.4 |
| 20260831172134 | 32 | 360 | 14.5 | 29.0 | 0.00 | 0.00 | 0.00 | 57 | 1018.5 |
| 20260831172034 | 32 | 360 | 11.3 | 29.0 | 0.00 | 0.00 | 0.00 | 57 | 1018.4 |
| 20260831171954 | 32 | 360 | 8.0 | 29.0 | 0.00 | 0.00 | 0.00 | 58 | 1018.4 |
| 20260831171834 | 32 | 360 | 8.0 | 29.0 | 0.00 | 0.00 | 0.00 | 58 | 1018.4 |
| 20260831171735 | 32 | 360 | 6.4 | 29.0 | 0.00 | 0.00 | 0.00 | 58 | 1018.5 |
| 20260831171636 | 32 | 360 | 8.0 | 29.0 | 0.00 | 0.00 | 0.00 | 61 | 1018.5 |
| 20260831171556 | 31 | 360 | 9.7 | 29.0 | 0.00 | 0.00 | 0.00 | 60 | 1018.4 |
| 20260831171440 | 31 | 360 | 14.5 | 27.4 | 0.00 | 0.00 | 0.00 | 60 | 1018.5 |
| 20260831171339 | 32 | 360 | 16.1 | 27.4 | 0.00 | 0.00 | 0.00 | 62 | 1018.5 |
| 20260831171219 | 32 | 360 | 11.3 | 25.7 | 0.00 | 0.00 | 0.00 | 61 | 1018.4 |
| 20260831171118 | 31 | 360 | 8.0 | 25.7 | 0.00 | 0.00 | 0.00 | 62 | 1018.5 |
| 20260831171019 | 31 | 360 | 9.7 | 25.7 | 0.00 | 0.00 | 0.00 | 61 | 1018.5 |
| 20260831170918 | 31 | 360 | 16.1 | 25.7 | 0.00 | 0.00 | 0.00 | 62 | 1018.6 |
| 20260831170818 | 31 | 360 | 16.1 | 27.4 | 0.00 | 0.00 | 0.00 | 62 | 1018.5 |
| 20260831170718 | 31 | 360 | 14.5 | 27.4 | 0.00 | 0.00 | 0.00 | 61 | 1018.6 |
| 20260831170624 | 31 | 360 | 11.3 | 27.4 | 0.00 | 0.00 | 0.00 | 61 | 1018.5 |
| 20260831170544 | 31 | 360 | 9.7 | 27.4 | 0.00 | 0.00 | 0.00 | 63 | 1018.6 |
| 20260831170424 | 31 | 360 | 9.7 | 27.4 | 0.00 | 0.00 | 0.00 | 63 | 1018.6 |
| 20260831170324 | 31 | 360 | 14.5 | 27.4 | 0.00 | 0.00 | 0.00 | 63 | 1018.5 |
| 20260831170225 | 31 | 360 | 17.7 | 27.4 | 0.00 | 0.00 | 0.00 | 62 | 1018.6 |
| 20260831170125 | 31 | 360 | 16.1 | 27.4 | 0.00 | 0.00 | 0.00 | 62 | 1018.6 |
| 20260831170027 | 31 | 360 | 11.3 | 27.4 | 0.00 | 0.00 | 0.00 | 63 | 1018.6 |
| 20260831165931 | 31 | 360 | 9.7 | 24.1 | 0.00 | 0.00 | 0.00 | 63 | 1018.5 |
| 20260831165852 | 31 | 360 | 9.7 | 24.1 | 0.00 | 0.00 | 0.00 | 64 | 1018.5 |
| 20260831165730 | 31 | 360 | 9.7 | 24.1 | 0.00 | 0.00 | 0.00 | 63 | 1018.5 |
| 20260831165631 | 31 | 360 | 12.9 | 24.1 | 0.00 | 0.00 | 0.00 | 62 | 1018.6 |
| 20260831165532 | 31 | 360 | 14.5 | 24.1 | 0.00 | 0.00 | 0.00 | 62 | 1018.5 |
| 20260831165433 | 31 | 360 | 16.1 | 24.1 | 0.00 | 0.00 | 0.00 | 62 | 1018.5 |
| 20260831165317 | 31 | 360 | 17.7 | 24.1 | 0.00 | 0.00 | 0.00 | 62 | 1018.5 |
| 20260831165238 | 31 | 360 | 17.7 | 24.1 | 0.00 | 0.00 | 0.00 | 62 | 1018.5 |
| 20260831165117 | 31 | 360 | 16.1 | 24.1 | 0.00 | 0.00 | 0.00 | 61 | 1018.5 |
| 20260831165017 | 31 | 360 | 12.9 | 20.9 | 0.00 | 0.00 | 0.00 | 63 | 1018.4 |
| 20260831164937 | 31 | 360 | 12.9 | 20.9 | 0.00 | 0.00 | 0.00 | 63 | 1018.6 |
| 20260831164817 | 31 | 360 | 14.5 | 20.9 | 0.00 | 0.00 | 0.00 | 63 | 1018.6 |
| 20260831164717 | 31 | 162 | 9.7 | 19.3 | 0.00 | 0.00 | 0.00 | 64 | 1018.6 |
| 20260831164618 | 31 | 131 | 6.4 | 19.3 | 0.00 | 0.00 | 0.00 | 65 | 1018.6 |
| 20260831164523 | 31 | 360 | 4.8 | 19.3 | 0.00 | 0.00 | 0.00 | 65 | 1018.6 |
| 20260831164422 | 31 | 360 | 9.7 | 19.3 | 0.00 | 0.00 | 0.00 | 65 | 1018.6 |
| 20260831164323 | 31 | 360 | 11.3 | 19.3 | 0.00 | 0.00 | 0.00 | 65 | 1018.6 |
| 20260831164224 | 31 | 360 | 12.9 | 19.3 | 0.00 | 0.00 | 0.00 | 65 | 1018.6 |
| 20260831164123 | 31 | 360 | 12.9 | 19.3 | 0.00 | 0.00 | 0.00 | 65 | 1018.6 |
| 20260831164023 | 31 | 360 | 12.9 | 19.3 | 0.00 | 0.00 | 0.00 | 65 | 1018.6 |
| 20260831163923 | 31 | 360 | 11.3 | 17.7 | 0.00 | 0.00 | 0.00 | 66 | 1018.6 |
| 20260831163827 | 31 | 360 | 11.3 | 17.7 | 0.00 | 0.00 | 0.00 | 66 | 1018.6 |
| 20260831163728 | 31 | 360 | 9.7 | 17.7 | 0.00 | 0.00 | 0.00 | 66 | 1018.6 |
| 20260831163629 | 31 | 360 | 9.7 | 17.7 | 0.00 | 0.00 | 0.00 | 66 | 1018.7 |
| 20260831163550 | 31 | 360 | 9.7 | 17.7 | 0.00 | 0.00 | 0.00 | 66 | 1018.6 |
| 20260831163430 | 31 | 360 | 8.0 | 16.1 | 0.00 | 0.00 | 0.00 | 65 | 1018.6 |
| 20260831163331 | 31 | 360 | 9.7 | 16.1 | 0.00 | 0.00 | 0.00 | 65 | 1018.6 |
| 20260831163231 | 31 | 360 | 9.7 | 16.1 | 0.00 | 0.00 | 0.00 | 65 | 1018.5 |
| 20260831163136 | 31 | 161 | 9.7 | 16.1 | 0.00 | 0.00 | 0.00 | 64 | 1018.6 |
| 20260831163056 | 31 | 360 | 9.7 | 24.1 | 0.00 | 0.00 | 0.00 | 65 | 1018.6 |
| 20260831162954 | 31 | 360 | 6.4 | 24.1 | 0.00 | 0.00 | 0.00 | 65 | 1018.6 |
| 20260831162834 | 31 | 360 | 4.8 | 24.1 | 0.00 | 0.00 | 0.00 | 65 | 1018.6 |
| 20260831162734 | 31 | 360 | 4.8 | 24.1 | 0.00 | 0.00 | 0.00 | 65 | 1018.6 |
| 20260831162635 | 31 | 360 | 8.0 | 24.1 | 0.00 | 0.00 | 0.00 | 65 | 1018.6 |
| 20260831162556 | 31 | 360 | 8.0 | 24.1 | 0.00 | 0.00 | 0.00 | 66 | 1018.7 |
| 20260831162434 | 31 | 360 | 6.4 | 24.1 | 0.00 | 0.00 | 0.00 | 66 | 1018.7 |
| 20260831162318 | 31 | 360 | 6.4 | 24.1 | 0.00 | 0.00 | 0.00 | 66 | 1018.7 |
| 20260831162218 | 30 | 360 | 9.7 | 24.1 | 0.00 | 0.00 | 0.00 | 68 | 1018.6 |
| 20260831162120 | 30 | 360 | 12.9 | 24.1 | 0.00 | 0.00 | 0.00 | 67 | 1018.7 |
| 20260831162020 | 31 | 360 | 11.3 | 17.7 | 0.00 | 0.00 | 0.00 | 66 | 1018.6 |
| 20260831161919 | 31 | 360 | 9.7 | 22.5 | 0.00 | 0.00 | 0.00 | 67 | 1018.6 |
| 20260831161820 | 31 | 360 | 9.7 | 22.5 | 0.00 | 0.00 | 0.00 | 67 | 1018.6 |
| 20260831161721 | 31 | 360 | 9.7 | 22.5 | 0.00 | 0.00 | 0.00 | 67 | 1018.6 |
| 20260831161625 | 31 | 360 | 9.7 | 22.5 | 0.00 | 0.00 | 0.00 | 66 | 1018.5 |
| 20260831161526 | 30 | 213 | 9.7 | 22.5 | 0.00 | 0.00 | 0.00 | 66 | 1018.5 |
| 20260831161426 | 31 | 360 | 6.4 | 22.5 | 0.00 | 0.00 | 0.00 | 65 | 1018.6 |
| 20260831161327 | 31 | 360 | 6.4 | 22.5 | 0.00 | 0.00 | 0.00 | 66 | 1018.5 |
| 20260831161227 | 31 | 360 | 8.0 | 22.5 | 0.00 | 0.00 | 0.00 | 66 | 1018.4 |
| 20260831161127 | 30 | 360 | 11.3 | 22.5 | 0.00 | 0.00 | 0.00 | 66 | 1018.5 |
| 20260831161032 | 31 | 360 | 11.3 | 22.5 | 0.00 | 0.00 | 0.00 | 66 | 1018.5 |
| 20260831160932 | 31 | 360 | 8.0 | 22.5 | 0.00 | 0.00 | 0.00 | 66 | 1018.6 |
| 20260831160832 | 31 | 360 | 4.8 | 20.9 | 0.00 | 0.00 | 0.00 | 67 | 1018.4 |
| 20260831160733 | 30 | 360 | 6.4 | 20.9 | 0.00 | 0.00 | 0.00 | 67 | 1018.5 |
| 20260831160632 | 30 | 360 | 9.7 | 20.9 | 0.00 | 0.00 | 0.00 | 68 | 1018.5 |
| 20260831160532 | 30 | 360 | 12.9 | 20.9 | 0.00 | 0.00 | 0.00 | 67 | 1018.5 |
| 20260831160432 | 30 | 360 | 11.3 | 20.9 | 0.00 | 0.00 | 0.00 | 67 | 1018.5 |
| 20260831160338 | 30 | 360 | 11.3 | 20.9 | 0.00 | 0.00 | 0.00 | 69 | 1018.5 |
| 20260831160218 | 30 | 360 | 12.9 | 20.9 | 0.00 | 0.00 | 0.00 | 69 | 1018.5 |
| 20260831160139 | 30 | 360 | 14.5 | 20.9 | 0.00 | 0.00 | 0.00 | 68 | 1018.6 |
| 20260831160019 | 30 | 360 | 14.5 | 20.9 | 0.00 | 0.00 | 0.00 | 68 | 1018.6 |
| 20260831155918 | 30 | 360 | 14.5 | 20.9 | 0.00 | 0.00 | 0.00 | 68 | 1018.6 |
| 20260831155820 | 30 | 360 | 12.9 | 20.9 | 0.00 | 0.00 | 0.00 | 69 | 1018.6 |
| 20260831155719 | 30 | 360 | 11.3 | 17.7 | 0.00 | 0.00 | 0.00 | 71 | 1018.6 |
| 20260831155624 | 30 | 360 | 8.0 | 16.1 | 0.00 | 0.00 | 0.00 | 71 | 1018.6 |
| 20260831155524 | 30 | 360 | 6.4 | 12.9 | 0.00 | 0.00 | 0.00 | 71 | 1018.6 |
| 20260831155424 | 30 | 360 | 6.4 | 9.7 | 0.00 | 0.00 | 0.00 | 72 | 1018.5 |
| 20260831155345 | 30 | 360 | 4.8 | 12.9 | 0.00 | 0.00 | 0.00 | 71 | 1018.6 |
| 20260831155224 | 30 | 360 | 3.2 | 12.9 | 0.00 | 0.00 | 0.00 | 72 | 1018.6 |
| 20260831155125 | 30 | 360 | 3.2 | 14.5 | 0.00 | 0.00 | 0.00 | 72 | 1018.6 |
| 20260831155026 | 30 | 360 | 1.6 | 17.7 | 0.00 | 0.00 | 0.00 | 72 | 1018.6 |
| 20260831154946 | 30 | 360 | 1.6 | 19.3 | 0.00 | 0.00 | 0.00 | 72 | 1018.6 |
| 20260831154849 | 30 | 360 | 3.2 | 19.3 | 0.00 | 0.00 | 0.00 | 72 | 1018.7 |
| 20260831154749 | 29 | 360 | 4.8 | 19.3 | 0.00 | 0.00 | 0.00 | 73 | 1018.6 |
| 20260831154630 | 29 | 360 | 6.4 | 19.3 | 0.00 | 0.00 | 0.00 | 73 | 1018.7 |
| 20260831154529 | 29 | 360 | 8.0 | 19.3 | 0.00 | 0.00 | 0.00 | 73 | 1018.6 |
| 20260831154430 | 29 | 360 | 9.7 | 19.3 | 0.00 | 0.00 | 0.00 | 72 | 1018.6 |
| 20260831154330 | 29 | 360 | 11.3 | 19.3 | 0.00 | 0.00 | 0.00 | 72 | 1018.6 |
| 20260831154231 | 30 | 360 | 9.7 | 19.3 | 0.00 | 0.00 | 0.00 | 72 | 1018.6 |
| 20260831154152 | 30 | 360 | 8.0 | 19.3 | 0.00 | 0.00 | 0.00 | 71 | 1018.6 |
| 20260831154036 | 30 | 360 | 8.0 | 19.3 | 0.00 | 0.00 | 0.00 | 72 | 1018.6 |
| 20260831153935 | 29 | 360 | 8.0 | 19.3 | 0.00 | 0.00 | 0.00 | 72 | 1018.5 |
| 20260831153856 | 29 | 360 | 9.7 | 19.3 | 0.00 | 0.00 | 0.00 | 73 | 1018.6 |
| 20260831153716 | 29 | 360 | 11.3 | 22.5 | 0.00 | 0.00 | 0.00 | 73 | 1018.6 |
| 20260831153617 | 29 | 360 | 11.3 | 27.4 | 0.00 | 0.00 | 0.00 | 73 | 1018.5 |
| 20260831153517 | 29 | 360 | 11.3 | 27.4 | 0.00 | 0.00 | 0.00 | 73 | 1018.5 |
| 20260831153418 | 28 | 360 | 11.3 | 27.4 | 0.00 | 0.00 | 0.00 | 73 | 1018.5 |
| 20260831153322 | 28 | 360 | 12.9 | 27.4 | 0.00 | 0.00 | 0.00 | 73 | 1018.4 |
| 20260831153222 | 28 | 360 | 12.9 | 27.4 | 0.00 | 0.00 | 0.00 | 73 | 1018.5 |
| 20260831153122 | 28 | 360 | 14.5 | 27.4 | 0.00 | 0.00 | 0.00 | 73 | 1018.4 |
| 20260831153023 | 28 | 360 | 16.1 | 27.4 | 0.00 | 0.00 | 0.00 | 72 | 1018.4 |
| 20260831152924 | 29 | 360 | 17.7 | 27.4 | 0.00 | 0.00 | 0.00 | 71 | 1018.4 |
| 20260831152826 | 29 | 360 | 16.1 | 25.7 | 0.00 | 0.00 | 0.00 | 71 | 1018.3 |
| 20260831152729 | 30 | 360 | 16.1 | 25.7 | 0.00 | 0.00 | 0.00 | 70 | 1018.3 |
| 20260831152649 | 30 | 140 | 11.3 | 22.5 | 0.00 | 0.00 | 0.00 | 71 | 1018.3 |
| 20260831152528 | 30 | 360 | 9.7 | 22.5 | 0.00 | 0.00 | 0.00 | 71 | 1018.4 |
| 20260831152447 | 30 | 360 | 6.4 | 22.5 | 0.00 | 0.00 | 0.00 | 73 | 1018.4 |
| 20260831152326 | 30 | 180 | 6.4 | 16.1 | 0.00 | 0.00 | 0.00 | 73 | 1018.4 |
| 20260831152226 | 30 | 360 | 4.8 | 16.1 | 0.00 | 0.00 | 0.00 | 73 | 1018.4 |
| 20260831152126 | 30 | 360 | 6.4 | 16.1 | 0.00 | 0.00 | 0.00 | 74 | 1018.4 |
| 20260831152026 | 30 | 360 | 6.4 | 16.1 | 0.00 | 0.00 | 0.00 | 74 | 1018.4 |
| 20260831151931 | 29 | 360 | 6.4 | 17.7 | 0.00 | 0.00 | 0.00 | 74 | 1018.3 |
| 20260831151851 | 29 | 360 | 6.4 | 19.3 | 0.00 | 0.00 | 0.00 | 75 | 1018.4 |
| 20260831151729 | 29 | 360 | 6.4 | 19.3 | 0.00 | 0.00 | 0.00 | 75 | 1018.4 |
| 20260831151629 | 28 | 360 | 6.4 | 19.3 | 0.00 | 0.00 | 0.00 | 75 | 1018.4 |
| 20260831151529 | 28 | 360 | 6.4 | 19.3 | 0.00 | 0.00 | 0.00 | 75 | 1018.3 |
| 20260831151449 | 28 | 360 | 6.4 | 19.3 | 0.00 | 0.00 | 0.00 | 76 | 1018.2 |
| 20260831151348 | 28 | 360 | 8.0 | 22.5 | 0.00 | 0.00 | 0.00 | 76 | 1018.2 |
| 20260831151228 | 28 | 360 | 8.0 | 22.5 | 0.00 | 0.00 | 0.00 | 77 | 1018.3 |
| 20260831151127 | 28 | 360 | 6.4 | 22.5 | 0.00 | 0.00 | 0.00 | 78 | 1018.3 |
| 20260831151026 | 28 | 360 | 6.4 | 22.5 | 0.00 | 0.00 | 0.00 | 78 | 1018.2 |
| 20260831150952 | 28 | 360 | 4.8 | 22.5 | 0.00 | 0.00 | 0.00 | 78 | 1018.2 |
| 20260831150830 | 28 | 360 | 8.0 | 22.5 | 0.00 | 0.00 | 0.00 | 78 | 1018.2 |
| 20260831150731 | 28 | 360 | 11.3 | 22.5 | 0.00 | 0.00 | 0.00 | 78 | 1018.2 |
| 20260831150632 | 27 | 360 | 11.3 | 22.5 | 0.00 | 0.00 | 0.00 | 78 | 1018.2 |
| 20260831150553 | 27 | 360 | 9.7 | 22.5 | 0.00 | 0.00 | 0.00 | 79 | 1018.3 |
| 20260831150452 | 27 | 360 | 9.7 | 20.9 | 0.00 | 0.00 | 0.00 | 79 | 1018.3 |
| 20260831150332 | 27 | 360 | 11.3 | 17.7 | 0.00 | 0.00 | 0.00 | 79 | 1018.2 |
| 20260831150232 | 27 | 360 | 11.3 | 17.7 | 0.00 | 0.00 | 0.00 | 79 | 1018.2 |
| 20260831150116 | 27 | 360 | 8.0 | 17.7 | 0.00 | 0.00 | 0.00 | 79 | 1018.2 |
| 20260831150017 | 27 | 360 | 6.4 | 17.7 | 0.00 | 0.00 | 0.00 | 79 | 1018.2 |
| 20260831145918 | 27 | 360 | 6.4 | 17.7 | 0.00 | 0.00 | 0.00 | 80 | 1018.2 |
| 20260831145818 | 27 | 360 | 6.4 | 17.7 | 0.00 | 0.00 | 0.00 | 80 | 1018.2 |
| 20260831145717 | 27 | 360 | 6.4 | 17.7 | 0.00 | 0.00 | 0.00 | 80 | 1018.2 |
| 20260831145617 | 27 | 360 | 6.4 | 17.7 | 0.00 | 0.00 | 0.00 | 80 | 1018.2 |
| 20260831145522 | 27 | 360 | 6.4 | 17.7 | 0.00 | 0.00 | 0.00 | 80 | 1018.2 |
| 20260831145423 | 27 | 360 | 6.4 | 19.3 | 0.00 | 0.00 | 0.00 | 80 | 1018.2 |
| 20260831145325 | 27 | 360 | 8.0 | 19.3 | 0.00 | 0.00 | 0.00 | 80 | 1018.2 |
| 20260831145224 | 27 | 360 | 6.4 | 19.3 | 0.00 | 0.00 | 0.00 | 80 | 1018.1 |
| 20260831145125 | 27 | 360 | 4.8 | 19.3 | 0.00 | 0.00 | 0.00 | 80 | 1018.2 |
| 20260831145046 | 27 | 360 | 4.8 | 19.3 | 0.00 | 0.00 | 0.00 | 80 | 1018.2 |
| 20260831144926 | 27 | 360 | 6.4 | 19.3 | 0.00 | 0.00 | 0.00 | 80 | 1018.2 |
| 20260831144826 | 27 | 360 | 8.0 | 20.9 | 0.00 | 0.00 | 0.00 | 80 | 1018.2 |
| 20260831144731 | 27 | 360 | 9.7 | 20.9 | 0.00 | 0.00 | 0.00 | 80 | 1018.2 |
| 20260831144650 | 27 | 360 | 9.7 | 20.9 | 0.00 | 0.00 | 0.00 | 80 | 1018.2 |
| 20260831144529 | 27 | 360 | 8.0 | 20.9 | 0.00 | 0.00 | 0.00 | 80 | 1018.1 |
| 20260831144430 | 27 | 360 | 6.4 | 22.5 | 0.00 | 0.00 | 0.00 | 80 | 1018.2 |
| 20260831144330 | 27 | 360 | 8.0 | 22.5 | 0.00 | 0.00 | 0.00 | 80 | 1018.2 |
| 20260831144231 | 27 | 360 | 9.7 | 22.5 | 0.00 | 0.00 | 0.00 | 80 | 1018.2 |
| 20260831144131 | 27 | 360 | 9.7 | 22.5 | 0.00 | 0.00 | 0.00 | 80 | 1018.1 |
| 20260831144035 | 27 | 360 | 8.0 | 22.5 | 0.00 | 0.00 | 0.00 | 79 | 1018.1 |
| 20260831143916 | 27 | 360 | 8.0 | 22.5 | 0.00 | 0.00 | 0.00 | 80 | 1018.1 |
| 20260831143817 | 27 | 360 | 8.0 | 22.5 | 0.00 | 0.00 | 0.00 | 80 | 1018.1 |
| 20260831143717 | 27 | 360 | 9.7 | 22.5 | 0.00 | 0.00 | 0.00 | 80 | 1018.1 |
| 20260831143617 | 27 | 360 | 9.7 | 19.3 | 0.00 | 0.00 | 0.00 | 80 | 1018.1 |
| 20260831143518 | 27 | 360 | 9.7 | 19.3 | 0.00 | 0.00 | 0.00 | 80 | 1018.1 |
| 20260831143423 | 27 | 360 | 8.0 | 19.3 | 0.00 | 0.00 | 0.00 | 81 | 1018.0 |
| 20260831143323 | 27 | 360 | 11.3 | 19.3 | 0.00 | 0.00 | 0.00 | 81 | 1018.1 |
| 20260831143223 | 27 | 360 | 11.3 | 19.3 | 0.00 | 0.00 | 0.00 | 80 | 1018.1 |
| 20260831143124 | 27 | 360 | 11.3 | 19.3 | 0.00 | 0.00 | 0.00 | 80 | 1018.0 |
| 20260831143025 | 27 | 360 | 8.0 | 19.3 | 0.00 | 0.00 | 0.00 | 80 | 1018.1 |
| 20260831142926 | 27 | 360 | 4.8 | 20.9 | 0.00 | 0.00 | 0.00 | 80 | 1018.0 |
| 20260831142832 | 27 | 360 | 4.8 | 20.9 | 0.00 | 0.00 | 0.00 | 80 | 1018.1 |
| 20260831142730 | 27 | 360 | 6.4 | 20.9 | 0.00 | 0.00 | 0.00 | 80 | 1018.0 |
| 20260831142632 | 27 | 360 | 8.0 | 20.9 | 0.00 | 0.00 | 0.00 | 80 | 1018.0 |
| 20260831142552 | 27 | 360 | 8.0 | 20.9 | 0.00 | 0.00 | 0.00 | 80 | 1017.9 |
| 20260831142432 | 27 | 360 | 8.0 | 20.9 | 0.00 | 0.00 | 0.00 | 81 | 1017.9 |
| 20260831142333 | 27 | 360 | 8.0 | 20.9 | 0.00 | 0.00 | 0.00 | 81 | 1017.9 |
| 20260831142232 | 27 | 360 | 8.0 | 20.9 | 0.00 | 0.00 | 0.00 | 81 | 1017.9 |
| 20260831142117 | 27 | 360 | 8.0 | 20.9 | 0.00 | 0.00 | 0.00 | 81 | 1017.9 |
| 20260831142017 | 27 | 360 | 9.7 | 20.9 | 0.00 | 0.00 | 0.00 | 81 | 1017.9 |
| 20260831141917 | 27 | 360 | 11.3 | 20.9 | 0.00 | 0.00 | 0.00 | 81 | 1017.9 |
| 20260831141816 | 27 | 360 | 11.3 | 20.9 | 0.00 | 0.00 | 0.00 | 80 | 1017.9 |
| 20260831141737 | 27 | 360 | 8.0 | 20.9 | 0.00 | 0.00 | 0.00 | 81 | 1017.8 |
| 20260831141617 | 27 | 360 | 4.8 | 20.9 | 0.00 | 0.00 | 0.00 | 81 | 1017.8 |
| 20260831141517 | 27 | 360 | 4.8 | 20.9 | 0.00 | 0.00 | 0.00 | 81 | 1017.9 |
| 20260831141438 | 27 | 360 | 6.4 | 20.9 | 0.00 | 0.00 | 0.00 | 81 | 1017.9 |
| 20260831141321 | 27 | 360 | 6.4 | 20.9 | 0.00 | 0.00 | 0.00 | 82 | 1017.9 |
| 20260831141221 | 27 | 360 | 4.8 | 20.9 | 0.00 | 0.00 | 0.00 | 82 | 1017.8 |
| 20260831141122 | 27 | 360 | 4.8 | 17.7 | 0.00 | 0.00 | 0.00 | 82 | 1017.9 |
| 20260831141021 | 27 | 360 | 4.8 | 16.1 | 0.00 | 0.00 | 0.00 | 82 | 1017.9 |
| 20260831140922 | 27 | 360 | 6.4 | 16.1 | 0.00 | 0.00 | 0.00 | 83 | 1017.9 |
| 20260831140822 | 27 | 360 | 6.4 | 16.1 | 0.00 | 0.00 | 0.00 | 83 | 1017.9 |
| 20260831140742 | 27 | 360 | 4.8 | 14.5 | 0.00 | 0.00 | 0.00 | 84 | 1017.8 |
| 20260831140626 | 27 | 360 | 6.4 | 14.5 | 0.00 | 0.00 | 0.00 | 83 | 1017.8 |
| 20260831140527 | 27 | 360 | 4.8 | 14.5 | 0.00 | 0.00 | 0.00 | 83 | 1017.8 |
| 20260831140426 | 27 | 360 | 4.8 | 14.5 | 0.00 | 0.00 | 0.00 | 84 | 1017.7 |
| 20260831140326 | 27 | 360 | 3.2 | 12.9 | 0.00 | 0.00 | 0.00 | 84 | 1017.8 |
| 20260831140227 | 27 | 360 | 3.2 | 12.9 | 0.00 | 0.00 | 0.00 | 84 | 1017.8 |
| 20260831140148 | 27 | 360 | 3.2 | 12.9 | 0.00 | 0.00 | 0.00 | 84 | 1017.7 |
| 20260831140028 | 27 | 360 | 3.2 | 12.9 | 0.00 | 0.00 | 0.00 | 84 | 1017.7 |
| 20260831135929 | 27 | 360 | 4.8 | 14.5 | 0.00 | 0.00 | 0.00 | 84 | 1017.8 |
| 20260831135835 | 27 | 360 | 4.8 | 14.5 | 0.00 | 0.00 | 0.00 | 85 | 1017.7 |
| 20260831135735 | 27 | 360 | 3.2 | 14.5 | 0.00 | 0.00 | 0.00 | 85 | 1017.7 |
| 20260831135616 | 27 | 360 | 4.8 | 14.5 | 0.00 | 0.00 | 0.00 | 85 | 1017.6 |
| 20260831135515 | 27 | 360 | 6.4 | 14.5 | 0.00 | 0.00 | 0.00 | 85 | 1017.7 |
| 20260831135416 | 26 | 360 | 6.4 | 16.1 | 0.00 | 0.00 | 0.00 | 86 | 1017.6 |
| 20260831135317 | 26 | 360 | 6.4 | 16.1 | 0.00 | 0.00 | 0.00 | 86 | 1017.6 |
| 20260831135222 | 26 | 360 | 6.4 | 17.7 | 0.00 | 0.00 | 0.00 | 86 | 1017.6 |
| 20260831135122 | 26 | 360 | 6.4 | 17.7 | 0.00 | 0.00 | 0.00 | 86 | 1017.7 |
| 20260831134943 | 26 | 360 | 6.4 | 17.7 | 0.00 | 0.00 | 0.00 | 86 | 1017.6 |
| 20260831134822 | 26 | 360 | 6.4 | 17.7 | 0.00 | 0.00 | 0.00 | 86 | 1017.6 |
| 20260831134723 | 26 | 360 | 6.4 | 17.7 | 0.00 | 0.00 | 0.00 | 86 | 1017.7 |
| 20260831134623 | 26 | 360 | 8.0 | 17.7 | 0.00 | 0.00 | 0.00 | 86 | 1017.7 |
| 20260831134528 | 26 | 360 | 8.0 | 17.7 | 0.00 | 0.00 | 0.00 | 86 | 1017.7 |
| 20260831134428 | 26 | 360 | 6.4 | 17.7 | 0.00 | 0.00 | 0.00 | 87 | 1017.7 |
| 20260831134349 | 26 | 360 | 4.8 | 12.9 | 0.00 | 0.00 | 0.00 | 87 | 1017.5 |
| 20260831134228 | 26 | 360 | 3.2 | 12.9 | 0.00 | 0.00 | 0.00 | 87 | 1017.6 |
| 20260831134149 | 26 | 360 | 3.2 | 12.9 | 0.00 | 0.00 | 0.00 | 88 | 1017.6 |
| 20260831134028 | 26 | 360 | 4.8 | 12.9 | 0.00 | 0.00 | 0.00 | 87 | 1017.6 |
| 20260831133929 | 26 | 198 | 6.4 | 12.9 | 0.00 | 0.00 | 0.00 | 87 | 1017.5 |
| 20260831133829 | 26 | 360 | 8.0 | 12.9 | 0.00 | 0.00 | 0.00 | 88 | 1017.5 |
| 20260831133755 | 26 | 360 | 6.4 | 12.9 | 0.00 | 0.00 | 0.00 | 88 | 1017.6 |
| 20260831133635 | 26 | 360 | 4.8 | 12.9 | 0.00 | 0.00 | 0.00 | 88 | 1017.5 |
| 20260831133554 | 26 | 360 | 3.2 | 9.7 | 0.00 | 0.00 | 0.00 | 88 | 1017.5 |
| 20260831133435 | 26 | 360 | 1.6 | 9.7 | 0.00 | 0.00 | 0.00 | 89 | 1017.5 |
| 20260831133356 | 26 | 360 | 3.2 | 9.7 | 0.00 | 0.00 | 0.00 | 89 | 1017.5 |
| 20260831133215 | 26 | 360 | 4.8 | 9.7 | 0.00 | 0.00 | 0.00 | 89 | 1017.5 |
| 20260831133116 | 26 | 360 | 4.8 | 12.9 | 0.00 | 0.00 | 0.00 | 89 | 1017.5 |
| 20260831133022 | 26 | 360 | 6.4 | 14.5 | 0.00 | 0.00 | 0.00 | 89 | 1017.5 |
| 20260831132921 | 26 | 360 | 6.4 | 14.5 | 0.00 | 0.00 | 0.00 | 89 | 1017.4 |
| 20260831132824 | 26 | 360 | 6.4 | 14.5 | 0.00 | 0.00 | 0.00 | 89 | 1017.4 |
| 20260831132724 | 26 | 360 | 4.8 | 14.5 | 0.00 | 0.00 | 0.00 | 89 | 1017.5 |
| 20260831132624 | 26 | 360 | 3.2 | 14.5 | 0.00 | 0.00 | 0.00 | 89 | 1017.4 |
| 20260831132525 | 26 | 360 | 4.8 | 14.5 | 0.00 | 0.00 | 0.00 | 89 | 1017.5 |
| 20260831132426 | 25 | 360 | 6.4 | 14.5 | 0.00 | 0.00 | 0.00 | 89 | 1017.5 |
| 20260831132350 | 25 | 360 | 6.4 | 14.5 | 0.00 | 0.00 | 0.00 | 89 | 1017.5 |
| 20260831132230 | 25 | 360 | 6.4 | 14.5 | 0.00 | 0.00 | 0.00 | 90 | 1017.5 |
| 20260831132131 | 25 | 360 | 6.4 | 14.5 | 0.00 | 0.00 | 0.00 | 89 | 1017.5 |
| 20260831132031 | 25 | 360 | 8.0 | 14.5 | 0.00 | 0.00 | 0.00 | 89 | 1017.5 |
| 20260831131951 | 25 | 360 | 8.0 | 14.5 | 0.00 | 0.00 | 0.00 | 90 | 1017.5 |
| 20260831131832 | 25 | 360 | 8.0 | 14.5 | 0.00 | 0.00 | 0.00 | 90 | 1017.5 |
| 20260831131732 | 25 | 360 | 9.7 | 14.5 | 0.00 | 0.00 | 0.00 | 90 | 1017.4 |
| 20260831131616 | 25 | 360 | 6.4 | 14.5 | 0.00 | 0.00 | 0.00 | 90 | 1017.4 |
| 20260831131518 | 25 | 360 | 6.4 | 12.9 | 0.00 | 0.00 | 0.00 | 90 | 1017.5 |
| 20260831131419 | 25 | 360 | 6.4 | 12.9 | 0.00 | 0.00 | 0.00 | 90 | 1017.4 |
| 20260831131320 | 25 | 360 | 6.4 | 12.9 | 0.00 | 0.00 | 0.00 | 90 | 1017.4 |
| 20260831131220 | 25 | 360 | 4.8 | 9.7 | 0.00 | 0.00 | 0.00 | 90 | 1017.5 |
| 20260831131120 | 25 | 360 | 4.8 | 12.9 | 0.00 | 0.00 | 0.00 | 90 | 1017.5 |
| 20260831131025 | 25 | 360 | 4.8 | 12.9 | 0.00 | 0.00 | 0.00 | 90 | 1017.4 |
| 20260831130927 | 25 | 360 | 6.4 | 12.9 | 0.00 | 0.00 | 0.00 | 90 | 1017.4 |
| 20260831130827 | 25 | 360 | 6.4 | 12.9 | 0.00 | 0.00 | 0.00 | 90 | 1017.4 |
| 20260831130728 | 25 | 360 | 6.4 | 12.9 | 0.00 | 0.00 | 0.00 | 90 | 1017.3 |
| 20260831130629 | 25 | 360 | 4.8 | 12.9 | 0.00 | 0.00 | 0.00 | 90 | 1017.4 |
| 20260831130528 | 25 | 360 | 4.8 | 12.9 | 0.00 | 0.00 | 0.00 | 90 | 1017.3 |
| 20260831130429 | 25 | 360 | 4.8 | 12.9 | 0.00 | 0.00 | 0.00 | 90 | 1017.3 |
| 20260831130353 | 25 | 360 | 4.8 | 12.9 | 0.00 | 0.00 | 0.00 | 90 | 1017.3 |
| 20260831130232 | 25 | 360 | 3.2 | 12.9 | 0.00 | 0.00 | 0.00 | 90 | 1017.3 |
| 20260831130133 | 25 | 360 | 1.6 | 9.7 | 0.00 | 0.00 | 0.00 | 90 | 1017.3 |
| 20260831130033 | 25 | 360 | 1.6 | 9.7 | 0.00 | 0.00 | 0.00 | 90 | 1017.2 |
| 20260831125933 | 25 | 360 | 3.2 | 9.7 | 0.00 | 0.00 | 0.00 | 90 | 1017.3 |
| 20260831125835 | 25 | 360 | 3.2 | 9.7 | 0.00 | 0.00 | 0.00 | 90 | 1017.3 |
| 20260831125719 | 25 | 360 | 4.8 | 9.7 | 0.00 | 0.00 | 0.00 | 90 | 1017.3 |
| 20260831125617 | 25 | 360 | 3.2 | 9.7 | 0.00 | 0.00 | 0.00 | 90 | 1017.3 |
| 20260831125517 | 25 | 360 | 3.2 | 9.7 | 0.00 | 0.00 | 0.00 | 91 | 1017.2 |
| 20260831125418 | 25 | 360 | 3.2 | 8.0 | 0.00 | 0.00 | 0.00 | 91 | 1017.1 |
| 20260831125318 | 25 | 360 | 4.8 | 8.0 | 0.00 | 0.00 | 0.00 | 90 | 1017.2 |
| 20260831125219 | 25 | 360 | 4.8 | 8.0 | 0.00 | 0.00 | 0.00 | 91 | 1017.1 |
| 20260831125119 | 25 | 360 | 4.8 | 8.0 | 0.00 | 0.00 | 0.00 | 91 | 1017.1 |
| 20260831125024 | 25 | 360 | 3.2 | 8.0 | 0.00 | 0.00 | 0.00 | 91 | 1017.1 |
| 20260831124925 | 25 | 360 | 1.6 | 8.0 | 0.00 | 0.00 | 0.00 | 91 | 1017.1 |
| 20260831124826 | 25 | 360 | 1.6 | 8.0 | 0.00 | 0.00 | 0.00 | 91 | 1017.2 |
| 20260831124728 | 25 | 360 | 1.6 | 8.0 | 0.00 | 0.00 | 0.00 | 91 | 1017.1 |
| 20260831124629 | 25 | 360 | 3.2 | 8.0 | 0.00 | 0.00 | 0.00 | 91 | 1017.1 |
| 20260831124530 | 25 | 360 | 3.2 | 6.4 | 0.00 | 0.00 | 0.00 | 91 | 1017.1 |
| 20260831124450 | 25 | 360 | 3.2 | 6.4 | 0.00 | 0.00 | 0.00 | 91 | 1017.1 |
| 20260831124334 | 25 | 360 | 3.2 | 6.4 | 0.00 | 0.00 | 0.00 | 91 | 1017.1 |
| 20260831124254 | 25 | 360 | 1.6 | 6.4 | 0.00 | 0.00 | 0.00 | 91 | 1017.1 |
| 20260831124134 | 25 | 360 | 3.2 | 6.4 | 0.00 | 0.00 | 0.00 | 91 | 1017.1 |
| 20260831124034 | 25 | 360 | 3.2 | 6.4 | 0.00 | 0.00 | 0.00 | 91 | 1017.0 |
| 20260831123935 | 25 | 360 | 3.2 | 6.4 | 0.00 | 0.00 | 0.00 | 91 | 1017.1 |
| 20260831123816 | 25 | 360 | 1.6 | 6.4 | 0.00 | 0.00 | 0.00 | 91 | 1017.1 |
| 20260831123717 | 25 | 360 | 3.2 | 8.0 | 0.00 | 0.00 | 0.00 | 91 | 1017.0 |
| 20260831123621 | 25 | 360 | 3.2 | 8.0 | 0.00 | 0.00 | 0.00 | 91 | 1017.1 |
| 20260831123523 | 25 | 360 | 3.2 | 8.0 | 0.00 | 0.00 | 0.00 | 91 | 1017.1 |
| 20260831123423 | 25 | 360 | 3.2 | 8.0 | 0.00 | 0.00 | 0.00 | 91 | 1017.1 |
| 20260831123344 | 25 | 360 | 1.6 | 8.0 | 0.00 | 0.00 | 0.00 | 91 | 1017.1 |
| 20260831123224 | 25 | 360 | 3.2 | 8.0 | 0.00 | 0.00 | 0.00 | 91 | 1017.1 |
| 20260831123125 | 25 | 360 | 3.2 | 8.0 | 0.00 | 0.00 | 0.00 | 91 | 1017.0 |
| 20260831123025 | 25 | 360 | 4.8 | 8.0 | 0.00 | 0.00 | 0.00 | 91 | 1017.0 |
| 20260831122950 | 25 | 360 | 4.8 | 8.0 | 0.00 | 0.00 | 0.00 | 91 | 1017.0 |
| 20260831122832 | 25 | 360 | 4.8 | 8.0 | 0.00 | 0.00 | 0.00 | 91 | 1017.1 |
| 20260831122731 | 24 | 360 | 4.8 | 8.0 | 0.00 | 0.00 | 0.00 | 91 | 1017.0 |
| 20260831122631 | 24 | 188 | 4.8 | 8.0 | 0.00 | 0.00 | 0.00 | 91 | 1017.0 |
| 20260831122532 | 24 | 360 | 3.2 | 8.0 | 0.00 | 0.00 | 0.00 | 90 | 1017.0 |
| 20260831122433 | 24 | 360 | 4.8 | 8.0 | 0.00 | 0.00 | 0.00 | 90 | 1017.0 |
| 20260831122354 | 24 | 360 | 4.8 | 8.0 | 0.00 | 0.00 | 0.00 | 90 | 1017.0 |
| 20260831122218 | 24 | 360 | 4.8 | 8.0 | 0.00 | 0.00 | 0.00 | 90 | 1017.0 |
| 20260831122118 | 25 | 360 | 4.8 | 8.0 | 0.00 | 0.00 | 0.00 | 90 | 1017.1 |
| 20260831122018 | 25 | 360 | 4.8 | 8.0 | 0.00 | 0.00 | 0.00 | 90 | 1017.2 |
| 20260831121938 | 25 | 360 | 4.8 | 8.0 | 0.00 | 0.00 | 0.00 | 90 | 1017.0 |
| 20260831121818 | 25 | 360 | 4.8 | 8.0 | 0.00 | 0.00 | 0.00 | 90 | 1017.1 |
| 20260831121718 | 25 | 360 | 3.2 | 6.4 | 0.00 | 0.00 | 0.00 | 90 | 1017.1 |
| 20260831121619 | 25 | 360 | 3.2 | 6.4 | 0.00 | 0.00 | 0.00 | 90 | 1017.0 |
| 20260831121524 | 25 | 360 | 3.2 | 6.4 | 0.00 | 0.00 | 0.00 | 90 | 1017.1 |
| 20260831121424 | 25 | 360 | 4.8 | 6.4 | 0.00 | 0.00 | 0.00 | 90 | 1017.0 |
| 20260831121324 | 25 | 360 | 3.2 | 6.4 | 0.00 | 0.00 | 0.00 | 90 | 1017.1 |
| 20260831121226 | 25 | 360 | 3.2 | 6.4 | 0.00 | 0.00 | 0.00 | 90 | 1017.0 |
| 20260831121147 | 25 | 360 | 3.2 | 6.4 | 0.00 | 0.00 | 0.00 | 90 | 1017.0 |
| 20260831121027 | 25 | 360 | 3.2 | 6.4 | 0.00 | 0.00 | 0.00 | 90 | 1017.1 |
| 20260831120947 | 25 | 360 | 3.2 | 6.4 | 0.00 | 0.00 | 0.00 | 90 | 1017.0 |
| 20260831120831 | 25 | 360 | 3.2 | 6.4 | 0.00 | 0.00 | 0.00 | 90 | 1016.9 |
| 20260831120731 | 25 | 360 | 1.6 | 6.4 | 0.00 | 0.00 | 0.00 | 90 | 1017.0 |
| 20260831120631 | 25 | 186 | 1.6 | 6.4 | 0.00 | 0.00 | 0.00 | 90 | 1016.9 |
| 20260831120531 | 25 | 360 | 1.6 | 6.4 | 0.00 | 0.00 | 0.00 | 90 | 1017.0 |
| 20260831120451 | 25 | 360 | 1.6 | 6.4 | 0.00 | 0.00 | 0.00 | 90 | 1017.0 |
| 20260831120330 | 25 | 360 | 3.2 | 6.4 | 0.00 | 0.00 | 0.00 | 90 | 1016.9 |
| 20260831120231 | 25 | 360 | 3.2 | 6.4 | 0.00 | 0.00 | 0.00 | 90 | 1016.9 |
| 20260831120116 | 25 | 360 | 3.2 | 6.4 | 0.00 | 0.00 | 0.00 | 90 | 1017.0 |
| 20260831120017 | 25 | 360 | 3.2 | 6.4 | 0.00 | 0.00 | 0.00 | 90 | 1017.0 |
| 20260831115917 | 25 | 360 | 1.6 | 8.0 | 0.00 | 0.00 | 0.00 | 90 | 1017.0 |
| 20260831115819 | 25 | 360 | 1.6 | 8.0 | 0.00 | 0.00 | 0.00 | 90 | 1017.0 |
| 20260831115720 | 25 | 360 | 3.2 | 8.0 | 0.00 | 0.00 | 0.00 | 90 | 1017.0 |
| 20260831115620 | 25 | 360 | 3.2 | 8.0 | 0.00 | 0.00 | 0.00 | 90 | 1017.0 |
| 20260831115520 | 25 | 360 | 3.2 | 9.7 | 0.00 | 0.00 | 0.00 | 90 | 1017.0 |
| 20260831115424 | 25 | 360 | 4.8 | 9.7 | 0.00 | 0.00 | 0.00 | 90 | 1017.0 |
| 20260831115325 | 25 | 360 | 4.8 | 9.7 | 0.00 | 0.00 | 0.00 | 90 | 1017.0 |
| 20260831115225 | 25 | 360 | 4.8 | 9.7 | 0.00 | 0.00 | 0.00 | 90 | 1017.1 |
| 20260831115125 | 25 | 360 | 6.4 | 9.7 | 0.00 | 0.00 | 0.00 | 90 | 1017.0 |
| 20260831115027 | 25 | 360 | 6.4 | 9.7 | 0.00 | 0.00 | 0.00 | 90 | 1017.0 |
| 20260831114927 | 25 | 360 | 6.4 | 9.7 | 0.00 | 0.00 | 0.00 | 90 | 1017.0 |
| 20260831114831 | 25 | 360 | 6.4 | 14.5 | 0.00 | 0.00 | 0.00 | 90 | 1017.0 |
| 20260831114732 | 25 | 360 | 6.4 | 14.5 | 0.00 | 0.00 | 0.00 | 90 | 1017.0 |
| 20260831114632 | 25 | 360 | 4.8 | 14.5 | 0.00 | 0.00 | 0.00 | 89 | 1017.0 |
| 20260831114532 | 25 | 360 | 4.8 | 14.5 | 0.00 | 0.00 | 0.00 | 90 | 1017.0 |
| 20260831114432 | 25 | 360 | 4.8 | 14.5 | 0.00 | 0.00 | 0.00 | 89 | 1017.0 |
| 20260831114332 | 25 | 360 | 4.8 | 14.5 | 0.00 | 0.00 | 0.00 | 89 | 1017.0 |
| 20260831114216 | 25 | 360 | 4.8 | 14.5 | 0.00 | 0.00 | 0.00 | 89 | 1017.0 |
| 20260831114117 | 25 | 360 | 6.4 | 14.5 | 0.00 | 0.00 | 0.00 | 89 | 1016.9 |
| 20260831114017 | 25 | 360 | 6.4 | 14.5 | 0.00 | 0.00 | 0.00 | 89 | 1016.9 |
| 20260831113918 | 25 | 360 | 6.4 | 14.5 | 0.00 | 0.00 | 0.00 | 89 | 1016.9 |
| 20260831113818 | 25 | 360 | 6.4 | 14.5 | 0.00 | 0.00 | 0.00 | 89 | 1016.9 |
| 20260831113719 | 25 | 360 | 6.4 | 14.5 | 0.00 | 0.00 | 0.00 | 89 | 1017.0 |
| 20260831113619 | 25 | 360 | 6.4 | 14.5 | 0.00 | 0.00 | 0.00 | 89 | 1017.0 |
| 20260831113544 | 25 | 360 | 6.4 | 14.5 | 0.00 | 0.00 | 0.00 | 89 | 1016.9 |
| 20260831113424 | 25 | 360 | 6.4 | 14.5 | 0.00 | 0.00 | 0.00 | 89 | 1016.9 |
| 20260831113325 | 25 | 360 | 6.4 | 8.0 | 0.00 | 0.00 | 0.00 | 89 | 1017.0 |
| 20260831113225 | 25 | 360 | 6.4 | 8.0 | 0.00 | 0.00 | 0.00 | 89 | 1017.0 |
| 20260831113126 | 25 | 360 | 4.8 | 8.0 | 0.00 | 0.00 | 0.00 | 89 | 1017.0 |
| 20260831113028 | 25 | 360 | 3.2 | 8.0 | 0.00 | 0.00 | 0.00 | 89 | 1017.0 |
| 20260831112928 | 25 | 360 | 3.2 | 8.0 | 0.00 | 0.00 | 0.00 | 89 | 1017.1 |
| 20260831112834 | 25 | 360 | 1.6 | 8.0 | 0.00 | 0.00 | 0.00 | 89 | 1017.1 |
| 20260831112733 | 25 | 360 | 3.2 | 8.0 | 0.00 | 0.00 | 0.00 | 89 | 1017.1 |
| 20260831112633 | 25 | 360 | 3.2 | 11.3 | 0.00 | 0.00 | 0.00 | 89 | 1017.1 |
| 20260831112534 | 25 | 360 | 3.2 | 11.3 | 0.00 | 0.00 | 0.00 | 89 | 1017.1 |
| 20260831112453 | 25 | 360 | 3.2 | 11.3 | 0.00 | 0.00 | 0.00 | 89 | 1017.0 |
| 20260831112333 | 25 | 360 | 3.2 | 11.3 | 0.00 | 0.00 | 0.00 | 89 | 1017.0 |
| 20260831112234 | 25 | 360 | 3.2 | 11.3 | 0.00 | 0.00 | 0.00 | 89 | 1017.0 |
| 20260831112139 | 25 | 360 | 4.8 | 11.3 | 0.00 | 0.00 | 0.00 | 89 | 1017.1 |
| 20260831112019 | 25 | 360 | 6.4 | 12.9 | 0.00 | 0.00 | 0.00 | 89 | 1017.0 |
| 20260831111919 | 25 | 360 | 6.4 | 12.9 | 0.00 | 0.00 | 0.00 | 89 | 1017.1 |
| 20260831111819 | 25 | 360 | 8.0 | 12.9 | 0.00 | 0.00 | 0.00 | 89 | 1017.0 |
| 20260831111720 | 25 | 360 | 6.4 | 9.7 | 0.00 | 0.00 | 0.00 | 89 | 1017.1 |
| 20260831111621 | 25 | 360 | 4.8 | 8.0 | 0.00 | 0.00 | 0.00 | 89 | 1017.0 |
| 20260831111521 | 25 | 360 | 3.2 | 8.0 | 0.00 | 0.00 | 0.00 | 89 | 1017.0 |
| 20260831111426 | 25 | 360 | 1.6 | 8.0 | 0.00 | 0.00 | 0.00 | 89 | 1017.0 |
| 20260831111346 | 25 | 360 | 1.6 | 8.0 | 0.00 | 0.00 | 0.00 | 89 | 1017.0 |
| 20260831111246 | 25 | 360 | 3.2 | 8.0 | 0.00 | 0.00 | 0.00 | 89 | 1017.1 |
| 20260831111125 | 25 | 360 | 4.8 | 8.0 | 0.00 | 0.00 | 0.00 | 89 | 1017.0 |
| 20260831111025 | 25 | 360 | 4.8 | 8.0 | 0.00 | 0.00 | 0.00 | 89 | 1016.9 |
| 20260831110926 | 25 | 360 | 3.2 | 8.0 | 0.00 | 0.00 | 0.00 | 89 | 1017.0 |
| 20260831110827 | 25 | 360 | 1.6 | 8.0 | 0.00 | 0.00 | 0.00 | 89 | 1017.0 |
| 20260831110748 | 25 | 360 | 1.6 | 8.0 | 0.00 | 0.00 | 0.00 | 89 | 1017.0 |
| 20260831110632 | 25 | 360 | 1.6 | 8.0 | 0.00 | 0.00 | 0.00 | 89 | 1017.0 |
| 20260831110532 | 25 | 360 | 1.6 | 8.0 | 0.00 | 0.00 | 0.00 | 89 | 1017.0 |
| 20260831110432 | 25 | 360 | 1.6 | 8.0 | 0.00 | 0.00 | 0.00 | 89 | 1017.0 |
| 20260831110333 | 25 | 360 | 3.2 | 8.0 | 0.00 | 0.00 | 0.00 | 89 | 1016.9 |
| 20260831110233 | 25 | 360 | 3.2 | 8.0 | 0.00 | 0.00 | 0.00 | 89 | 1016.9 |
| 20260831110134 | 25 | 360 | 3.2 | 8.0 | 0.00 | 0.00 | 0.00 | 89 | 1016.9 |
| 20260831110019 | 25 | 360 | 3.2 | 8.0 | 0.00 | 0.00 | 0.00 | 89 | 1016.9 |
| 20260831105920 | 25 | 360 | 3.2 | 8.0 | 0.00 | 0.00 | 0.00 | 89 | 1016.9 |
| 20260831105821 | 25 | 360 | 4.8 | 8.0 | 0.00 | 0.00 | 0.00 | 89 | 1016.9 |
| 20260831105720 | 25 | 360 | 3.2 | 8.0 | 0.00 | 0.00 | 0.00 | 89 | 1016.8 |
| 20260831105621 | 25 | 360 | 3.2 | 8.0 | 0.00 | 0.00 | 0.00 | 89 | 1016.8 |
| 20260831105522 | 25 | 360 | 1.6 | 8.0 | 0.00 | 0.00 | 0.00 | 89 | 1016.8 |
| 20260831105426 | 25 | 360 | 3.2 | 8.0 | 0.00 | 0.00 | 0.00 | 89 | 1016.8 |
| 20260831105326 | 25 | 360 | 3.2 | 8.0 | 0.00 | 0.00 | 0.00 | 89 | 1016.9 |
| 20260831105225 | 25 | 360 | 3.2 | 8.0 | 0.00 | 0.00 | 0.00 | 89 | 1016.8 |
| 20260831105126 | 25 | 360 | 3.2 | 8.0 | 0.00 | 0.00 | 0.00 | 89 | 1016.8 |
| 20260831105027 | 25 | 360 | 4.8 | 8.0 | 0.00 | 0.00 | 0.00 | 89 | 1016.8 |
| 20260831104929 | 25 | 360 | 3.2 | 8.0 | 0.00 | 0.00 | 0.00 | 89 | 1016.8 |
| 20260831104829 | 25 | 360 | 3.2 | 8.0 | 0.00 | 0.00 | 0.00 | 89 | 1016.8 |
| 20260831104733 | 25 | 360 | 3.2 | 8.0 | 0.00 | 0.00 | 0.00 | 89 | 1016.7 |
| 20260831104633 | 25 | 360 | 3.2 | 8.0 | 0.00 | 0.00 | 0.00 | 89 | 1016.9 |
| 20260831104533 | 25 | 360 | 1.6 | 8.0 | 0.00 | 0.00 | 0.00 | 89 | 1016.8 |
| 20260831104454 | 25 | 360 | 1.6 | 8.0 | 0.00 | 0.00 | 0.00 | 89 | 1016.8 |
| 20260831104333 | 25 | 360 | 1.6 | 8.0 | 0.00 | 0.00 | 0.00 | 89 | 1016.8 |
| 20260831104233 | 25 | 360 | 3.2 | 8.0 | 0.00 | 0.00 | 0.00 | 89 | 1016.8 |
| 20260831104133 | 25 | 360 | 3.2 | 8.0 | 0.00 | 0.00 | 0.00 | 89 | 1016.9 |
| 20260831104018 | 25 | 360 | 3.2 | 8.0 | 0.00 | 0.00 | 0.00 | 89 | 1016.8 |
| 20260831103919 | 25 | 360 | 1.6 | 8.0 | 0.00 | 0.00 | 0.00 | 89 | 1016.9 |
| 20260831103819 | 25 | 360 | 1.6 | 8.0 | 0.00 | 0.00 | 0.00 | 89 | 1016.8 |
| 20260831103720 | 25 | 360 | 1.6 | 8.0 | 0.00 | 0.00 | 0.00 | 89 | 1016.8 |
| 20260831103642 | 25 | 360 | 3.2 | 8.0 | 0.00 | 0.00 | 0.00 | 89 | 1016.8 |
| 20260831103520 | 25 | 198 | 3.2 | 8.0 | 0.00 | 0.00 | 0.00 | 89 | 1016.8 |
| 20260831103421 | 25 | 360 | 4.8 | 8.0 | 0.00 | 0.00 | 0.00 | 89 | 1016.9 |
| 20260831103341 | 25 | 360 | 4.8 | 9.7 | 0.00 | 0.00 | 0.00 | 89 | 1016.8 |
| 20260831103225 | 25 | 360 | 4.8 | 9.7 | 0.00 | 0.00 | 0.00 | 89 | 1016.9 |
| 20260831103125 | 25 | 360 | 4.8 | 9.7 | 0.00 | 0.00 | 0.00 | 89 | 1016.9 |
| 20260831103025 | 25 | 360 | 3.2 | 9.7 | 0.00 | 0.00 | 0.00 | 89 | 1016.9 |
| 20260831102927 | 25 | 360 | 4.8 | 9.7 | 0.00 | 0.00 | 0.00 | 89 | 1016.9 |
| 20260831102828 | 25 | 360 | 4.8 | 9.7 | 0.00 | 0.00 | 0.00 | 89 | 1016.9 |
| 20260831102728 | 25 | 360 | 6.4 | 9.7 | 0.00 | 0.00 | 0.00 | 89 | 1016.8 |
| 20260831102632 | 25 | 360 | 6.4 | 9.7 | 0.00 | 0.00 | 0.00 | 89 | 1016.8 |
| 20260831102533 | 25 | 360 | 4.8 | 9.7 | 0.00 | 0.00 | 0.00 | 89 | 1016.8 |
| 20260831102433 | 25 | 360 | 4.8 | 9.7 | 0.00 | 0.00 | 0.00 | 88 | 1016.8 |
| 20260831102334 | 25 | 360 | 3.2 | 9.7 | 0.00 | 0.00 | 0.00 | 88 | 1016.8 |
| 20260831102234 | 25 | 360 | 3.2 | 9.7 | 0.00 | 0.00 | 0.00 | 88 | 1016.7 |
| 20260831102135 | 25 | 360 | 3.2 | 9.7 | 0.00 | 0.00 | 0.00 | 88 | 1016.8 |
| 20260831102020 | 25 | 360 | 3.2 | 9.7 | 0.00 | 0.00 | 0.00 | 88 | 1016.8 |
| 20260831101921 | 25 | 360 | 3.2 | 9.7 | 0.00 | 0.00 | 0.00 | 88 | 1016.8 |
| 20260831101822 | 25 | 360 | 3.2 | 9.7 | 0.00 | 0.00 | 0.00 | 88 | 1016.8 |
| 20260831101722 | 25 | 360 | 4.8 | 9.7 | 0.00 | 0.00 | 0.00 | 88 | 1016.8 |
| 20260831101643 | 25 | 360 | 4.8 | 12.9 | 0.00 | 0.00 | 0.00 | 88 | 1016.9 |
| 20260831101603 | 25 | 360 | 4.8 | 12.9 | 0.00 | 0.00 | 0.00 | 88 | 1016.9 |
| 20260831101416 | 25 | 360 | 4.8 | 12.9 | 0.00 | 0.00 | 0.00 | 88 | 1016.8 |
| 20260831101321 | 25 | 360 | 4.8 | 12.9 | 0.00 | 0.00 | 0.00 | 88 | 1016.9 |
| 20260831101223 | 25 | 184 | 4.8 | 12.9 | 0.00 | 0.00 | 0.00 | 88 | 1016.8 |
| 20260831101123 | 25 | 360 | 4.8 | 12.9 | 0.00 | 0.00 | 0.00 | 88 | 1016.9 |
| 20260831101024 | 25 | 360 | 6.4 | 12.9 | 0.00 | 0.00 | 0.00 | 88 | 1016.9 |
| 20260831100925 | 25 | 184 | 6.4 | 12.9 | 0.00 | 0.00 | 0.00 | 88 | 1016.9 |
| 20260831100825 | 25 | 360 | 4.8 | 12.9 | 0.00 | 0.00 | 0.00 | 88 | 1016.8 |
| 20260831100727 | 25 | 360 | 4.8 | 12.9 | 0.00 | 0.00 | 0.00 | 88 | 1016.9 |
| 20260831100630 | 25 | 360 | 4.8 | 12.9 | 0.00 | 0.00 | 0.00 | 88 | 1016.9 |
| 20260831100531 | 25 | 360 | 4.8 | 12.9 | 0.00 | 0.00 | 0.00 | 88 | 1016.9 |
| 20260831100432 | 25 | 360 | 4.8 | 12.9 | 0.00 | 0.00 | 0.00 | 88 | 1016.9 |
| 20260831100353 | 25 | 360 | 6.4 | 12.9 | 0.00 | 0.00 | 0.00 | 88 | 1016.9 |
| 20260831100252 | 25 | 360 | 6.4 | 12.9 | 0.00 | 0.00 | 0.00 | 88 | 1017.0 |
| 20260831100130 | 25 | 360 | 6.4 | 12.9 | 0.00 | 0.00 | 0.00 | 88 | 1016.9 |
| 20260831100050 | 25 | 360 | 6.4 | 12.9 | 0.00 | 0.00 | 0.00 | 88 | 1017.0 |
| 20260831095950 | 25 | 360 | 6.4 | 12.9 | 0.00 | 0.00 | 0.00 | 88 | 1016.9 |
| 20260831095832 | 25 | 360 | 6.4 | 12.9 | 0.00 | 0.00 | 0.00 | 88 | 1016.9 |
| 20260831095734 | 25 | 360 | 4.8 | 17.7 | 0.00 | 0.00 | 0.00 | 88 | 1016.9 |
| 20260831095635 | 25 | 161 | 3.2 | 17.7 | 0.00 | 0.00 | 0.00 | 88 | 1016.9 |
| 20260831095534 | 25 | 360 | 3.2 | 17.7 | 0.00 | 0.00 | 0.00 | 88 | 1016.9 |
| 20260831095455 | 25 | 198 | 3.2 | 17.7 | 0.00 | 0.00 | 0.00 | 88 | 1016.8 |
| 20260831095355 | 25 | 360 | 3.2 | 17.7 | 0.00 | 0.00 | 0.00 | 88 | 1016.9 |
| 20260831095235 | 25 | 360 | 4.8 | 17.7 | 0.00 | 0.00 | 0.00 | 88 | 1016.9 |
| 20260831095134 | 25 | 360 | 6.4 | 17.7 | 0.00 | 0.00 | 0.00 | 88 | 1016.9 |
| 20260831095019 | 25 | 360 | 6.4 | 17.7 | 0.00 | 0.00 | 0.00 | 88 | 1016.9 |
| 20260831094920 | 25 | 360 | 6.4 | 17.7 | 0.00 | 0.00 | 0.00 | 88 | 1016.9 |
| 20260831094821 | 25 | 360 | 6.4 | 16.1 | 0.00 | 0.00 | 0.00 | 88 | 1016.9 |
| 20260831094721 | 25 | 360 | 6.4 | 16.1 | 0.00 | 0.00 | 0.00 | 88 | 1016.9 |
| 20260831094643 | 25 | 360 | 6.4 | 16.1 | 0.00 | 0.00 | 0.00 | 88 | 1016.8 |
| 20260831094516 | 25 | 360 | 6.4 | 16.1 | 0.00 | 0.00 | 0.00 | 87 | 1016.9 |
| 20260831094437 | 25 | 360 | 4.8 | 14.5 | 0.00 | 0.00 | 0.00 | 87 | 1016.9 |
| 20260831094321 | 25 | 360 | 4.8 | 14.5 | 0.00 | 0.00 | 0.00 | 87 | 1016.9 |
| 20260831094221 | 25 | 360 | 4.8 | 14.5 | 0.00 | 0.00 | 0.00 | 87 | 1016.8 |
| 20260831094122 | 25 | 360 | 4.8 | 14.5 | 0.00 | 0.00 | 0.00 | 87 | 1016.8 |
| 20260831094023 | 25 | 360 | 4.8 | 14.5 | 0.00 | 0.00 | 0.00 | 87 | 1016.8 |
| 20260831093923 | 25 | 360 | 4.8 | 14.5 | 0.00 | 0.00 | 0.00 | 87 | 1016.8 |
| 20260831093824 | 25 | 360 | 4.8 | 14.5 | 0.00 | 0.00 | 0.00 | 87 | 1016.7 |
| 20260831093725 | 25 | 360 | 4.8 | 12.9 | 0.00 | 0.00 | 0.00 | 87 | 1016.7 |
| 20260831093629 | 25 | 360 | 4.8 | 16.1 | 0.00 | 0.00 | 0.00 | 87 | 1016.7 |
| 20260831093531 | 25 | 360 | 4.8 | 16.1 | 0.00 | 0.00 | 0.00 | 87 | 1016.7 |
| 20260831093432 | 25 | 360 | 6.4 | 16.1 | 0.00 | 0.00 | 0.00 | 87 | 1016.7 |
| 20260831093333 | 25 | 360 | 6.4 | 16.1 | 0.00 | 0.00 | 0.00 | 87 | 1016.8 |
| 20260831093235 | 25 | 360 | 4.8 | 16.1 | 0.00 | 0.00 | 0.00 | 87 | 1016.7 |
| 20260831093135 | 25 | 360 | 3.2 | 16.1 | 0.00 | 0.00 | 0.00 | 87 | 1016.8 |
| 20260831093019 | 25 | 360 | 4.8 | 16.1 | 0.00 | 0.00 | 0.00 | 87 | 1016.8 |
| 20260831092940 | 25 | 360 | 4.8 | 16.1 | 0.00 | 0.00 | 0.00 | 87 | 1016.7 |
| 20260831092840 | 25 | 360 | 4.8 | 16.1 | 0.00 | 0.00 | 0.00 | 87 | 1016.7 |
| 20260831092719 | 25 | 360 | 6.4 | 16.1 | 0.00 | 0.00 | 0.00 | 87 | 1016.7 |
| 20260831092640 | 25 | 360 | 4.8 | 19.3 | 0.00 | 0.00 | 0.00 | 87 | 1016.7 |
| 20260831092520 | 25 | 360 | 4.8 | 19.3 | 0.00 | 0.00 | 0.00 | 87 | 1016.7 |
| 20260831092420 | 25 | 360 | 4.8 | 19.3 | 0.00 | 0.00 | 0.00 | 87 | 1016.7 |
| 20260831092320 | 25 | 360 | 6.4 | 19.3 | 0.00 | 0.00 | 0.00 | 87 | 1016.7 |
| 20260831092222 | 25 | 360 | 6.4 | 19.3 | 0.00 | 0.00 | 0.00 | 87 | 1016.7 |
| 20260831092123 | 25 | 360 | 8.0 | 20.9 | 0.00 | 0.00 | 0.00 | 87 | 1016.6 |
| 20260831092043 | 25 | 360 | 8.0 | 20.9 | 0.00 | 0.00 | 0.00 | 87 | 1016.7 |
| 20260831091923 | 25 | 360 | 8.0 | 20.9 | 0.00 | 0.00 | 0.00 | 87 | 1016.7 |
| 20260831091823 | 25 | 360 | 6.4 | 20.9 | 0.00 | 0.00 | 0.00 | 87 | 1016.7 |
| 20260831091724 | 25 | 360 | 4.8 | 20.9 | 0.00 | 0.00 | 0.00 | 87 | 1016.6 |
| 20260831091624 | 25 | 360 | 3.2 | 20.9 | 0.00 | 0.00 | 0.00 | 87 | 1016.6 |
| 20260831091529 | 25 | 360 | 6.4 | 20.9 | 0.00 | 0.00 | 0.00 | 87 | 1016.6 |
| 20260831091431 | 25 | 360 | 6.4 | 20.9 | 0.00 | 0.00 | 0.00 | 87 | 1016.6 |
| 20260831091331 | 25 | 360 | 8.0 | 20.9 | 0.00 | 0.00 | 0.00 | 87 | 1016.6 |
| 20260831091231 | 25 | 360 | 9.7 | 20.9 | 0.00 | 0.00 | 0.00 | 87 | 1016.6 |
| 20260831091132 | 25 | 360 | 8.0 | 20.9 | 0.00 | 0.00 | 0.00 | 87 | 1016.7 |
| 20260831091033 | 25 | 360 | 8.0 | 20.9 | 0.00 | 0.00 | 0.00 | 87 | 1016.6 |
| 20260831090918 | 25 | 360 | 4.8 | 17.7 | 0.00 | 0.00 | 0.00 | 87 | 1016.5 |
| 20260831090818 | 25 | 360 | 4.8 | 17.7 | 0.00 | 0.00 | 0.00 | 87 | 1016.6 |
| 20260831090718 | 25 | 360 | 6.4 | 17.7 | 0.00 | 0.00 | 0.00 | 87 | 1016.6 |
| 20260831090618 | 25 | 360 | 6.4 | 17.7 | 0.00 | 0.00 | 0.00 | 87 | 1016.6 |
| 20260831090519 | 25 | 360 | 8.0 | 19.3 | 0.00 | 0.00 | 0.00 | 87 | 1016.6 |
| 20260831090439 | 25 | 360 | 6.4 | 19.3 | 0.00 | 0.00 | 0.00 | 87 | 1016.6 |
| 20260831090318 | 25 | 360 | 6.4 | 19.3 | 0.00 | 0.00 | 0.00 | 86 | 1016.6 |
| 20260831090243 | 25 | 360 | 6.4 | 19.3 | 0.00 | 0.00 | 0.00 | 86 | 1016.7 |
| 20260831090142 | 25 | 360 | 6.4 | 19.3 | 0.00 | 0.00 | 0.00 | 86 | 1016.6 |
| 20260831090022 | 25 | 360 | 6.4 | 19.3 | 0.00 | 0.00 | 0.00 | 86 | 1016.7 |
| 20260831085923 | 25 | 360 | 6.4 | 19.3 | 0.00 | 0.00 | 0.00 | 86 | 1016.7 |
| 20260831085824 | 25 | 360 | 6.4 | 19.3 | 0.00 | 0.00 | 0.00 | 86 | 1016.6 |
| 20260831085723 | 25 | 360 | 9.7 | 19.3 | 0.00 | 0.00 | 0.00 | 86 | 1016.7 |
| 20260831085624 | 25 | 360 | 9.7 | 19.3 | 0.00 | 0.00 | 0.00 | 86 | 1016.7 |
| 20260831085529 | 25 | 360 | 8.0 | 19.3 | 0.00 | 0.00 | 0.00 | 86 | 1016.7 |
| 20260831085430 | 25 | 360 | 8.0 | 19.3 | 0.00 | 0.00 | 0.00 | 86 | 1016.7 |
| 20260831085350 | 25 | 360 | 8.0 | 19.3 | 0.00 | 0.00 | 0.00 | 86 | 1016.7 |
| 20260831085229 | 25 | 360 | 8.0 | 19.3 | 0.00 | 0.00 | 0.00 | 86 | 1016.7 |
| 20260831085129 | 25 | 360 | 11.3 | 19.3 | 0.00 | 0.00 | 0.00 | 86 | 1016.7 |
| 20260831085050 | 25 | 360 | 9.7 | 20.9 | 0.00 | 0.00 | 0.00 | 86 | 1016.7 |
| 20260831084930 | 25 | 360 | 9.7 | 20.9 | 0.00 | 0.00 | 0.00 | 86 | 1016.7 |
| 20260831084831 | 25 | 360 | 8.0 | 20.9 | 0.00 | 0.00 | 0.00 | 86 | 1016.8 |
| 20260831084716 | 25 | 360 | 8.0 | 20.9 | 0.00 | 0.00 | 0.00 | 86 | 1016.8 |
| 20260831084616 | 25 | 360 | 6.4 | 20.9 | 0.00 | 0.00 | 0.00 | 86 | 1016.8 |
| 20260831084517 | 25 | 360 | 8.0 | 20.9 | 0.00 | 0.00 | 0.00 | 86 | 1016.7 |
| 20260831084418 | 25 | 360 | 8.0 | 20.9 | 0.00 | 0.00 | 0.00 | 86 | 1016.8 |
| 20260831084317 | 25 | 360 | 8.0 | 20.9 | 0.00 | 0.00 | 0.00 | 86 | 1016.8 |
| 20260831084217 | 25 | 360 | 8.0 | 19.3 | 0.00 | 0.00 | 0.00 | 86 | 1016.7 |
| 20260831084122 | 25 | 360 | 8.0 | 19.3 | 0.00 | 0.00 | 0.00 | 86 | 1016.7 |
| 20260831084023 | 25 | 360 | 8.0 | 19.3 | 0.00 | 0.00 | 0.00 | 86 | 1016.7 |
| 20260831083944 | 25 | 360 | 9.7 | 19.3 | 0.00 | 0.00 | 0.00 | 86 | 1016.8 |
| 20260831083823 | 25 | 360 | 8.0 | 19.3 | 0.00 | 0.00 | 0.00 | 85 | 1016.7 |
| 20260831083723 | 25 | 360 | 8.0 | 19.3 | 0.00 | 0.00 | 0.00 | 85 | 1016.8 |
| 20260831083623 | 25 | 360 | 8.0 | 17.7 | 0.00 | 0.00 | 0.00 | 85 | 1016.7 |
| 20260831083544 | 25 | 360 | 9.7 | 19.3 | 0.00 | 0.00 | 0.00 | 85 | 1016.7 |
| 20260831083423 | 25 | 360 | 9.7 | 19.3 | 0.00 | 0.00 | 0.00 | 85 | 1016.8 |
| 20260831083328 | 25 | 360 | 11.3 | 20.9 | 0.00 | 0.00 | 0.00 | 85 | 1016.8 |
| 20260831083229 | 25 | 360 | 9.7 | 20.9 | 0.00 | 0.00 | 0.00 | 85 | 1016.8 |
| 20260831083130 | 25 | 360 | 8.0 | 20.9 | 0.00 | 0.00 | 0.00 | 85 | 1016.9 |
| 20260831083051 | 25 | 360 | 8.0 | 20.9 | 0.00 | 0.00 | 0.00 | 85 | 1016.8 |
| 20260831082929 | 25 | 360 | 9.7 | 20.9 | 0.00 | 0.00 | 0.00 | 85 | 1016.9 |
| 20260831082832 | 25 | 360 | 11.3 | 20.9 | 0.00 | 0.00 | 0.00 | 85 | 1016.8 |
| 20260831082751 | 26 | 360 | 12.9 | 20.9 | 0.00 | 0.00 | 0.00 | 85 | 1016.9 |
| 20260831082631 | 25 | 360 | 12.9 | 20.9 | 0.00 | 0.00 | 0.00 | 85 | 1016.8 |
| 20260831082536 | 25 | 360 | 12.9 | 20.9 | 0.00 | 0.00 | 0.00 | 85 | 1016.9 |
| 20260831082456 | 26 | 360 | 11.3 | 17.7 | 0.00 | 0.00 | 0.00 | 85 | 1016.9 |
| 20260831082355 | 26 | 360 | 9.7 | 17.7 | 0.00 | 0.00 | 0.00 | 85 | 1016.9 |
| 20260831082255 | 26 | 360 | 9.7 | 17.7 | 0.00 | 0.00 | 0.00 | 85 | 1016.9 |
| 20260831082135 | 25 | 360 | 8.0 | 17.7 | 0.00 | 0.00 | 0.00 | 85 | 1016.9 |
| 20260831082036 | 26 | 360 | 6.4 | 19.3 | 0.00 | 0.00 | 0.00 | 85 | 1016.9 |
| 20260831081935 | 25 | 360 | 6.4 | 19.3 | 0.00 | 0.00 | 0.00 | 85 | 1017.0 |
| 20260831081835 | 25 | 360 | 6.4 | 19.3 | 0.00 | 0.00 | 0.00 | 84 | 1016.9 |
| 20260831081720 | 25 | 360 | 8.0 | 19.3 | 0.00 | 0.00 | 0.00 | 84 | 1017.0 |
| 20260831081620 | 25 | 360 | 8.0 | 19.3 | 0.00 | 0.00 | 0.00 | 84 | 1016.9 |
| 20260831081542 | 25 | 360 | 6.4 | 19.3 | 0.00 | 0.00 | 0.00 | 84 | 1017.1 |
| 20260831081416 | 25 | 360 | 6.4 | 19.3 | 0.00 | 0.00 | 0.00 | 84 | 1016.9 |
| 20260831081317 | 25 | 360 | 6.4 | 19.3 | 0.00 | 0.00 | 0.00 | 84 | 1017.0 |
| 20260831081238 | 25 | 360 | 6.4 | 19.3 | 0.00 | 0.00 | 0.00 | 84 | 1016.9 |
| 20260831081117 | 25 | 360 | 6.4 | 19.3 | 0.00 | 0.00 | 0.00 | 84 | 1016.9 |
| 20260831081021 | 25 | 360 | 6.4 | 16.1 | 0.00 | 0.00 | 0.00 | 84 | 1016.8 |
| 20260831080922 | 25 | 360 | 8.0 | 16.1 | 0.00 | 0.00 | 0.00 | 84 | 1016.9 |
| 20260831080822 | 25 | 360 | 8.0 | 16.1 | 0.00 | 0.00 | 0.00 | 84 | 1016.9 |
| 20260831080723 | 25 | 360 | 8.0 | 14.5 | 0.00 | 0.00 | 0.00 | 84 | 1016.9 |
| 20260831080623 | 25 | 360 | 6.4 | 14.5 | 0.00 | 0.00 | 0.00 | 84 | 1016.9 |
| 20260831080523 | 25 | 360 | 6.4 | 14.5 | 0.00 | 0.00 | 0.00 | 84 | 1016.9 |
| 20260831080428 | 25 | 360 | 6.4 | 14.5 | 0.00 | 0.00 | 0.00 | 84 | 1016.8 |
| 20260831080348 | 25 | 360 | 6.4 | 14.5 | 0.00 | 0.00 | 0.00 | 84 | 1016.9 |
| 20260831080227 | 25 | 180 | 8.0 | 16.1 | 0.00 | 0.00 | 0.00 | 84 | 1016.9 |
| 20260831080128 | 25 | 360 | 8.0 | 16.1 | 0.00 | 0.00 | 0.00 | 84 | 1016.9 |
| 20260831080029 | 25 | 360 | 8.0 | 16.1 | 0.00 | 0.00 | 0.00 | 84 | 1016.8 |
| 20260831075927 | 25 | 360 | 8.0 | 16.1 | 0.00 | 0.00 | 0.00 | 84 | 1016.8 |
| 20260831075829 | 26 | 360 | 6.4 | 16.1 | 0.00 | 0.00 | 0.00 | 84 | 1016.9 |
| 20260831075728 | 26 | 360 | 6.4 | 16.1 | 0.00 | 0.00 | 0.00 | 84 | 1016.9 |
| 20260831075632 | 26 | 360 | 8.0 | 16.1 | 0.00 | 0.00 | 0.00 | 83 | 1016.8 |
| 20260831075552 | 26 | 360 | 6.4 | 16.1 | 0.00 | 0.00 | 0.00 | 83 | 1016.8 |
| 20260831075430 | 26 | 360 | 6.4 | 16.1 | 0.00 | 0.00 | 0.00 | 83 | 1016.8 |
| 20260831075328 | 26 | 360 | 8.0 | 16.1 | 0.00 | 0.00 | 0.00 | 83 | 1016.8 |
| 20260831075229 | 26 | 360 | 4.8 | 16.1 | 0.00 | 0.00 | 0.00 | 83 | 1016.8 |
| 20260831075130 | 26 | 183 | 4.8 | 16.1 | 0.00 | 0.00 | 0.00 | 83 | 1016.8 |
| 20260831075030 | 26 | 360 | 4.8 | 16.1 | 0.00 | 0.00 | 0.00 | 83 | 1016.9 |
| 20260831074932 | 26 | 360 | 4.8 | 16.1 | 0.00 | 0.00 | 0.00 | 83 | 1016.9 |
| 20260831074837 | 26 | 188 | 6.4 | 17.7 | 0.00 | 0.00 | 0.00 | 83 | 1016.9 |
| 20260831074735 | 26 | 360 | 8.0 | 17.7 | 0.00 | 0.00 | 0.00 | 83 | 1016.8 |
| 20260831074633 | 26 | 360 | 8.0 | 17.7 | 0.00 | 0.00 | 0.00 | 83 | 1016.9 |
| 20260831074533 | 26 | 360 | 9.7 | 17.7 | 0.00 | 0.00 | 0.00 | 83 | 1016.8 |
| 20260831074433 | 26 | 360 | 8.0 | 17.7 | 0.00 | 0.00 | 0.00 | 83 | 1016.9 |
| 20260831074335 | 26 | 360 | 8.0 | 17.7 | 0.00 | 0.00 | 0.00 | 83 | 1016.9 |
| 20260831074234 | 26 | 360 | 8.0 | 17.7 | 0.00 | 0.00 | 0.00 | 83 | 1016.8 |
| 20260831074120 | 26 | 360 | 9.7 | 17.7 | 0.00 | 0.00 | 0.00 | 82 | 1016.8 |
| 20260831074021 | 26 | 360 | 9.7 | 17.7 | 0.00 | 0.00 | 0.00 | 82 | 1016.7 |
| 20260831073943 | 26 | 360 | 9.7 | 17.7 | 0.00 | 0.00 | 0.00 | 82 | 1016.8 |
| 20260831073822 | 26 | 360 | 11.3 | 17.7 | 0.00 | 0.00 | 0.00 | 82 | 1016.8 |
| 20260831073723 | 26 | 360 | 8.0 | 16.1 | 0.00 | 0.00 | 0.00 | 82 | 1016.9 |
| 20260831073644 | 26 | 360 | 8.0 | 16.1 | 0.00 | 0.00 | 0.00 | 82 | 1016.8 |
| 20260831073523 | 26 | 360 | 9.7 | 16.1 | 0.00 | 0.00 | 0.00 | 82 | 1016.8 |
| 20260831073424 | 26 | 360 | 9.7 | 16.1 | 0.00 | 0.00 | 0.00 | 82 | 1016.9 |
| 20260831073329 | 26 | 360 | 9.7 | 16.1 | 0.00 | 0.00 | 0.00 | 82 | 1016.9 |
| 20260831073250 | 26 | 360 | 8.0 | 16.1 | 0.00 | 0.00 | 0.00 | 82 | 1016.9 |
| 20260831073130 | 26 | 360 | 6.4 | 16.1 | 0.00 | 0.00 | 0.00 | 82 | 1017.0 |
| 20260831073030 | 26 | 360 | 6.4 | 16.1 | 0.00 | 0.00 | 0.00 | 82 | 1016.9 |
| 20260831072951 | 26 | 360 | 6.4 | 16.1 | 0.00 | 0.00 | 0.00 | 82 | 1016.9 |
| 20260831072832 | 26 | 360 | 6.4 | 16.1 | 0.00 | 0.00 | 0.00 | 82 | 1016.9 |
| 20260831072752 | 26 | 360 | 8.0 | 16.1 | 0.00 | 0.00 | 0.00 | 81 | 1016.9 |
| 20260831072616 | 26 | 360 | 6.4 | 14.5 | 0.00 | 0.00 | 0.00 | 81 | 1016.9 |
| 20260831072517 | 26 | 360 | 6.4 | 14.5 | 0.00 | 0.00 | 0.00 | 81 | 1016.9 |
| 20260831072419 | 26 | 360 | 6.4 | 14.5 | 0.00 | 0.00 | 0.00 | 82 | 1016.9 |
| 20260831072319 | 26 | 360 | 4.8 | 14.5 | 0.00 | 0.00 | 0.00 | 82 | 1016.9 |
| 20260831072240 | 26 | 360 | 6.4 | 14.5 | 0.00 | 0.00 | 0.00 | 82 | 1016.9 |
| 20260831072140 | 26 | 360 | 6.4 | 12.9 | 0.00 | 0.00 | 0.00 | 81 | 1016.9 |
| 20260831072020 | 26 | 360 | 6.4 | 9.7 | 0.00 | 0.00 | 0.00 | 81 | 1016.9 |
| 20260831071940 | 26 | 360 | 6.4 | 16.1 | 0.00 | 0.00 | 0.00 | 81 | 1016.9 |
| 20260831071824 | 26 | 360 | 6.4 | 16.1 | 0.00 | 0.00 | 0.00 | 81 | 1017.0 |
| 20260831071723 | 26 | 360 | 6.4 | 16.1 | 0.00 | 0.00 | 0.00 | 81 | 1016.9 |
| 20260831071624 | 26 | 360 | 4.8 | 16.1 | 0.00 | 0.00 | 0.00 | 81 | 1016.9 |
| 20260831071525 | 26 | 360 | 4.8 | 16.1 | 0.00 | 0.00 | 0.00 | 81 | 1016.9 |
| 20260831071427 | 26 | 360 | 4.8 | 16.1 | 0.00 | 0.00 | 0.00 | 81 | 1016.9 |
| 20260831071348 | 26 | 360 | 3.2 | 20.9 | 0.00 | 0.00 | 0.00 | 81 | 1016.8 |
| 20260831071308 | 26 | 360 | 4.8 | 20.9 | 0.00 | 0.00 | 0.00 | 80 | 1016.8 |
| 20260831071022 | 26 | 360 | 8.0 | 20.9 | 0.00 | 0.00 | 0.00 | 80 | 1016.8 |
| 20260831070924 | 26 | 360 | 8.0 | 20.9 | 0.00 | 0.00 | 0.00 | 80 | 1016.8 |
| 20260831070826 | 26 | 360 | 9.7 | 20.9 | 0.00 | 0.00 | 0.00 | 80 | 1016.8 |
| 20260831070747 | 26 | 360 | 9.7 | 20.9 | 0.00 | 0.00 | 0.00 | 80 | 1016.8 |
| 20260831070627 | 26 | 360 | 9.7 | 20.9 | 0.00 | 0.00 | 0.00 | 80 | 1016.8 |
| 20260831070527 | 26 | 360 | 9.7 | 20.9 | 0.00 | 0.00 | 0.00 | 80 | 1016.9 |
| 20260831070428 | 26 | 360 | 9.7 | 20.9 | 0.00 | 0.00 | 0.00 | 80 | 1016.9 |
| 20260831070333 | 26 | 360 | 8.0 | 20.9 | 0.00 | 0.00 | 0.00 | 80 | 1016.9 |
| 20260831070234 | 26 | 360 | 8.0 | 20.9 | 0.00 | 0.00 | 0.00 | 80 | 1016.9 |
| 20260831070133 | 26 | 360 | 9.7 | 20.9 | 0.00 | 0.00 | 0.00 | 80 | 1016.9 |
| 20260831070034 | 26 | 185 | 9.7 | 20.9 | 0.00 | 0.00 | 0.00 | 80 | 1016.9 |
| 20260831065935 | 26 | 360 | 11.3 | 20.9 | 0.00 | 0.00 | 0.00 | 80 | 1016.9 |
| 20260831065817 | 26 | 360 | 9.7 | 17.7 | 0.00 | 0.00 | 0.00 | 79 | 1017.0 |
| 20260831065717 | 26 | 360 | 9.7 | 17.7 | 0.00 | 0.00 | 0.00 | 79 | 1017.0 |
| 20260831065642 | 26 | 360 | 9.7 | 17.7 | 0.00 | 0.00 | 0.00 | 79 | 1016.9 |
| 20260831065516 | 26 | 360 | 9.7 | 27.4 | 0.00 | 0.00 | 0.00 | 79 | 1016.9 |
| 20260831065416 | 26 | 360 | 9.7 | 27.4 | 0.00 | 0.00 | 0.00 | 79 | 1016.9 |
| 20260831065317 | 26 | 360 | 8.0 | 27.4 | 0.00 | 0.00 | 0.00 | 79 | 1017.0 |
| 20260831065218 | 26 | 360 | 6.4 | 27.4 | 0.00 | 0.00 | 0.00 | 79 | 1016.9 |
| 20260831065118 | 26 | 360 | 6.4 | 27.4 | 0.00 | 0.00 | 0.00 | 79 | 1017.0 |
| 20260831065040 | 26 | 360 | 6.4 | 27.4 | 0.00 | 0.00 | 0.00 | 79 | 1016.9 |
| 20260831064923 | 26 | 360 | 9.7 | 27.4 | 0.00 | 0.00 | 0.00 | 79 | 1016.9 |
| 20260831064824 | 26 | 360 | 9.7 | 27.4 | 0.00 | 0.00 | 0.00 | 79 | 1016.9 |
| 20260831064725 | 26 | 360 | 11.3 | 27.4 | 0.00 | 0.00 | 0.00 | 79 | 1016.9 |
| 20260831064645 | 26 | 360 | 9.7 | 24.1 | 0.00 | 0.00 | 0.00 | 78 | 1017.0 |
| 20260831064525 | 26 | 360 | 9.7 | 24.1 | 0.00 | 0.00 | 0.00 | 78 | 1016.9 |
| 20260831064447 | 26 | 360 | 8.0 | 24.1 | 0.00 | 0.00 | 0.00 | 78 | 1016.9 |
| 20260831064325 | 26 | 360 | 8.0 | 24.1 | 0.00 | 0.00 | 0.00 | 78 | 1017.0 |
| 20260831064230 | 27 | 360 | 8.0 | 24.1 | 0.00 | 0.00 | 0.00 | 78 | 1016.9 |
| 20260831064131 | 27 | 360 | 11.3 | 24.1 | 0.00 | 0.00 | 0.00 | 78 | 1016.9 |
| 20260831064031 | 27 | 360 | 12.9 | 24.1 | 0.00 | 0.00 | 0.00 | 78 | 1016.9 |
| 20260831063931 | 27 | 360 | 14.5 | 24.1 | 0.00 | 0.00 | 0.00 | 78 | 1016.9 |